     2.11           OBSERVATION DATA    G (GPS)             RINEX VERSION / TYPE
teqc 2010Oct21 OPUS Account 20111027 19:18:18UTC            PGM / RUN BY / DATE
C 1526                                                      MARKER NAME
3039                                                        MARKER NUMBER
CSMIDDLETON NGS                                             OBSERVER / AGENCY
4624K01631 TRIMBLE NETR5 4.41                               REC # / TYPE / VERS
12481390 TRM41249.00 NONE                                   ANT # / TYPE
  -755288.4981 -5563046.1809  3016924.8959                  APPROX POSITION XYZ
        2.0000        0.0000        0.0000                  ANTENNA: DELTA H/E/N
     1     1                                                WAVELENGTH FACT L1/2
     5    L1    L2    C1    P1    P2                        # / TYPES OF OBSERV
    15                                                      LEAP SECONDS
  2011     8    19     0     0    0.0000000     GPS         TIME OF FIRST OBS
                                                            END OF HEADER
 11  8 19  0  0  0.0000000  0  7G17G10G12G05G04G09G02
 119396539.08917  93036342.52617  22720409.828                    22720419.578
 110532011.17518  86128962.17856  21033531.609                    21033541.250
 116141912.37617  90500251.65617  22101070.969                    22101079.668
 120210955.65517  93670956.37517  22875377.789                    22875389.043
 110499050.42118  86103270.32156  21027252.570                    21027261.574
 120742518.92617  94085172.01854  22976544.531                    22976554.715
 108742534.70018  84734477.12856  20692976.695                    20692983.227
 11  8 19  0  0 30.0000000  0  7G17G10G12G05G04G09G02
 119441970.126 7  93071743.304 7  22729055.469                    22729064.906
 110502189.029 8  86105724.17146  21027856.820                    21027866.418
 116063678.495 8  90439290.230 7  22086183.547                    22086192.391
 120109854.522 7  93592176.395 7  22856139.102                    22856150.262
 110566560.093 8  86155875.22446  21040099.680                    21040108.727
 120808294.770 7  94136425.88544  22989061.234                    22989071.762
 108727078.243 8  84722433.15446  20690035.328                    20690042.008
 11  8 19  0  1  0.0000000  0  7G17G10G12G05G04G09G02
 119487526.493 7  93107241.750 7  22737724.086                    22737734.082
 110472950.804 8  86082941.15646  21022293.008                    21022301.930
 115985749.327 7  90378566.233 7  22071354.227                    22071362.746
 120008913.734 7  93513521.341 7  22836930.609                    22836941.418
 110634312.087 8  86208668.96546  21052992.352                    21053001.207
 120874402.344 7  94187938.24544  23001640.898                    23001651.746
 108711958.552 8  84710651.60846  20687158.336                    20687164.664
 11  8 19  0  1 30.0000000  0  7G17G10G12G05G04G09G02
 119533208.606 7  93142838.165 7  22746417.516                    22746426.746
 110444297.752 8  86060614.14346  21016840.711                    21016849.508
 115908127.956 7  90318082.067 7  22056583.320                    22056592.262
 119908135.863 7  93434993.251 7  22817753.586                    22817764.008
 110702303.941 8  86261649.61146  21065931.078                    21065940.137
 120940838.491 7  94239706.63044  23014283.242                    23014293.668
 108697174.797 8  84699131.81846  20684344.984                    20684351.691
 11  8 19  0  2  0.0000000  0  7G17G10G12G05G04G09G02
 119579017.703 7  93178533.537 7  22755134.398                    22755143.398
 110416231.785 8  86038744.59346  21011499.844                    21011509.148
 115830816.610 7  90257839.485 7  22041871.297                    22041880.441
 119807524.230 7  93356594.677 7  22798607.008                    22798618.523
 110770533.633 8  86314815.59046  21078914.742                    21078923.445
 121007599.998 7  94291728.53944  23026987.016                    23026998.617
 108682726.624 8  84687873.52646  20681595.461                    20681602.207
 11  8 19  0  2 30.0000000  0  7G17G10G12G05G04G09G02
 119624954.298 7  93214328.273 7  22763875.938                    22763885.152
 110388754.632 7  86017333.85746  21006271.180                    21006280.219
 115753818.399 7  90197840.906 7  22027218.547                    22027227.887
 119707082.320 7  93278328.370 7  22779493.703                    22779504.402
 110838999.169 8  86368165.32946  21091942.844                    21091952.160
 121074683.824 7  94344001.59044  23039753.195                    23039763.938
 108668613.508 8  84676876.31646  20678910.063                    20678916.328
 11  8 19  0  3  0.0000000  0  7G17G10G12G05G04G09G02
 119671018.689 7  93250222.574 7  22772641.602                    22772651.242
 110361867.369 8  85996382.77946  21001154.422                    21001163.395
 115677135.394 7  90138087.951 7  22012626.609                    22012635.383
 119606812.290 7  93200195.983 7  22760412.961                    22760423.785
 110907697.708 8  86421696.64746  21105015.922                    21105025.016
 121142086.136 7  94396522.84244  23052579.578                    23052590.180
 108654833.823 8  84666138.91246  20676287.602                    20676294.504
 11  8 19  0  3 30.0000000  0  7G17G10G12G05G04G09G02
 119717211.923 7  93286217.271 7  22781432.117                    22781441.676
 110335572.215 8  85975893.08546  20996150.438                    20996159.781
 115600770.658 8  90078582.992 7  21998095.313                    21998103.875
 119506717.546 7  93122200.182 7  22741365.398                    22741376.086
 110976627.467 8  86475408.13646  21118133.172                    21118141.863
 121209804.058 7  94449290.00544  23065465.789                    23065477.191
 108641387.340 8  84655661.15746  20673728.930                    20673735.590
 11  8 19  0  4  0.0000000  0  7G17G10G12G05G04G09G02
 119763534.525 7  93322312.764 6  22790247.031                    22790256.344
 110309870.484 8  85955865.79346  20991259.734                    20991268.895
 115524726.643 7  90019327.936 7  21983624.305                    21983633.129
 119406801.317 7  93044343.494 7  22722352.133                    22722362.738
 111045786.025 8  86529297.91946  21131293.375                    21131302.559
 121277834.107 7  94502300.37944  23078411.203                    23078422.273
 108628272.979 8  84645442.19746  20671233.188                    20671239.980
 11  8 19  0  4 30.0000000  0  7G17G10G12G05G04G09G02
 119809987.074 7  93358509.512 6  22799086.023                    22799095.742
 110284763.278 8  85936301.77146  20986482.516                    20986491.105
 115449005.811 8  89960324.715 7  21969215.023                    21969224.230
 119307066.413 7  92966628.088 7  22703373.219                    22703383.172
 111115170.825 8  86583363.99146  21144496.898                    21144505.840
 121346172.698 7  94555551.17944  23091416.078                    23091426.953
 108615489.723 8  84635481.23446  20668800.594                    20668807.352
 11  8 19  0  5  0.0000000  0  7G17G10G12G05G04G09G02
 119856570.215 7  93394807.984 6  22807951.266                    22807960.586
 110260252.209 8  85917202.27046  20981817.586                    20981826.996
 115373610.786 7  89901575.374 7  21954868.031                    21954876.613
 119207515.750 7  92889056.244 7  22684429.125                    22684439.953
 111184779.902 8  86637604.82346  21157742.969                    21157752.570
 121414816.530 6  94609039.81744  23104478.805                    23104489.840
 108603036.728 8  84625777.62946  20666430.945                    20666437.445
 11  8 19  0  5 30.0000000  0  7G17G10G12G05G04G09G02
 119903284.470 7  93431208.642 6  22816840.563                    22816849.570
 110236338.261 8  85898568.04946  20977266.664                    20977276.105
 115298544.069 7  89843081.856 7  21940582.695                    21940592.137
 119108151.974 7  92811630.031 7  22665521.055                    22665531.168
 111254610.489 8  86692018.26846  21171031.078                    21171040.773
 121483762.353 6  94662763.78844  23117598.180                    23117609.410
 108590912.970 8  84616330.56146  20664124.125                    20664130.645
 11  8 19  0  6  0.0000000  0  7G17G10G12G05G04G09G02
 119950130.727 7  93467712.184 6  22825755.141                    22825764.480
 110213023.524 8  85880400.74346  20972830.195                    20972839.367
 115223808.301 7  89784846.233 7  21926361.195                    21926370.414
 119008978.693 7  92734352.259 7  22646648.445                    22646658.758
 111324660.930 8  86746603.01346  21184361.406                    21184370.543
 121553006.992 6  94716720.59444  23130775.477                    23130786.734
 108579117.861 8  84607139.58846  20661879.289                    20661885.945
 11  8 19  0  6 30.0000000  0  7G17G10G12G05G04G09G02
 119997109.726 7  93504319.148 6  22834694.922                    22834704.738
 110190309.233 8  85862701.30746  20968507.906                    20968516.996
 115149406.285 7  89726870.676 7  21912203.203                    21912211.980
 118909998.838 7  92657225.216 7  22627813.148                    22627823.727
 111394928.664 8  86801357.09546  21197733.164                    21197742.184
 121622547.022 7  94770907.58444  23144008.063                    23144019.141
 108567650.677 8  84598204.14146  20659696.945                    20659703.746
 11  8 19  0  7  0.0000000  0  8G17G30G10G12G05G04G09G02
 120044221.682 7  93541029.722 7  22843659.945                    22843669.945
 127932257.34816  99687541.31553  24344706.516                    24344717.266
 110168196.122 8  85845470.32546  20964299.758                    20964309.078
 115075340.118 8  89669156.809 7  21898108.461                    21898117.191
 118811214.953 7  92580250.865 7  22609015.055                    22609025.676
 111465411.102 8  86856278.47446  21211145.484                    21211154.465
 121692378.791 7  94825321.86544  23157297.141                    23157307.594
 108556509.860 8  84589523.00546  20657577.242                    20657583.637
 11  8 19  0  7 30.0000000  0  8G17G30G10G12G05G04G09G02
 120091467.183 7  93577844.348 6  22852650.953                    22852660.031
 127826874.350 6  99605424.67244  24324652.297                    24324663.852
 110146685.476 7  85828708.80546  20960206.430                    20960215.672
 115001612.100 7  89611706.440 7  21884078.750                    21884087.652
 118712629.865 7  92503431.425 7  22590254.867                    22590265.430
 111536105.890 7  86911365.31346  21224598.094                    21224607.215
 121762498.627 7  94879960.64344  23170640.398                    23170651.484
 108545694.420 8  84581095.40346  20655519.164                    20655525.574
 11  8 19  0  8  0.0000000  0  8G17G30G10G12G05G04G09G02
 120138846.966 7  93614763.636 6  22861666.766                    22861675.852
 127721661.145 7  99523440.39344  24304630.797                    24304642.242
 110125778.847 8  85812417.95446  20956228.164                    20956237.344
 114928225.080 7  89554521.794 7  21870113.914                    21870122.359
 118614246.669 7  92426769.306 7  22571532.961                    22571543.523
 111607011.150 8  86966616.15046  21238090.914                    21238099.969
 121832903.686 7  94934821.66744  23184038.930                    23184049.375
 108535203.623 8  84572920.77446  20653522.648                    20653529.203
 11  8 19  0  8 30.0000000  0  8G17G30G10G12G05G04G09G02
 120186361.541 7  93651787.950 6  22870708.672                    22870718.105
 127616620.533 7  99441590.57143  24284642.898                    24284653.520
 110105477.343 8  85796598.62946  20952364.938                    20952374.219
 114855182.250 7  89497605.345 7  21856213.984                    21856222.629
 118516068.587 7  92350267.005 7  22552850.445                    22552860.914
 111678124.329 8  87022029.00746  21251623.508                    21251632.418
 121903590.652 7  94989902.36244  23197489.336                    23197500.406
 108525036.549 8  84564998.39146  20651588.125                    20651594.391
 11  8 19  0  9  0.0000000  0  8G17G30G10G12G05G04G09G02
 120234011.882 7  93688918.058 7  22879775.703                    22879785.684
 127511755.467 6  99359877.60143  24264687.617                    24264698.375
 110085782.212 8  85781251.79746  20948616.844                    20948626.246
 114782485.660 8  89440958.692 7  21842380.172                    21842388.926
 118418098.627 7  92273926.879 7  22534207.047                    22534217.582
 111749443.762 8  87077602.57246  21265195.078                    21265204.121
 121974556.358 7  95045200.25444  23210993.633                    23211004.527
 108515192.526 8  84557327.73346  20649714.633                    20649721.320
 11  8 19  0  9 30.0000000  0  8G17G30G10G12G05G04G09G02
 120281798.638 7  93726154.447 6  22888869.547                    22888879.129
 127407068.948 6  99278303.74143  24244765.805                    24244777.117
 110066695.012 8  85766378.68046  20944984.828                    20944993.805
 114710138.127 7  89384584.029 7  21828612.945                    21828622.082
 118320340.150 7  92197751.548 7  22515604.383                    22515615.066
 111820967.110 8  87133335.03746  21278805.359                    21278814.340
 122045797.374 7  95100712.67044  23224550.273                    23224561.961
 108505670.949 8  84549908.33346  20647902.867                    20647908.672
 11  8 19  0 10  0.0000000  0  8G17G30G10G12G05G04G09G02
 120329722.634 7  93763497.797 6  22897989.383                    22897998.910
 127302563.410 6  99196870.93543  24224879.336                    24224890.523
 110048217.020 8  85751980.27146  20941468.492                    20941477.504
 114638142.026 8  89328483.203 7  21814912.797                    21814921.289
 118222795.844 7  92121743.098 7  22497042.430                    22497052.180
 111892692.030 8  87189224.57446  21292453.984                    21292463.469
 122117310.177 7  95156436.87644  23238159.344                    23238170.289
 108496470.608 8  84542739.25846  20646152.102                    20646158.211
 11  8 19  0 10 30.0000000  0  8G17G30G10G12G05G04G09G02
 120377784.225 7  93800948.359 7  22907135.344                    22907144.645
 127198241.356 5  99115581.12042  24205026.906                    24205038.660
 110030348.759 8  85738056.98546  20938068.297                    20938077.242
 114566499.754 8  89272658.088 7  21801279.547                    21801288.227
 118125468.428 7  92045903.666 7  22478521.500                    22478532.477
 111964616.219 8  87245269.38946  21306140.969                    21306150.379
 122189091.135 7  95212370.01944  23251818.461                    23251829.664
 108487589.910 8  84535819.24146  20644462.109                    20644468.582
 11  8 19  0 11  0.0000000  0  8G17G30G10G12G05G04G09G02
 120425984.220 7  93838506.759 6  22916306.859                    22916316.918
 127094106.145 5  99034436.92442  24185210.828                    24185222.617
 110013091.950 8  85724610.15946  20934784.305                    20934793.656
 114495214.397 8  89217111.082 7  21787714.211                    21787722.953
 118028361.620 7  91970236.133 7  22460042.531                    22460052.973
 112036737.766 8  87301467.98645  21319865.617                    21319874.621
 122261137.404 7  95268509.90944  23265528.422                    23265539.566
 108479028.734 8  84529148.21546  20642833.320                    20642839.258
 11  8 19  0 11 30.0000000  0  9G17G30G10G12G05G04G09G25G02
 120474323.330 7  93876173.558 6  22925506.438                    22925515.813
 126990160.396 5  98953440.35552  24165429.492                    24165442.289
 109996447.410 8  85711640.42646  20931617.023                    20931626.195
 114424288.768 8  89161844.402 7  21774217.609                    21774226.180
 117931477.953 7  91894742.481 7  22441605.891                    22441616.230
 112109054.566 8  87357818.72946  21333626.586                    21333635.660
 122333445.341 7  95324853.66444  23279288.609                    23279299.453
 129576322.94416 100968605.44616  24657560.711                    24657574.863
 108470786.126 8  84522725.41046  20641264.625                    20641271.008
 11  8 19  0 12  0.0000000  0  9G17G30G10G12G05G04G09G25G02
 120522801.627 7  93913948.833 6  22934731.297                    22934740.875
 126886406.274 6  98872592.97152  24145686.992                    24145698.324
 109980415.581 8  85699148.12046  20928566.000                    20928575.461
 114353724.041 8  89106858.922 7  21760789.563                    21760798.449
 117834819.798 7  91819424.562 7  22423212.250                    22423222.832
 112181563.766 8  87414319.39746  21347424.828                    21347434.340
 122406011.100 7  95381398.36544  23293097.023                    23293108.055
 129473105.698 7 100888176.483 6  24637920.211                    24637933.523
 108462860.106 8  84516549.30246  20639756.180                    20639762.273
 11  8 19  0 12 30.0000000  0  9G17G30G10G12G05G04G09G25G02
 120571420.091 7  93951833.309 7  22943982.922                    22943992.750
 126782847.000 6  98791897.48643  24125980.625                    24125991.184
 109964998.054 8  85687134.50246  20925632.609                    20925641.547
 114283523.158 7  89052156.956 7  21747430.570                    21747439.227
 117738390.672 7  91744285.098 7  22404862.609                    22404872.836
 112254263.218 8  87470968.30045  21361258.914                    21361268.273
 122478831.726 7  95438141.65444  23306954.844                    23306966.102
 129369993.973 6 100807829.757 7  24618298.242                    24618311.234
 108455250.328 8  84510619.62446  20638307.992                    20638314.344
 11  8 19  0 13  0.0000000  0  9G17G30G10G12G05G04G09G25G02
 120620179.244 7  93989827.416 7  22953261.688                    22953271.445
 126679485.029 6  98711355.74543  24106311.031                    24106321.625
 109950195.549 8  85675600.10746  20922815.477                    20922824.602
 114213688.775 7  88997740.584 7  21734141.688                    21734150.406
 117642193.493 7  91669326.369 7  22386556.734                    22386567.238
 112327150.842 8  87527763.83945  21375128.805                    21375138.332
 122551903.721 7  95495080.78944  23320860.188                    23320870.957
 129266989.856 6 100727566.916 7  24598697.102                    24598710.590
 108447955.542 8  84504935.37846  20636919.719                    20636926.309
 11  8 19  0 13 30.0000000  0  9G17G30G10G12G05G04G09G25G02
 120669079.724 7  94027931.636 7  22962567.148                    22962576.828
 126576323.788 7  98630970.42444  24086680.469                    24086691.297
 109936009.540 7  85664546.10046  20920115.781                    20920125.133
 114144223.977 7  88943612.200 7  21720923.219                    21720931.516
 117546231.404 7  91594550.815 7  22368295.328                    22368306.000
 112400224.742 7  87584704.52846  21389034.703                    21389044.117
 122625223.959 6  95552213.38844  23334812.063                    23334823.219
 129164096.398 7 100647390.277 7  24579117.156                    24579130.324
 108440975.208 8  84499496.17246  20635591.219                    20635598.043
 11  8 19  0 14  0.0000000  0  9G17G30G10G12G05G04G09G25G02
 120718122.177 7  94066146.483 7  22971899.742                    22971909.219
 126473365.732 7  98550743.39643  24067087.875                    24067098.590
 109922440.705 8  85653972.99446  20917533.680                    20917542.770
 114075130.839 7  88889773.412 7  21707774.953                    21707783.391
 117450507.532 7  91519960.895 7  22350079.898                    22350090.465
 112473482.668 8  87641788.60445  21402974.977                    21402984.426
 122698788.805 7  95609536.55944  23348811.031                    23348822.016
 129061315.812 6 100567301.619 7  24559557.930                    24559571.598
 108434308.063 8  84494301.00446  20634323.180                    20634329.152
 11  8 19  0 14 30.0000000  0  9G17G30G10G12G05G04G09G25G02
 120767307.304 7  94104472.503 7  22981259.148                    22981269.234
 126370613.505 7  98470676.76144  24047535.250                    24047545.957
 109909489.882 8  85643881.46646  20915069.320                    20915078.313
 114006411.887 7  88836226.193 7  21694697.969                    21694706.746
 117355024.458 7  91445558.599 7  22331910.461                    22331920.133
 112546922.436 8  87699014.39445  21416949.766                    21416959.508
 122772594.822 7  95667047.66144  23362856.219                    23362867.871
 128958650.491 6 100487302.746 6  24540021.758                    24540034.711
 108427952.905 8  84489348.95146  20633113.508                    20633119.680
 11  8 19  0 15  0.0000000  0  9G17G30G10G12G05G04G09G25G02
 120816635.789 7  94142910.245 6  22990646.008                    22990655.859
 126268069.971 7  98390772.72444  24028021.828                    24028031.973
 109897157.635 8  85634271.93646  20912722.555                    20912731.516
 113938069.524 7  88782972.420 7  21681693.148                    21681701.469
 117259785.129 7  91371346.233 7  22313786.516                    22313796.660
 112620541.655 8  87756379.99145  21430959.648                    21430968.773
 122846638.728 7  95724744.13244  23376946.305                    23376957.918
 128856102.956 6 100407395.660 6  24520507.344                    24520520.383
 108421908.719 8  84484639.20446  20631963.344                    20631969.504
 11  8 19  0 15 30.0000000  0  9G17G30G10G12G05G04G09G25G02
 120866108.218 7  94181460.131 7  23000060.250                    23000070.340
 126165738.138 6  98311033.66044  24008548.609                    24008559.398
 109885445.196 8  85625145.37746  20910493.883                    20910503.074
 113870106.337 7  88730014.129 7  21668760.188                    21668768.527
 117164792.900 7  91297326.414 7  22295710.211                    22295719.816
 112694338.433 8  87813883.95645  21445002.703                    21445011.762
 122920917.172 7  95782623.37844  23391081.148                    23391092.469
 128753675.782 6 100327582.381 6  24501014.875                    24501029.023
 108416174.918 8  84480171.32846  20630871.938                    20630878.344
 11  8 19  0 16  0.0000000  0  9G17G30G10G12G05G04G09G25G02
 120915725.335 7  94220122.757 7  23009502.539                    23009511.836
 126063620.998 6  98231461.89843  23989115.797                    23989126.363
 109874353.739 8  85616502.69846  20908383.211                    20908392.441
 113802525.229 7  88677353.544 7  21655899.578                    21655908.102
 117070050.809 7  91223501.499 7  22277681.109                    22277691.590
 112768310.846 8  87871524.78045  21459078.953                    21459088.129
 122995426.801 7  95840682.74844  23405259.578                    23405270.926
 128651371.626 5 100247864.937 5  24481547.484                    24481561.301
 108410750.485 8  84475944.50146  20629840.109                    20629846.645
 11  8 19  0 16 30.0000000  0  9G17G30G10G12G05G04G09G25G02
 120965487.668 7  94258898.519 7  23018971.617                    23018981.410
 125961721.016 6  98152059.34843  23969724.461                    23969735.957
 109863883.507 8  85608344.09946  20906390.477                    20906400.086
 113735328.114 7  88624992.194 7  21643112.117                    21643120.793
 116975561.263 7  91149873.375 7  22259700.211                    22259710.461
 112842456.452 8  87929300.55145  21473188.234                    21473197.625
 123070164.093 7  95898919.52144  23419481.141                    23419493.594
 128549192.862 6 100168245.193 5  24462103.531                    24462116.770
 108405634.025 8  84471957.65946  20628866.148                    20628872.809
 11  8 19  0 17  0.0000000  0  9G17G30G10G12G05G04G09G25G02
 121015395.899 7  94297787.979 6  23028468.875                    23028479.133
 125860041.230 6  98072828.40643  23950375.516                    23950386.590
 109854035.277 8  85600670.16846  20904517.148                    20904526.023
 113668517.850 8  88572932.285 7  21630398.781                    21630407.703
 116881327.483 7  91076444.547 7  22241768.086                    22241778.121
 112916773.098 8  87987209.60545  21487330.633                    21487339.402
 123145125.598 7  95957331.01244  23433747.023                    23433758.207
 128447142.037 6 100088725.031 5  24442684.492                    24442696.980
 108400824.602 8  84468210.07146  20627950.805                    20627957.363
 11  8 19  0 17 30.0000000  0  9G17G30G10G12G05G04G09G25G02
 121065450.400 7  94336791.428 6  23037993.906                    23038004.117
 125758584.230 6  97993771.08443  23931069.117                    23931079.820
 109844809.911 7  85593481.58646  20902761.156                    20902770.688
 113602096.795 7  88521175.637 7  21617759.164                    21617767.656
 116787352.359 7  91003217.274 7  22223885.273                    22223895.082
 112991258.863 8  88045250.44845  21501504.852                    21501514.109
 123220307.905 6  96015914.55844  23448053.281                    23448064.398
 128345221.639 6 100009306.540 6  24423290.164                    24423302.457
 108396321.259 8  84464700.98346  20627093.883                    20627100.320
 11  8 19  0 18  0.0000000  0  9G17G30G10G12G05G04G09G25G02
 121115651.976 7  94375909.497 7  23047547.125                    23047557.457
 125657352.894 6  97914889.53743  23911804.406                    23911815.961
 109836208.229 7  85586778.99346  20901124.219                    20901133.305
 113536066.990 7  88469723.867 7  21605194.508                    21605202.977
 116693638.991 7  90930193.967 7  22206052.086                    22206062.438
 113065911.142 8  88103421.04045  21515710.836                    21515719.895
 123295707.500 6  96074667.43044  23462401.563                    23462412.527
 128243434.065 7  99929991.542 6  24403920.820                    24403933.188
 108392122.969 8  84461429.60546  20626295.281                    20626301.430
 11  8 19  0 18 30.0000000  0  9G17G30G10G12G05G04G09G25G02
 121166000.988 7  94415142.456 6  23057128.438                    23057138.289
 125556349.955 6  97836185.95843  23892584.875                    23892595.996
 109828230.702 7  85580562.75446  20899606.313                    20899615.332
 113470431.182 7  88418579.115 7  21592704.195                    21592712.816
 116600189.975 7  90857376.637 7  22188269.672                    22188279.414
 113140728.107 8  88161719.95545  21529947.797                    21529957.250
 123371320.922 7  96133586.90344  23476790.305                    23476801.699
 128141781.822 7  99850782.015 6  24384576.672                    24384589.363
 108388228.123 8  84458394.68046  20625553.859                    20625560.406
 11  8 19  0 19  0.0000000  0  9G17G30G10G12G05G04G09G25G02
 121216498.263 7  94454490.922 6  23066737.648                    23066748.070
 125455578.372 7  97757662.66743  23873408.828                    23873419.477
 109820877.685 7  85574833.14046  20898206.977                    20898215.723
 113405192.127 7  88367743.519 7  21580289.641                    21580298.547
 116507008.503 7  90784767.788 7  22170537.352                    22170547.168
 113215707.629 8  88220145.54645  21544215.734                    21544224.969
 123447144.979 7  96192670.50144  23491219.594                    23491230.949
 128040267.621 7  99771680.024 6  24365259.367                    24365272.516
 108384636.175 7  84455595.77946  20624870.586                    20624876.926
 11  8 19  0 19 30.0000000  0  9G17G30G10G12G05G04G09G25G02
 121267144.068 7  94493955.109 6  23076375.023                    23076385.172
 125355040.713 7  97679321.59843  23854277.109                    23854287.238
 109814149.739 7  85569590.60746  20896926.344                    20896935.715
 113340351.648 7  88317218.505 7  21567950.914                    21567959.105
 116414097.367 7  90712369.592 7  22152856.883                    22152866.957
 113290847.488 8  88278696.06045  21558514.281                    21558523.570
 123523176.111 7  96251915.42344  23505687.484                    23505699.781
 127938893.748 7  99692687.409 7  24345968.875                    24345981.309
 108381345.497 7  84453031.62546  20624244.266                    20624250.750
 11  8 19  0 20  0.0000000  0  9G17G30G10G12G05G04G09G25G02
 121317939.379 7  94533535.779 6  23086041.500                    23086051.223
 125254740.336 7  97601165.44643  23835190.375                    23835200.953
 109808047.846 8  85564835.90346  20895765.500                    20895774.535
 113275912.907 7  88267006.528 7  21555688.211                    21555696.855
 116321459.918 7  90640184.659 7  22135228.367                    22135238.082
 113366145.969 8  88337370.18945  21572843.195                    21572852.563
 123599411.378 7  96311319.47644  23520194.570                    23520206.195
 127837663.219 7  99613806.485 7  24326705.461                    24326718.453
 108378355.981 8  84450702.15046  20623675.406                    20623681.781
 11  8 19  0 20 30.0000000  0  9G17G30G10G12G05G04G09G25G02
 121368884.583 7  94573233.292 6  23095736.164                    23095746.125
 125154679.440 7  97523195.90543  23816150.203                    23816160.121
 109802572.251 7  85560569.23446  20894723.406                    20894732.426
 113211877.452 7  88217108.791 7  21543502.859                    21543511.449
 116229098.542 7  90568214.856 7  22117652.734                    22117662.738
 113441600.464 8  88396165.87945  21587202.250                    21587211.172
 123675846.773 7  96370879.41644  23534740.305                    23534751.305
 127736578.086 6  99535038.869 7  24307468.898                    24307482.168
 108375665.602 7  84448605.75846  20623163.461                    20623169.742
 11  8 19  0 21  0.0000000  0  9G17G30G10G12G05G04G09G25G02
 121419980.389 7  94613048.171 6  23105459.391                    23105469.703
 125054861.175 6  97445415.44043  23797154.922                    23797165.160
 109797723.836 8  85556791.26346  20893800.719                    20893809.996
 113148247.926 8  88167527.356 7  21531394.969                    21531403.250
 116137016.237 7  90496462.490 7  22100130.172                    22100140.172
 113517209.404 8  88455081.90745  21601589.727                    21601599.242
 123752479.153 7  96430592.90844  23549322.383                    23549333.484
 127635641.124 6  99456386.713 6  24288260.984                    24288274.020
 108373273.563 8  84446741.83846  20622708.039                    20622714.379
 11  8 19  0 21 30.0000000  0  9G17G30G10G12G05G04G09G25G02
 121471227.423 7  94652980.897 6  23115211.445                    23115221.250
 124955288.251 6  97367826.22743  23778206.625                    23778216.961
 109793502.822 8  85553502.18946  20892997.648                    20893006.578
 113085027.104 8  88118264.402 7  21519364.227                    21519372.617
 116045216.202 7  90424930.093 7  22082660.617                    22082670.906
 113592970.430 8  88514116.45245  21616006.422                    21616015.824
 123829304.932 7  96490457.07944  23563941.648                    23563953.926
 127534854.818 6  99377851.972 6  24269081.961                    24269095.000
 108371178.677 8  84445109.47446  20622309.633                    20622315.762
 11  8 19  0 22  0.0000000  0  9G17G30G10G12G05G04G09G25G02
 121522626.345 7  94693031.992 6  23124992.023                    23125002.109
 124855963.783 6  97290430.57443  23759306.227                    23759317.055
 109789909.909 7  85550702.54146  20892313.594                    20892322.664
 113022217.222 8  88069321.655 7  21507411.992                    21507420.355
 115953701.199 7  90353619.786 7  22065245.773                    22065255.891
 113668881.513 8  88573267.91645  21630452.016                    21630461.203
 123906321.085 7  96550469.57344  23578598.141                    23578609.441
 127434222.008 6  99299436.852 6  24249931.797                    24249945.336
 108369380.223 8  84443708.09746  20621967.328                    20621973.715
 11  8 19  0 22 30.0000000  0  9G17G30G10G12G05G04G09G25G02
 121574177.712 7  94733201.874 6  23134802.289                    23134812.035
 124756890.492 6  97213230.70944  23740452.742                    23740463.934
 109786945.647 8  85548392.75546  20891749.961                    20891758.707
 112959821.027 8  88020701.260 7  21495538.227                    21495547.047
 115862474.181 7  90282533.881 7  22047885.961                    22047896.004
 113744940.958 8  88632534.99745  21644925.625                    21644935.148
 123983523.984 7  96610627.61844  23593288.938                    23593300.652
 127333745.184 6  99221143.239 6  24230812.078                    24230825.105
 108367876.955 8  84442536.72846  20621681.188                    20621687.641
 11  8 19  0 23  0.0000000  0  9G17G30G10G12G05G04G09G25G02
 121625882.170 7  94773491.018 6  23144641.078                    23144650.816
 124658071.342 7  97136228.84444  23721648.297                    23721659.289
 109784609.944 8  85546572.75546  20891305.883                    20891314.230
 112897840.552 8  87972404.817 7  21483743.578                    21483751.809
 115771538.147 7  90211674.716 7  22030581.320                    22030591.152
 113821146.397 8  88691915.82845  21659427.242                    21659436.723
 124060910.226 7  96670928.55844  23608015.438                    23608026.605
 127233427.004 6  99142973.227 6  24211722.031                    24211734.465
 108366667.871 8  84441594.59946  20621450.891                    20621457.152
 11  8 19  0 23 30.0000000  0  9G17G30G10G12G05G04G09G25G02
 121677740.049 7  94813899.701 6  23154509.609                    23154519.301
 124559509.027 7  97059427.10543  23702892.211                    23702903.707
 109782903.655 8  85545243.20646  20890980.430                    20890989.770
 112836278.266 8  87924434.218 7  21472029.180                    21472037.328
 115680896.021 7  90141044.562 7  22013332.758                    22013342.445
 113897495.943 8  88751408.95545  21673956.219                    21673965.523
 124138476.347 7  96731369.58844  23622776.172                    23622787.324
 127133269.928 6  99064928.749 6  24192662.109                    24192675.672
 108365751.921 8  84440880.88346  20621276.836                    20621283.266
 11  8 19  0 24  0.0000000  0  9G17G30G10G12G05G04G09G25G02
 121729751.999 7  94854428.422 6  23164407.188                    23164416.977
 124461206.232 6  96982827.57943  23684186.000                    23684197.129
 109781826.523 8  85544403.89946  20890775.602                    20890784.695
 112775136.311 8  87876791.156 7  21460393.977                    21460402.344
 115590550.088 7  90070645.201 7  21996140.930                    21996150.195
 113973987.322 8  88811012.60445  21688512.305                    21688521.148
 124216218.907 7  96791948.14744  23637569.391                    23637581.617
 127033276.439 7  98987011.731 6  24173635.063                    24173647.098
 108365127.382 8  84440394.24846  20621157.898                    20621164.301
 11  8 19  0 24 30.0000000  0  9G17G30G10G12G05G04G09G25G02
 121781918.634 7  94895077.689 6  23174334.344                    23174344.375
 124363166.065 6  96906432.71544  23665529.953                    23665539.824
 109781379.412 8  85544055.52246  20890690.430                    20890699.156
 112714417.408 8  87829477.740 7  21448839.164                    21448847.805
 115500503.958 7  90000479.454 7  21979005.328                    21979014.906
 114050618.740 8  88870725.36545  21703094.539                    21703104.094
 124294134.750 7  96852661.72444  23652396.992                    23652407.918
 126933449.315 6  98909224.388 6  24154638.586                    24154651.434
 108364793.776 8  84440134.30746  20621094.625                    20621101.063
 11  8 19  0 25  0.0000000  0  9G17G30G10G12G05G04G09G25G02
 121834240.367 7  94935847.831 6  23184290.656                    23184300.688
 124265390.991 6  96830244.44443  23646923.508                    23646934.469
 109781562.203 8  85544197.97946  20890724.813                    20890734.320
 112654123.281 8  87782495.322 7  21437365.813                    21437373.988
 115410759.925 8  89930549.121 7  21961927.570                    21961937.277
 114127388.072 8  88930545.58145  21717703.281                    21717712.680
 124372220.224 7  96913507.49844  23667256.164                    23667267.293
 126833790.925 7  98831568.522 6  24135674.109                    24135686.578
 108364749.379 8  84440099.73646  20621085.945                    20621092.535
 11  8 19  0 25 30.0000000  0  9G17G30G10G12G05G04G09G25G02
 121886718.062 7  94976739.525 6  23194276.977                    23194286.859
 124167883.973 6  96754265.03843  23628368.117                    23628378.957
 109782375.060 8  85544831.39246  20890880.047                    20890889.070
 112594256.718 8  87735846.079 7  21425973.422                    21425981.660
 115321321.339 7  89860856.784 7  21944908.008                    21944917.637
 114204293.275 8  88990471.68745  21732337.766                    21732347.086
 124450471.838 7  96974482.72244  23682147.164                    23682158.059
 126734303.946 7  98754046.217 6  24116742.570                    24116755.184
 108364993.229 8  84440289.76346  20621132.625                    20621139.000
 11  8 19  0 26  0.0000000  0  9G17G30G10G12G05G04G09G25G02
 121939352.161 7  95017753.090 6  23204293.094                    23204302.871
 124070648.064 6  96678496.90043  23609864.625                    23609875.250
 109783818.567 8  85545956.22846  20891154.664                    20891163.645
 112534819.911 8  87689531.703 7  21414663.242                    21414671.555
 115232191.043 7  89791404.678 7  21927947.063                    21927956.551
 114281332.435 8  89050502.16145  21746997.945                    21747007.457
 124528886.287 6  97035584.85744  23697068.070                    23697080.090
 126634991.091 7  98676659.629 6  24097843.523                    24097856.742
 108365524.400 8  84440703.67146  20621233.328                    20621239.793
 11  8 19  0 26 30.0000000  0  9G17G30G10G12G05G04G09G25G02
 121992143.511 7  95058889.158 6  23214338.250                    23214348.883
 123973686.222 6  96602942.32344  23591413.500                    23591424.496
 109785892.843 8  85547572.55746  20891549.328                    20891558.238
 112475815.418 8  87643554.203 7  21403434.930                    21403443.504
 115143371.997 7  89722195.100 7  21911045.078                    21911054.293
 114358503.741 8  89110635.62045  21761682.898                    21761692.277
 124607460.378 7  97096811.35444  23712021.078                    23712032.238
 126535855.093 6  98599410.863 7  24078978.609                    24078991.688
 108366342.124 8  84441340.87446  20621389.266                    20621395.109
 11  8 19  0 27  0.0000000  0  9G17G30G10G12G05G04G09G25G02
 122045092.381 7  95100147.963 6  23224414.250                    23224424.691
 123877001.028 6  96527603.31043  23573015.297                    23573025.945
 109788597.768 7  85549680.30446  20892064.438                    20892072.922
 112417245.812 8  87597915.574 7  21392289.328                    21392297.703
 115054866.842 8  89653230.123 7  21894203.250                    21894212.996
 114435804.980 8  89170870.32745  21776393.180                    21776402.625
 124686190.728 7  97158159.60444  23727002.555                    23727014.246
 126436898.358 6  98522301.819 6  24060147.617                    24060161.113
 108367444.751 7  84442200.07346  20621599.008                    20621605.246
 11  8 19  0 27 30.0000000  0  9G17G30G10G12G05G04G09G25G02
 122098199.352 7  95141529.972 6  23234520.602                    23234530.977
 123780595.315 7  96452482.08244  23554670.063                    23554680.445
 109791933.843 8  85552279.85346  20892698.609                    20892707.711
 112359112.776 8  87552617.126 7  21381226.781                    21381235.660
 114966678.441 7  89584511.961 7  21877421.398                    21877430.879
 114513234.324 8  89231204.84145  21791127.281                    21791136.645
 124765073.783 7  97219626.85944  23742013.305                    23742025.395
 126338123.572 7  98445334.540 6  24041351.367                    24041364.699
 108368831.108 8  84443280.35846  20621862.758                    20621868.902
 11  8 19  0 28  0.0000000  0  9G17G30G10G12G05G04G09G25G02
 122151465.120 7  95183035.717 6  23244657.234                    23244666.309
 123684472.241 7  96377581.08944  23536378.047                    23536388.000
 109795901.303 8  85555371.38646  20893453.633                    20893462.645
 112301418.854 8  87507660.844 7  21370248.133                    21370256.852
 114878809.724 7  89516042.905 7  21860700.141                    21860709.969
 114590789.964 7  89291637.77245  21805886.141                    21805895.453
 124844106.338 7  97281210.56644  23757053.211                    23757064.625
 126239533.576 7  98368511.240 6  24022590.070                    24022603.172
 108370500.507 8  84444581.20246  20622180.477                    20622186.758
 11  8 19  0 28 30.0000000  0  9G17G30G10G12G05G04G09G25G02
 122204890.101 7  95224665.505 6  23254823.234                    23254832.965
 123588634.259 7  96302902.23144  23518140.430                    23518150.406
 109800499.930 7  85558954.75646  20894328.891                    20894337.934
 112244166.247 8  87463048.442 7  21359353.406                    21359362.035
 114791263.235 7  89447824.931 7  21844041.352                    21844050.234
 114668469.611 7  89352167.33845  21820667.625                    21820676.879
 124923284.678 7  97342907.91544  23772120.688                    23772132.449
 126141130.694 7  98291833.774 6  24003864.719                    24003877.672
 108372451.334 8  84446101.33446  20622551.758                    20622557.801
 11  8 19  0 29  0.0000000  0  9G17G30G10G12G05G04G09G25G02
 122258474.805 7  95266419.738 6  23265020.148                    23265030.422
 123493084.117 7  96228447.69144  23499957.766                    23499968.094
 109805729.593 7  85563029.83746  20895324.094                    20895333.055
 112187356.771 7  87418781.337 7  21348542.727                    21348550.957
 114704042.359 7  89379860.682 7  21827443.008                    21827452.535
 114746271.384 8  89412792.06745  21835473.211                    21835482.395
 125002605.729 7  97404716.43244  23787214.805                    23787226.438
 126042917.478 7  98215304.099 6  23985175.406                    23985188.348
 108374682.440 8  84447839.87646  20622976.273                    20622982.203
 11  8 19  0 29 30.0000000  0  9G17G30G10G12G05G04G09G25G02
 122312219.833 7  95308298.926 6  23275247.586                    23275257.469
 123397825.093 7  96154219.98544  23481830.555                    23481840.730
 109811590.616 7  85567596.89346  20896439.297                    20896448.035
 112130993.567 7  87374861.974 7  21337817.453                    21337825.320
 114617149.453 7  89312151.992 7  21810907.906                    21810917.379
 114824193.490 7  89473510.55545  21850301.063                    21850310.477
 125082066.266 6  97466633.66444  23802335.531                    23802346.695
 125944896.878 7  98138924.537 6  23966522.180                    23966535.703
 108377192.872 8  84449796.06046  20623453.992                    20623460.184
 11  8 19  0 30  0.0000000  0  9G17G30G10G12G05G04G09G25G02
 122366125.954 7  95350303.665 6  23285505.422                    23285515.359
 123302859.763 7  96080221.13343  23463759.016                    23463769.465
 109818082.741 7  85572655.71346  20897674.781                    20897684.023
 112075078.183 7  87331291.569 7  21327176.781                    21327185.289
 114530587.246 8  89244700.993 7  21794435.703                    21794445.195
 114902234.033 7  89534321.35145  21865151.781                    21865161.113
 125161662.534 6  97528656.63344  23817481.859                    23817494.656
 125847071.349 6  98062696.957 6  23947906.664                    23947919.719
 108379981.429 7  84451968.97246  20623984.688                    20623990.898
 11  8 19  0 30 30.0000000  0  9G17G30G10G12G05G04G09G25G02
 122420193.261 7  95392433.983 6  23295794.352                    23295804.219
 123208190.888 7  96006453.27644  23445743.914                    23445754.465
 109825205.861 8  85578206.20846  20899029.977                    20899039.293
 112019613.031 8  87288071.986 7  21316622.023                    21316630.594
 114444358.605 7  89177509.910 7  21778026.805                    21778036.285
 114980390.969 7  89595222.83745  21880024.406                    21880033.848
 125241391.452 6  97590782.94344  23832654.664                    23832666.234
 125749443.477 7  97986623.403 6  23929328.430                    23929341.734
 108383046.684 8  84454357.48546  20624567.977                    20624574.332
 11  8 19  0 31  0.0000000  0  9G17G30G10G12G05G04G09G25G02
 122474422.546 7  95434690.535 6  23306113.594                    23306123.965
 123113821.567 6  95932918.82743  23427786.047                    23427796.355
 109832960.290 8  85584248.63346  20900506.039                    20900514.742
 111964600.565 7  87245205.157 7  21306153.602                    21306161.934
 114358466.925 7  89110581.389 7  21761682.133                    21761691.719
 115058662.663 8  89656213.75345  21894919.227                    21894928.055
 125321249.597 6  97653009.97044  23847850.648                    23847862.898
 125652016.037 6  97910706.065 6  23910788.688                    23910801.719
 108386387.861 8  84456961.00446  20625203.539                    20625209.906
 11  8 19  0 31 30.0000000  0  9G17G30G10G12G05G04G09G25G02
 122528814.301 7  95477073.670 6  23316464.188                    23316474.477
 123019754.400 6  95859619.82143  23409886.023                    23409896.051
 109841345.709 8  85590782.73746  20902101.492                    20902110.566
 111910042.875 8  87202692.693 7  21295772.000                    21295779.770
 114272914.887 8  89043917.530 7  21745402.133                    21745411.695
 115137046.862 7  89717292.33345  21909835.070                    21909844.594
 125401233.480 6  97715334.97444  23863071.719                    23863083.543
 125554791.644 7  97834946.932 6  23892287.477                    23892300.219
 108390003.438 8  84459778.34246  20625891.492                    20625898.227
 11  8 19  0 32  0.0000000  0  9G17G30G10G12G05G04G09G25G02
 122583369.144 7  95519583.878 6  23326845.680                    23326855.934
 122925992.300 6  95786558.51543  23392042.797                    23392053.910
 109850361.827 8  85597808.29246  20903817.063                    20903826.328
 111855942.109 7  87160536.274 7  21285476.852                    21285485.305
 114187704.682 8  88977520.020 7  21729187.070                    21729196.301
 115215541.998 7  89778457.36945  21924772.266                    21924781.527
 125481339.767 7  97777755.34844  23878315.688                    23878326.809
 125457772.938 7  97759348.054 6  23873825.469                    23873838.516
 108393892.501 8  84462808.79046  20626631.570                    20626637.672
 11  8 19  0 32 30.0000000  0  9G17G30G10G12G05G04G09G25G02
 122638087.665 7  95562221.595 6  23337258.125                    23337268.578
 122832538.183 6  95713737.18144  23374258.992                    23374269.566
 109860008.759 8  85605325.39046  20905653.188                    20905661.375
 111802300.309 8  87118737.496 7  21275268.773                    21275276.949
 114102839.503 7  88911391.372 7  21713037.734                    21713047.188
 115294146.016 7  89839707.22445  21939730.109                    21939739.641
 125561565.162 6  97840268.54043  23893581.258                    23893593.668
 125360962.622 7  97683911.563 6  23855403.117                    23855415.555
 108398053.962 7  84466051.49046  20627423.680                    20627429.926
 11  8 19  0 33  0.0000000  0  9G17G30G10G12G05G04G09G25G02
 122692970.341 7  95604987.271 6  23347702.016                    23347712.598
 122739394.691 6  95641157.88944  23356534.680                    23356545.012
 109870285.845 8  85613333.52646  20907608.781                    20907617.379
 111749119.752 8  87077298.127 7  21265149.086                    21265157.238
 114018321.719 8  88845533.416 7  21696954.422                    21696963.758
 115372857.195 8  89901040.59745  21954707.836                    21954717.625
 125641906.150 7  97902871.79544  23908870.320                    23908881.738
 125264363.153 7  97608639.388 6  23837020.375                    23837033.813
 108402486.438 8  84469505.37046  20628266.930                    20628273.160
 11  8 19  0 33 30.0000000  0  9G17G30G10G12G05G04G09G25G02
 122748017.474 7  95647881.068 6  23358177.781                    23358187.180
 122646564.814 7  95568822.99744  23338870.063                    23338880.254
 109881193.400 8  85621832.92846  20909683.977                    20909692.852
 111696402.691 8  87036219.930 7  21255117.266                    21255125.781
 113934154.430 7  88779948.582 7  21680938.055                    21680947.301
 115451673.525 7  89962455.89345  21969706.734                    21969715.953
 125722359.575 7  97965562.66644  23924180.125                    23924191.781
 125167977.352 7  97533533.689 6  23818678.734                    23818691.328
 108407188.699 8  84473169.47146  20629161.633                    20629168.602
 11  8 19  0 34  0.0000000  0  9G17G30G10G12G05G04G09G25G02
 122803229.843 7  95690903.649 6  23368683.555                    23368694.516
 122554051.326 7  95496734.61244  23321264.938                    23321275.816
 109892731.045 8  85630823.31746  20911879.625                    20911888.578
 111644151.046 8  86995504.392 7  21245173.945                    21245182.125
 113850340.425 8  88714639.018 7  21664988.391                    21664997.949
 115530593.364 8  90023951.84045  21984724.750                    21984733.898
 125802921.988 6  98028338.43244  23939510.156                    23939522.316
 125071807.804 7  97458596.479 6  23800378.656                    23800390.195
 108412159.571 8  84477042.88346  20630107.477                    20630114.266
 11  8 19  0 34 30.0000000  0  9G17G30G10G12G05G04G09G25G02
 122858607.759 7  95734055.213 6  23379221.742                    23379232.285
 122461857.152 7  95424895.02144  23303720.852                    23303731.309
 109904898.480 8  85640304.45346  20914195.094                    20914204.051
 111592367.410 8  86955153.538 7  21235320.055                    21235328.059
 113766882.550 8  88649606.960 7  21649106.859                    21649116.535
 115609614.720 7  90085526.92145  21999762.063                    21999771.605
 125883590.286 7  98091196.69444  23954861.203                    23954873.621
 124975857.344 7  97383829.998 6  23782119.961                    23782132.086
 108417398.165 8  84481124.89846  20631104.680                    20631110.980
 11  8 19  0 35  0.0000000  0  9G17G30G10G12G05G04G09G25G02
 122914151.753 7  95777336.205 6  23389791.945                    23389801.902
 122369985.044 7  95353306.37244  23286238.813                    23286248.711
 109917695.116 8  85650275.87146  20916629.836                    20916639.340
 111541053.533 8  86915168.727 7  21225555.344                    21225563.238
 113683783.199 7  88584854.271 7  21633293.602                    21633303.125
 115688735.955 7  90147179.81345  22014817.984                    22014827.582
 125964360.891 7  98154134.70944  23970232.109                    23970243.059
 124880128.439 7  97309236.111 6  23763902.945                    23763914.809
 108422903.124 8  84485414.47446  20632152.055                    20632158.547
 11  8 19  0 35 30.0000000  0  9G17G30G10G12G05G04G09G25G02
 122969862.372 7  95820747.014 6  23400393.336                    23400403.047
 122278437.703 7  95281970.81344  23268817.219                    23268827.988
 109931120.660 8  85660737.34246  20919185.133                    20919194.047
 111490211.462 8  86875551.572 7  21215880.516                    21215888.672
 113601045.205 8  88520383.162 7  21617548.953                    21617558.340
 115767955.033 7  90208908.95545  22029892.992                    22029902.430
 126045230.680 6  98217150.01943  23985620.852                    23985632.813
 124784623.735 7  97234816.915 6  23745728.820                    23745741.008
 108428673.180 8  84489910.63146  20633249.734                    20633256.555
 11  8 19  0 36  0.0000000  0  9G17G30G10G12G05G04G09G25G02
 123025740.113 7  95864288.046 6  23411027.281                    23411036.418
 122187218.096 7  95210890.63044  23251459.188                    23251469.422
 109945175.180 8  85671688.92746  20921859.625                    20921868.512
 111439843.455 8  86836303.809 7  21206295.688                    21206303.770
 113518671.306 7  88456195.757 7  21601873.766                    21601883.234
 115847270.211 7  90270712.96545  22044986.281                    22044995.691
 126126196.069 7  98280239.82043  24001027.781                    24001039.316
 124689345.981 7  97160574.552 6  23727597.367                    23727610.840
 108434707.051 8  84494612.34946  20634398.633                    20634404.809
 11  8 19  0 36 30.0000000  0  9G17G30G10G12G05G04G09G25G02
 123081785.498 7  95907959.694 6  23421692.203                    23421701.707
 122096328.827 6  95140067.84144  23234163.008                    23234173.605
 109959857.876 8  85683130.00246  20924653.727                    20924662.082
 111389951.194 8  86797426.760 7  21196801.383                    21196809.848
 113436664.017 7  88392294.041 7  21586268.375                    21586277.672
 115926679.631 7  90332590.41545  22060097.352                    22060106.570
 126207253.754 6  98343401.50143  24016451.906                    24016464.340
 124594297.716 7  97086511.020 6  23709511.250                    23709523.414
 108441003.529 8  84499518.69546  20635596.633                    20635603.176
 11  8 19  0 37  0.0000000  0  9G17G30G10G12G05G04G09G25G02
 123137998.936 7  95951762.336 6  23432388.820                    23432399.012
 122005772.888 7  95069504.79444  23216931.195                    23216940.895
 109975168.530 8  85695060.40046  20927566.914                    20927575.348
 111340537.157 8  86758922.344 7  21187398.055                    21187406.660
 113355026.447 7  88328680.391 7  21570733.320                    21570742.414
 116006181.574 7  90394539.96545  22075226.063                    22075235.328
 126288400.708 6  98406632.79643  24031894.539                    24031906.328
 124499481.758 7  97012628.498 7  23691468.055                    23691480.512
 108447561.642 8  84504628.91346  20636844.250                    20636851.129
 11  8 19  0 37 30.0000000  0  9G17G30G10G12G05G04G09G25G02
 123194381.049 7  95995696.415 6  23443118.055                    23443128.254
 121915552.952 6  94999203.58844  23199762.609                    23199773.402
 109991106.274 8  85707479.43846  20930599.758                    20930608.602
 111291603.001 8  86720791.851 7  21178086.141                    21178094.477
 113273760.987 8  88265356.705 7  21555269.000                    21555278.543
 116085774.066 7  90456560.06945  22090372.047                    22090381.141
 126369633.248 6  98469930.73943  24047352.766                    24047364.980
 124404900.583 7  96938928.898 6  23673469.742                    23673482.055
 108454379.874 8  84509941.82146  20638141.859                    20638148.516
 11  8 19  0 38  0.0000000  0  9G17G30G10G12G05G04G09G25G02
 123250932.075 7  96039762.088 6  23453879.117                    23453889.605
 121825672.012 7  94929166.53443  23182658.969                    23182669.016
 110007670.497 8  85720386.64846  20933751.945                    20933760.535
 111243151.045 8  86683037.109 7  21168866.102                    21168874.172
 113192870.484 7  88202325.196 7  21539875.891                    21539885.453
 116165455.740 7  90518649.66745  22105535.008                    22105544.781
 126450948.116 7  98533292.84543  24062826.398                    24062838.180
 124310557.107 7  96865414.525 7  23655516.852                    23655529.242
 108461457.450 8  84515456.80546  20639488.648                    20639495.465
 11  8 19  0 38 30.0000000  0  9G17G30G10G12G05G04G09G25G02
 123307652.615 7  96083959.855 6  23464673.039                    23464683.246
 121736132.914 6  94859395.83943  23165620.023                    23165630.063
 110024861.120 8  85733781.95646  20937023.203                    20937032.309
 111195183.616 8  86645659.913 7  21159738.203                    21159746.805
 113112357.702 7  88139588.019 7  21524554.656                    21524564.148
 116245224.708 7  90580807.28645  22120714.656                    22120724.074
 126532342.307 6  98596716.76543  24078315.531                    24078327.336
 124216454.053 7  96792087.501 6  23637610.039                    23637622.285
 108468793.018 8  84521172.83046  20640884.648                    20640891.305
 11  8 19  0 39  0.0000000  0  9G17G30G10G12G05G04G09G25G02
 123364542.912 7  96128289.888 6  23475498.875                    23475508.949
 121646938.237 7  94789893.54644  23148646.867                    23148656.707
 110042677.522 8  85747664.88846  20940413.328                    20940422.199
 111147702.379 8  86608661.579 7  21150702.945                    21150711.184
 113032225.404 7  88077147.315 7  21509305.883                    21509315.289
 116325079.089 7  90643031.47145  22135910.125                    22135919.613
 126613812.457 6  98660199.82243  24093818.688                    24093830.938
 124122593.956 7  96718949.784 7  23619748.891                    23619761.305
 108476385.225 8  84527088.82946  20642329.172                    20642335.484
 11  8 19  0 39 30.0000000  0  9G17G30G10G12G05G04G09G25G02
 123421603.820 7  96172752.883 6  23486356.984                    23486367.402
 121558090.766 7  94720661.81844  23131739.805                    23131749.570
 110061118.933 8  85762034.83446  20943922.750                    20943931.465
 111100709.293 8  86572043.612 7  21141760.281                    21141768.617
 112952475.691 8  88015004.737 7  21494130.125                    21494139.645
 116405017.088 7  90705320.80245  22151122.258                    22151131.301
 126695355.128 6  98723739.42643  24109335.633                    24109347.723
 124028979.514 7  96646003.461 7  23601934.109                    23601946.563
 108484232.955 8  84533203.93646  20643822.797                    20643829.066
 11  8 19  0 40  0.0000000  0  9G17G30G10G12G05G04G09G25G02
 123478835.513 7  96217348.961 6  23497248.242                    23497258.063
 121469593.312 7  94651702.79844  23114899.508                    23114909.414
 110080184.856 8  85776891.41846  20947550.984                    20947559.758
 111054206.198 8  86535807.454 7  21132911.305                    21132919.410
 112873111.407 7  87953162.490 7  21479027.461                    21479036.867
 116485037.122 7  90767674.06045  22166349.148                    22166359.090
 126776967.050 6  98787332.99443  24124866.141                    24124878.234
 123935613.254 7  96573250.550 7  23584166.969                    23584180.066
 108492334.872 8  84539517.12246  20645364.547                    20645371.004
 11  8 19  0 40 30.0000000  0  9G17G30G10G12G05G04G09G25G02
 123536238.439 7  96262078.491 6  23508171.570                    23508181.617
 121381448.578 7  94583018.64344  23098126.008                    23098136.301
 110099874.704 8  85792234.17246  20951297.898                    20951306.520
 111008194.917 8  86499954.513 7  21124155.688                    21124164.066
 112794135.091 7  87891622.556 7  21463998.633                    21464008.480
 116565137.242 7  90830089.70545  22181591.750                    22181601.578
 126858645.013 6  98850977.99443  24140409.211                    24140421.277
 123842497.874 7  96500693.119 6  23566448.711                    23566460.289
 108500689.803 8  84546027.45446  20646954.469                    20646960.762
 11  8 19  0 41  0.0000000  0  9G17G30G10G12G05G04G09G25G02
 123593813.418 7  96306942.072 6  23519127.594                    23519137.629
 121293659.575 7  94514611.66744  23081419.914                    23081430.086
 110120188.024 8  85808062.74646  20955163.375                    20955172.172
 110962677.795 8  86464486.647 7  21115493.797                    21115502.555
 112715549.594 8  87830387.160 7  21449044.891                    21449054.133
 116645315.965 7  90892566.59345  22196849.266                    22196858.625
 126940385.799 6  98914671.98643  24155963.523                    24155976.480
 123749636.333 7  96428333.501 7  23548777.539                    23548789.359
 108509296.815 8  84552734.21846  20648592.414                    20648598.938
 11  8 19  0 41 30.0000000  0  9G17G30G10G12G05G04G09G25G02
 123651560.654 7  96351939.877 6  23530116.727                    23530126.500
 121206228.934 7  94446483.95244  23064782.438                    23064793.066
 110141124.025 8  85824376.52146  20959147.086                    20959155.949
 110917656.748 8  86429405.321 7  21106926.586                    21106935.141
 112637357.347 8  87769458.197 7  21434164.938                    21434174.551
 116725571.704 7  90955103.50045  22212121.734                    22212130.867
 127022185.853 6  98978412.14943  24171530.602                    24171542.625
 123657031.169 7  96356173.666 6  23531154.773                    23531167.035
 108518154.354 8  84559636.19946  20650277.641                    20650284.297
 11  8 19  0 42  0.0000000  0  9G17G30G10G12G05G04G09G25G02
 123709480.649 6  96397072.278 6  23541137.984                    23541148.477
 121119159.553 7  94378637.75144  23048213.828                    23048224.516
 110162682.006 8  85841174.96246  20963249.063                    20963258.480
 110873133.567 8  86394711.953 7  21098453.734                    21098462.543
 112559561.154 7  87708837.829 7  21419360.625                    21419370.074
 116805902.828 7  91017699.15045  22227408.141                    22227417.324
 127104042.219 6  99042196.20243  24187107.133                    24187119.586
 123564685.161 7  96284215.782 6  23513582.078                    23513594.164
 108527261.804 8  84566732.92346  20652011.141                    20652017.352
 11  8 19  0 42 30.0000000  0  9G17G30G10G12G05G04G09G25G02
 123767573.934 6  96442339.697 6  23552193.172                    23552203.594
 121032454.117 7  94311075.14444  23031713.813                    23031724.523
 110184861.080 8  85858457.38046  20967470.133                    20967478.902
 110829110.247 8  86360408.075 7  21090076.695                    21090085.156
 112482163.531 8  87648528.041 7  21404632.484                    21404641.484
 116886307.337 7  91080351.97945  22242708.852                    22242718.371
 127185951.504 6  99106021.45443  24202693.438                    24202706.719
 123472601.006 7  96212461.932 6  23496059.375                    23496071.285
 108536617.508 8  84574023.09446  20653791.156                    20653797.586
 11  8 19  0 43  0.0000000  0  9G17G30G10G12G05G04G09G25G02
 123825840.373 6  96487742.051 6  23563280.922                    23563291.781
 120946115.163 7  94243798.08444  23015284.430                    23015294.742
 110207660.513 8  85876223.17446  20971808.680                    20971817.473
 110785588.016 8  86326494.664 7  21081794.742                    21081802.910
 112405167.063 8  87588530.848 7  21389980.391                    21389989.563
 116966783.527 7  91143060.66545  22258022.852                    22258032.270
 127267910.459 6  99169885.41243  24218290.922                    24218302.555
 123380780.943 7  96140913.876 6  23478585.445                    23478598.027
 108546219.728 8  84581505.35546  20655618.531                    20655624.781
 11  8 19  0 43 30.0000000  0  9G17G30G10G12G05G04G09G25G02
 123884280.965 6  96533280.110 6  23574401.508                    23574412.293
 120860145.739 7  94176808.99844  22998924.969                    22998934.875
 110231079.763 8  85894471.95446  20976265.367                    20976274.211
 110742569.644 8  86292973.852 7  21073608.273                    21073616.586
 112328574.511 8  87528848.401 7  21375405.273                    21375414.750
 117047330.022 7  91205824.14845  22273350.188                    22273359.945
 127349916.057 6  99233785.73544  24233896.094                    24233908.609
 123289228.133 7  96069574.067 6  23461163.938                    23461176.086
 108556068.024 8  84589179.36746  20657492.438                    20657499.066
 11  8 19  0 44  0.0000000  0  9G17G30G10G12G05G04G09G25G02
 123942895.955 6  96578954.106 6  23585556.016                    23585566.547
 120774548.535 7  94110109.89644  22982636.117                    22982646.367
 110255117.557 8  85913202.70846  20980839.414                    20980847.930
 110700056.789 8  86259846.953 7  21065518.438                    21065527.035
 112252387.848 8  87469482.218 7  21360907.508                    21360916.922
 117127945.149 7  91268641.08545  22288690.961                    22288700.492
 127431965.070 6  99297719.86943  24249509.469                    24249521.582
 123197945.192 7  95998444.502 6  23443793.453                    23443805.375
 108566161.150 8  84597044.15446  20659413.133                    20659419.609
 11  8 19  0 44 30.0000000  0  9G17G30G10G12G05G04G09G25G02
 124001685.738 6  96624764.289 6  23596743.148                    23596754.188
 120689326.004 7  94043702.76744  22966418.805                    22966429.641
 110279773.083 8  85932414.81346  20985530.906                    20985540.281
 110658050.752 8  86227114.979 7  21057525.086                    21057533.395
 112176609.625 8  87410434.310 7  21346487.023                    21346496.398
 117208627.074 7  91331510.07645  22304044.195                    22304053.930
 127514054.003 6  99361685.13343  24265130.953                    24265143.730
 123106934.542 7  95927527.167 6  23426475.016                    23426487.000
 108576497.491 8  84605098.45346  20661380.445                    20661386.387
 11  8 19  0 45  0.0000000  0  9G17G30G10G12G05G04G09G25G02
 124060650.733 6  96670711.006 6  23607963.633                    23607974.648
 120604481.385 7  93977590.09844  22950273.484                    22950283.715
 110305045.636 8  85952107.73246  20990340.609                    20990349.430
 110616553.812 8  86194779.695 7  21049628.523                    21049636.625
 112101242.852 8  87351707.005 7  21332145.664                    21332155.082
 117289374.476 7  91394430.09745  22319409.609                    22319419.949
 127596179.720 6  99425679.04943  24280758.594                    24280771.047
 123016199.137 7  95856824.312 6  23409208.500                    23409220.844
 108587076.323 8  84613341.70446  20663393.063                    20663399.227
 11  8 19  0 45 30.0000000  0  9G17G30G10G12G05G04G09G25G02
 124119791.340 6  96716794.538 6  23619217.875                    23619228.473
 120520016.838 7  93911773.61844  22934200.523                    22934210.441
 110330934.280 8  85972280.70446  20995266.883                    20995275.621
 110575567.323 8  86162842.167 7  21041829.016                    21041837.098
 112026289.977 8  87293302.229 7  21317882.219                    21317891.488
 117370185.472 7  91457399.65545  22334787.984                    22334797.137
 127678338.599 6  99489698.78943  24296392.891                    24296405.047
 122925741.453 7  95786337.852 6  23391994.516                    23392007.309
 108597895.822 8  84621772.48546  20665452.227                    20665458.188
 11  8 19  0 46  0.0000000  0  9G17G30G10G12G05G04G09G25G02
 124179108.032 6  96763015.296 6  23630505.492                    23630517.141
 120435935.598 7  93846255.80044  22918200.414                    22918210.410
 110357438.300 8  85992933.21346  21000310.406                    21000319.121
 110535093.519 8  86131304.148 7  21034127.398                    21034135.477
 111951753.446 8  87235221.875 7  21303698.711                    21303707.371
 117451058.535 7  91520417.59145  22350177.438                    22350187.008
 127760528.185 6  99553742.43043  24312033.039                    24312045.918
 122835564.304 7  95716069.999 7  23374834.852                    23374847.109
 108608955.248 8  84630390.23346  20667556.633                    20667563.023
 11  8 19  0 46 30.0000000  0  9G17G30G10G12G05G04G09G25G02
 124238600.984 6  96809373.393 6  23641827.367                    23641837.496
 120352239.939 7  93781038.42244  22902273.430                    22902282.875
 110384555.944 8  86014063.85746  21005470.414                    21005479.398
 110495134.209 8  86100167.010 7  21026523.398                    21026531.285
 111877635.332 8  87177467.545 7  21289594.117                    21289603.488
 117531992.132 7  91583482.68545  22365578.695                    22365588.508
 127842745.018 6  99617807.31343  24327678.984                    24327691.273
 122745670.202 7  95646022.700 7  23357728.250                    23357741.039
 108620252.965 8  84639193.65946  20669706.523                    20669713.203
 11  8 19  0 47  0.0000000  0  9G17G30G10G12G05G04G09G25G02
 124298270.608 6  96855869.176 6  23653181.977                    23653192.688
 120268932.897 7  93716123.88244  22886420.961                    22886430.645
 110412286.743 8  86035672.28646  21010747.422                    21010756.484
 110455690.893 8  86069431.968 7  21019017.172                    21019025.488
 111803938.636 8  87120041.603 7  21275570.383                    21275579.332
 117612984.545 7  91646593.62345  22380991.461                    22381000.871
 127924985.939 6  99681890.97643  24343328.883                    24343341.660
 122656062.026 7  95576198.214 7  23340676.469                    23340688.926
 108631788.248 8  84648182.20346  20671901.617                    20671907.918
 11  8 19  0 47 30.0000000  0  9G17G30G10G12G05G04G09G25G02
 124358117.485 6  96902503.081 6  23664570.547                    23664580.500
 120186016.980 7  93651514.12144  22870642.016                    22870651.910
 110440629.642 7  86057757.67546  21016140.813                    21016149.836
 110416764.950 8  86039100.065 7  21011609.945                    21011618.070
 111730665.637 8  87062945.815 7  21261626.555                    21261635.938
 117694034.186 7  91709749.15545  22396414.227                    22396423.613
 128007247.736 6  99745990.91543  24358983.039                    24358995.246
 122566742.281 7  95506598.460 7  23323679.352                    23323691.875
 108643559.721 8  84657354.78246  20674141.563                    20674147.762
 11  8 19  0 48  0.0000000  0  9G17G30G10G12G05G04G09G25G02
 124418142.056 7  96949275.464 6  23675992.680                    23676002.938
 120103495.028 7  93587211.33744  22854938.891                    22854948.438
 110469583.739 8  86080319.30746  21021651.031                    21021659.832
 110378358.481 8  86009172.941 7  21004301.547                    21004309.848
 111657818.652 8  87006181.977 7  21247764.445                    21247773.867
 117775139.753 7  91772948.26444  22411848.531                    22411857.836
 128089527.121 6  99810104.56443  24374640.117                    24374653.188
 122477713.782 7  95437225.664 7  23306737.359                    23306750.082
 108655566.433 8  84666710.66846  20676426.805                    20676432.777
 11  8 19  0 48 30.0000000  0  9G17G30G10G12G05G04G09G25G02
 124478344.311 7  96996186.292 6  23687448.500                    23687459.543
 120021369.504 7  93523217.47644  22839310.914                    22839321.324
 110499147.721 8  86103356.16946  21027276.516                    21027285.504
 110340473.117 8  85979651.884 7  20997092.336                    20997100.570
 111585400.124 8  86949751.999 7  21233983.594                    21233992.586
 117856299.358 7  91836189.47645  22427292.445                    22427302.250
 128171820.937 6  99874229.44343  24390299.328                    24390312.457
 122388979.021 7  95368081.733 6  23289852.250                    23289864.309
 108667806.450 8  84676248.35146  20678755.508                    20678761.898
 11  8 19  0 49  0.0000000  0  9G17G30G10G12G05G04G09G25G02
 124538724.811 6  97043235.996 6  23698938.328                    23698949.410
 119939643.248 7  93459534.72844  22823758.680                    22823768.813
 110529321.015 8  86126867.82046  21033018.430                    21033027.543
 110303110.677 8  85950538.306 7  20989982.031                    20989989.996
 111513412.618 8  86893657.883 7  21220284.891                    21220294.402
 117937511.608 7  91899471.72045  22442746.617                    22442755.727
 128254126.085 6  99938363.17043  24405962.352                    24405975.621
 122300540.780 7  95299168.871 7  23273023.125                    23273035.016
 108680278.846 8  84685967.11546  20681128.875                    20681135.188
 11  8 19  0 49 30.0000000  0  9G17G30G10G12G05G04G09G25G02
 124599284.049 7  97090425.020 6  23710463.453                    23710473.223
 119858319.053 7  93396165.26844  22808283.719                    22808293.285
 110560102.185 8  86150853.13846  21038875.789                    21038884.449
 110266272.988 8  85921833.614 7  20982972.102                    20982980.340
 111441858.584 8  86837901.535 7  21206668.422                    21206677.770
 118018775.134 7  91962793.90744  22458210.406                    22458220.379
 128336439.478 6 100002503.30642  24421625.789                    24421639.445
 122212401.871 7  95230489.264 6  23256250.688                    23256262.938
 108692982.755 8  84695866.26846  20683546.328                    20683552.887
 11  8 19  0 50  0.0000000  0  9G17G30G10G12G05G04G09G25G02
 124660022.067 7  97137753.302 6  23722021.281                    23722031.219
 119777399.455 7  93333111.09844  22792885.281                    22792894.891
 110591489.834 8  86175311.04346  21044848.992                    21044857.820
 110229960.886 8  85893538.471 7  20976062.313                    20976070.367
 111370740.300 8  86782484.744 7  21193134.945                    21193144.078
 118100088.391 7  92026154.85444  22473683.820                    22473693.848
 128418757.787 6 100066647.20943  24437291.070                    24437304.090
 122124564.750 7  95162044.824 6  23239535.609                    23239547.688
 108705916.789 8  84705944.74746  20686007.953                    20686013.840
 11  8 19  0 50 30.0000000  0  9G17G30G10G12G05G04G09G25G02
 124720939.589 7  97185221.455 6  23733613.367                    23733623.926
 119696887.188 7  93270374.33144  22777563.617                    22777573.684
 110623482.897 8  86200240.71246  21050936.742                    21050945.430
 110194176.603 8  85865654.630 7  20969252.742                    20969260.887
 111300060.189 8  86727409.377 7  21179685.422                    21179694.324
 118181449.638 7  92089553.19645  22489166.188                    22489176.246
 128501077.847 6 100130792.53743  24452955.461                    24452969.469
 122037032.322 7  95093837.791 6  23222878.422                    23222890.574
 108719079.918 8  84716201.73446  20688512.695                    20688518.969
 11  8 19  0 51  0.0000000  0  9G17G30G10G12G05G04G09G25G02
 124782036.728 6  97232829.591 6  23745239.422                    23745250.371
 119616784.784 7  93207956.93444  22762320.867                    22762330.641
 110656080.107 8  86225641.13646  21057140.031                    21057149.031
 110158921.536 8  85838183.170 7  20962543.844                    20962552.098
 111229820.982 8  86672677.571 7  21166319.102                    21166327.938
 118262857.592 7  92152987.95044  22504657.945                    22504667.563
 128583396.630 6 100194936.86343  24468621.125                    24468634.258
 121949807.003 7  95025870.068 7  23206280.313                    23206292.363
 108732470.633 8  84726636.06746  20691061.195                    20691067.070
 11  8 19  0 51 30.0000000  0  9G17G30G10G12G05G04G09G25G02
 124843314.052 6  97280578.103 6  23756900.023                    23756910.633
 119537094.890 7  93145860.96144  22747156.195                    22747166.176
 110689280.372 8  86251511.46746  21063457.828                    21063466.688
 110124197.486 8  85811125.485 7  20955936.078                    20955944.508
 111160024.548 8  86618290.786 7  21153037.055                    21153046.125
 118344310.710 7  92216457.86945  22520158.195                    22520168.215
 128665711.134 6 100259077.82643  24484285.000                    24484298.488
 121862891.589 7  94958143.802 6  23189740.969                    23189752.809
 108746088.068 8  84737247.05146  20693652.188                    20693658.371
 11  8 19  0 52  0.0000000  0  9G17G30G10G12G05G04G09G25G02
 124904771.483 7  97328466.980 6  23768595.367                    23768605.203
 119457819.911 7  93084088.30444  22732070.656                    22732080.262
 110723082.290 8  86277850.61946  21069890.109                    21069898.758
 110090005.589 8  85784482.469 7  20949429.398                    20949437.879
 111090672.746 8  86564250.467 7  21139839.969                    21139848.875
 118425807.326 7  92279961.70145  22535666.180                    22535676.395
 128748017.968 6 100323212.79943  24499948.430                    24499961.074
 121776288.448 7  94890660.893 6  23173260.469                    23173272.590
 108759930.328 8  84748033.22946  20696286.211                    20696292.406
 11  8 19  0 52 30.0000000  0  9G17G30G10G12G05G04G09G25G02
 124966409.392 6  97376496.491 6  23780324.945                    23780334.859
 119378962.736 7  93022641.22344  22717064.656                    22717074.516
 110757484.585 8  86304657.60345  21076436.359                    21076445.383
 110056347.620 8  85758255.490 7  20943024.781                    20943032.762
 111021768.541 8  86510558.929 7  21126728.055                    21126736.723
 118507346.247 7  92343498.50344  22551182.492                    22551192.383
 128830314.259 6 100387339.56143  24515608.727                    24515621.484
 121690000.525 7  94823423.597 6  23156840.375                    23156852.508
 108773996.629 8  84758993.98446  20698962.938                    20698969.055
 11  8 19  0 53  0.0000000  0  9G17G30G10G12G05G04G09G25G02
 125028228.275 6  97424667.035 6  23792088.117                    23792098.465
 119300525.873 7  92961521.63944  22702138.805                    22702147.887
 110792485.902 7  86331931.36046  21083096.984                    21083105.848
 110023224.955 8  85732445.635 7  20936721.680                    20936730.008
 110953313.959 8  86457217.742 7  21113701.375                    21113710.184
 118588925.676 7  92407066.86344  22566706.500                    22566716.418
 128912596.776 6 100451455.64243  24531266.141                    24531279.746
 121604030.340 7  94756433.904 7  23140480.906                    23140492.711
 108788285.766 8  84770128.37146  20701681.719                    20701688.383
 11  8 19  0 53 30.0000000  0  9G17G30G10G12G05G04G09G25G02
 125090228.379 6  97472978.766 6  23803886.422                    23803896.977
 119222512.103 7  92900731.75744  22687293.039                    22687302.715
 110828085.031 8  86359670.94645  21089871.297                    21089880.047
 109990639.247 8  85707054.185 7  20930520.688                    20930528.863
 110885311.458 8  86404228.817 7  21100760.711                    21100769.941
 118670544.602 7  92470665.99145  22582238.156                    22582248.492
 128994862.411 6 100515558.51343  24546921.055                    24546934.914
 121518380.669 7  94689693.953 6  23124182.508                    23124194.676
 108802796.715 8  84781435.59946  20704443.320                    20704449.598
 11  8 19  0 54  0.0000000  0  9G17G30G10G12G05G04G09G25G02
 125152409.872 6  97521431.865 6  23815719.563                    23815730.203
 119144923.676 7  92840273.31444  22672528.336                    22672538.656
 110864280.522 8  86387875.23146  21096759.164                    21096767.809
 109958591.712 8  85682082.084 7  20924422.406                    20924430.824
 110817763.192 8  86351593.844 7  21087906.641                    21087915.750
 118752201.064 7  92534294.37644  22597776.867                    22597787.094
 129077108.047 6 100579645.78143  24562571.945                    24562585.570
 121433053.955 7  94623205.674 7  23107945.047                    23107956.922
 108817527.808 8  84792914.37646  20707246.859                    20707252.828
 11  8 19  0 54 30.0000000  0  9G17G30G10G12G05G04G09G25G02
 125214773.224 6  97570026.648 6  23827586.734                    23827596.992
 119067763.433 7  92780148.50345  22657845.102                    22657854.824
 110901071.123 8  86416543.23245  21103760.242                    21103769.219
 109927084.148 8  85657530.739 7  20918426.711                    20918434.809
 110750671.740 8  86299314.839 7  21075139.516                    21075148.406
 118833894.132 7  92597951.27744  22613322.883                    22613332.617
 129159330.839 6 100643715.28943  24578219.219                    24578232.324
 121348053.050 7  94556971.253 7  23091769.938                    23091781.582
 108832478.585 8  84804564.32346  20710091.406                    20710098.461
 11  8 19  0 55  0.0000000  0  9G17G30G10G12G05G04G09G25G02
 125277318.827 6  97618763.465 6  23839488.164                    23839499.387
 118991033.707 7  92720359.18744  22643244.156                    22643253.840
 110938455.152 8  86445673.64946  21110874.008                    21110882.996
 109896117.484 8  85633400.878 7  20912534.031                    20912542.359
 110684038.756 8  86247393.071 7  21062459.617                    21062468.852
 118915621.964 7  92661635.26944  22628875.273                    22628885.141
 129241527.406 6 100707764.38943  24593860.406                    24593874.074
 121263380.288 7  94490992.527 7  23075657.320                    23075669.582
 108847647.086 8  84816383.92446  20712978.039                    20712984.656
 11  8 19  0 55 30.0000000  0  9G17G30G10G12G05G04G09G25G02
 125340046.895 6  97667642.449 6  23851425.500                    23851435.492
 118914737.368 7  92660907.55845  22628724.813                    22628735.063
 110976431.758 8  86475265.81945  21118100.906                    21118110.090
 109865693.651 8  85609693.998 7  20906744.336                    20906752.453
 110617867.078 8  86195830.768 7  21049867.656                    21049876.781
 118997383.356 7  92725345.42344  22644433.938                    22644443.965
 129323694.994 6 100771790.81743  24609497.016                    24609510.391
 121179038.642 7  94425271.823 7  23059607.266                    23059619.543
 108863032.634 8  84828372.66246  20715906.000                    20715912.566
 11  8 19  0 56  0.0000000  0  9G17G30G10G12G05G04G09G25G02
 125402957.614 6  97716663.766 6  23863396.734                    23863407.313
 118838876.800 7  92601795.49144  22614289.492                    22614299.027
 111014999.018 8  86505318.24145  21125439.789                    21125448.734
 109835814.166 8  85586411.285 7  20901058.438                    20901066.898
 110552158.696 8  86144629.475 7  21037363.602                    21037372.621
 119079177.067 7  92789080.74144  22659998.688                    22660008.074
 129405830.423 6 100835792.23943  24625127.125                    24625140.387
 121095030.616 7  94359811.075 7  23043620.797                    23043633.520
 108878633.758 8  84840529.38346  20718874.273                    20718881.289
 11  8 19  0 56 30.0000000  0  9G17G30G10G12G05G04G09G25G02
 125466050.926 6  97765827.347 6  23875403.219                    23875413.875
 118763454.411 7  92543024.87245  22599936.383                    22599946.699
 111054155.217 8  86535829.57445  21132890.992                    21132900.020
 109806479.470 8  85563553.070 7  20895476.328                    20895484.504
 110486915.664 8  86093790.795 7  21024948.430                    21024957.293
 119161001.399 7  92852839.93444  22675569.352                    22675579.602
 129487930.569 6 100899766.10144  24640750.664                    24640763.645
 121011358.705 7  94294612.263 7  23027699.266                    23027710.992
 108894449.059 8  84852852.98746  20721884.320                    20721890.664
 11  8 19  0 57  0.0000000  0  9G17G30G10G12G05G04G09G25G02
 125529327.505 6  97815133.767 6  23887444.289                    23887455.191
 118688473.010 7  92484597.86445  22585668.297                    22585678.215
 111093899.408 8  86566799.08546  21140454.016                    21140462.758
 109777691.766 8  85541121.094 7  20889998.297                    20890006.469
 110422140.244 8  86043316.483 7  21012622.289                    21012630.820
 119242855.217 7  92916622.09444  22691146.063                    22691155.285
 129569992.394 6 100963710.13443  24656366.188                    24656380.340
 120928025.785 7  94229677.597 7  23011841.336                    23011853.051
 108910477.685 8  84865342.82746  20724934.359                    20724940.871
 11  8 19  0 57 30.0000000  0  9G17G30G10G12G05G04G09G25G02
 125592787.581 6  97864583.156 6  23899520.195                    23899530.891
 118613934.969 7  92426516.33044  22571484.352                    22571493.902
 111134229.883 8  86598225.45146  21148128.500                    21148137.684
 109749452.111 8  85519116.165 7  20884624.281                    20884632.898
 110357834.345 8  85993208.035 7  21000384.844                    21000394.156
 119324737.097 7  92980426.11844  22706727.484                    22706737.422
 129652012.969 6 101027622.01143  24671974.547                    24671988.547
 120845034.266 7  94165008.945 7  22996048.117                    22996060.469
 108926718.442 8  84877997.96146  20728025.109                    20728031.504
 11  8 19  0 58  0.0000000  0  9G17G30G10G12G05G04G09G25G02
 125656431.327 6  97914175.691 6  23911631.578                    23911642.230
 118539842.620 7  92368782.10344  22557385.195                    22557394.582
 111175144.698 8  86630107.13745  21155914.367                    21155923.602
 109721761.561 8  85497539.114 7  20879354.828                    20879363.520
 110294000.395 8  85943467.340 7  20988237.688                    20988247.039
 119406645.457 7  93044250.78544  22722314.125                    22722323.305
 129733989.143 6 101091499.35343  24687573.813                    24687587.563
 120762386.759 7  94100608.350 7  22980320.805                    22980333.285
 108943169.987 8  84890817.34246  20731155.563                    20731161.668
 11  8 19  0 58 30.0000000  0  9G17G30G10G12G05G04G09G25G02
 125720258.954 6  97963911.498 6  23923777.578                    23923788.426
 118466198.680 7  92311397.28645  22543370.664                    22543380.871
 111216642.596 8  86662443.17445  21163811.422                    21163820.121
 109694621.939 8  85476391.352 7  20874190.336                    20874198.648
 110230640.771 8  85894096.246 7  20976181.000                    20976189.734
 119488579.514 7  93108095.46944  22737905.023                    22737915.219
 129815918.185 6 101155339.93943  24703164.977                    24703178.363
 120680085.903 7  94036477.900 7  22964659.648                    22964671.793
 108959831.366 8  84903800.21946  20734326.211                    20734332.395
 11  8 19  0 59  0.0000000  0  9G17G30G10G12G05G04G09G25G02
 125784270.675 6  98013790.736 6  23935958.656                    23935969.156
 118393005.420 7  92254363.64545  22529442.430                    22529452.594
 111258721.825 8  86695232.19645  21171818.523                    21171827.574
 109668033.996 8  85455673.469 7  20869131.234                    20869139.176
 110167756.810 8  85845095.809 7  20964214.336                    20964223.215
 119570537.320 7  93171958.65144  22753501.430                    22753511.645
 129897796.901 6 101219141.30843  24718745.555                    24718759.633
 120598134.271 7  93972619.561 7  22949064.844                    22949076.867
 108976700.952 8  84916945.33546  20737536.266                    20737542.547
 11  8 19  0 59 30.0000000  0  9G17G30G10G12G05G04G09G25G02
 125848466.645 6  98063813.527 6  23948174.289                    23948185.691
 118320265.254 7  92197683.05445  22515600.672                    22515610.621
 111301380.641 8  86728472.82545  21179936.297                    21179945.340
 109641998.989 8  85435386.453 7  20864176.938                    20864185.063
 110105350.891 8  85796467.863 7  20952338.930                    20952347.945
 119652517.680 7  93235839.41444  22769101.664                    22769111.938
 129979622.304 6 101282901.15243  24734316.172                    24734331.508
 120516534.351 7  93909035.287 7  22933536.656                    22933548.926
 108993777.595 8  84930251.80246  20740785.945                    20740792.273
 11  8 19  1  0  0.0000000  0  9G17G30G10G12G05G04G09G25G02
 125912847.206 6  98113980.129 6  23960426.242                    23960437.145
 118247980.983 7  92141357.71845  22501844.641                    22501854.672
 111344617.866 8  86762164.17145  21188164.234                    21188173.320
 109616518.349 8  85415531.400 7  20859327.828                    20859336.457
 110043425.536 8  85748214.389 7  20940554.883                    20940563.742
 119734519.599 7  93299736.96544  22784705.813                    22784716.020
 130061391.550 6 101346617.14643  24749876.773                    24749891.711
 120435288.980 7  93845727.273 7  22918075.813                    22918087.602
 109011060.738 8  84943719.17846  20744074.727                    20744081.125
 11  8 19  1  0 30.0000000  0  9G17G30G10G12G05G04G09G25G02
 125977412.450 6  98164290.669 6  23972712.352                    23972722.648
 118176154.775 7  92085389.29745  22488176.656                    22488186.676
 111388431.563 7  86796304.71446  21196501.820                    21196510.250
 109591593.187 8  85396109.201 7  20854584.719                    20854592.953
 109981982.224 8  85700336.529 8  20928862.133                    20928871.074
 119816541.611 7  93363650.21444  22800314.602                    22800324.676
 130143101.455 6 101410286.95443  24765425.813                    24765440.820
 120354400.584 7  93782697.420 7  22902683.742                    22902695.590
 109028548.703 8  84957346.15746  20747402.547                    20747408.973
 11  8 19  1  1  0.0000000  0  9G17G30G10G12G05G04G09G25G02
 126042162.906 6  98214745.565 6  23985034.094                    23985044.621
 118104789.162 7  92029779.78745  22474596.586                    22474606.332
 111432820.128 8  86830893.21345  21204948.477                    21204957.379
 109567224.803 8  85377120.852 7  20849947.984                    20849955.918
 109921023.249 8  85652836.066 7  20917262.508                    20917271.309
 119898582.618 7  93427578.24644  22815926.938                    22815936.246
 130224749.164 6 101473908.37443  24780963.133                    24780977.441
 120273871.818 7  93719947.787 7  22887359.836                    22887371.340
 109046240.602 8  84971132.04746  20750769.125                    20750775.867
 11  8 19  1  1 30.0000000  0  9G17G30G10G12G05G04G09G25G02
 126107098.432 7  98265344.678 6  23997391.031                    23997401.859
 118033886.471 7  91974530.98844  22461104.289                    22461113.762
 111477781.573 8  86865928.10946  21213504.563                    21213513.344
 109543414.137 8  85358567.100 7  20845416.641                    20845424.844
 109860550.780 8  85605714.709 7  20905754.750                    20905763.742
 119980640.950 7  93491519.78144  22831540.938                    22831551.293
 130306331.751 6 101537479.00343  24796488.641                    24796502.785
 120193705.117 7  93657480.294 7  22872104.156                    22872115.863
 109064135.035 8  84985075.75046  20754174.453                    20754180.836
 11  8 19  1  2  0.0000000  0  9G17G30G10G12G05G04G09G25G02
 126172219.274 6  98316088.189 6  24009782.523                    24009793.848
 117963449.227 7  91919644.86445  22447700.102                    22447709.930
 111523314.281 8  86901408.15245  21222168.984                    21222177.996
 109520162.390 8  85340448.862 7  20840992.148                    20841000.301
 109800566.553 8  85558973.804 7  20894340.102                    20894349.113
 120062715.223 7  93555473.72644  22847159.883                    22847169.957
 130387846.283 6 101600996.59043  24812000.289                    24812014.836
 120113903.183 7  93595297.031 7  22856918.148                    22856930.016
 109082230.796 8  84999176.33846  20757617.891                    20757624.414
 11  8 19  1  2 30.0000000  0  9G17G30G10G12G05G04G09G25G02
 126237525.776 6  98366976.355 6  24022210.031                    24022220.984
 117893479.687 7  91865123.21644  22434385.781                    22434395.539
 111569416.710 7  86937332.12245  21230941.938                    21230950.863
 109497470.613 8  85322766.981 7  20836674.023                    20836682.164
 109741072.657 8  85512614.951 7  20883018.797                    20883027.742
 120144804.490 7  93619439.35244  22862780.992                    22862790.512
 130469289.653 6 101664458.76842  24827498.906                    24827513.020
 120034468.430 7  93533399.878 7  22841802.820                    22841814.102
 109100526.722 8  85013432.90346  20761099.531                    20761106.426
 11  8 19  1  3  0.0000000  0  9G17G30G10G12G05G04G09G25G02
 126303017.993 6  98418009.224 6  24034672.875                    24034683.770
 117823980.398 7  91810967.96545  22421159.914                    22421169.781
 111616087.106 8  86973698.67945  21239823.156                    21239831.754
 109475340.194 8  85305522.511 7  20832462.523                    20832470.977
 109682071.209 8  85466639.843 7  20871791.219                    20871800.113
 120226907.599 7  93683415.77044  22878404.664                    22878414.723
 130550659.231 6 101727863.37743  24842982.758                    24842997.570
 119955403.634 7  93471790.986 7  22826756.375                    22826768.969
 109119021.723 8  85027844.59846  20764619.133                    20764625.852
 11  8 19  1  3 30.0000000  0  9G17G30G10G12G05G04G09G25G02
 126368696.064 6  98469186.919 6  24047171.586                    24047182.746
 117754953.643 7  91757180.90945  22408024.961                    22408034.547
 111663323.251 8  87010506.07045  21248811.930                    21248820.688
 109453771.918 8  85288716.079 7  20828358.289                    20828366.582
 109623563.596 8  85421049.538 8  20860657.625                    20860666.531
 120309023.093 7  93747401.83644  22894030.703                    22894041.117
 130631951.865 6 101791208.07442  24858451.383                    24858467.285
 119876711.186 7  93410472.255 7  22811782.141                    22811793.801
 109137714.816 8  85042410.64346  20768176.031                    20768182.582
 11  8 19  1  4  0.0000000  0  8G17G30G10G12G05G04G25G02
 126434560.763 6  98520510.057 6  24059705.016                    24059715.754
 117686402.392 7  91703764.37645  22394979.602                    22394989.934
 111711124.102 8  87047753.50145  21257907.828                    21257917.160
 109432767.559 8  85272349.062 7  20824361.273                    20824369.301
 109565552.825 8  85375846.382 8  20849618.297                    20849627.234
 120391150.689 7  93811397.34544  22909659.195                    22909669.367
 119798394.264 7  93349446.113 7  22796878.594                    22796890.500
 109156605.272 8  85057130.48546  20771771.000                    20771777.855
 11  8 19  1  4 30.0000000  0  8G17G30G10G12G05G04G25G02
 126500611.795 6  98571978.409 6  24072274.023                    24072285.008
 117618328.324 7  91650719.67845  22382025.938                    22382035.871
 111759487.277 8  87085439.09845  21267111.438                    21267119.945
 109412327.305 8  85256421.607 7  20820471.438                    20820479.430
 109508039.967 8  85331031.209 8  20838673.922                    20838682.973
 120473288.299 7  93875400.67444  22925289.633                    22925299.586
 119720454.835 7  93288714.133 7  22782047.617                    22782059.008
 109175691.342 8  85072002.74446  20775402.969                    20775409.344
 11  8 19  1  5  0.0000000  0  8G17G30G10G12G05G04G25G02
 126566849.312 6  98623592.076 6  24084878.727                    24084889.387
 117550733.803 7  91598048.65745  22369163.219                    22369172.715
 111808410.980 8  87123561.47245  21276420.891                    21276429.832
 109392452.357 8  85240934.653 7  20816689.750                    20816697.980
 109451027.000 8  85286605.560 8  20827824.656                    20827833.469
 120555434.807 7  93939410.90844  22940921.508                    22940931.117
 119642895.338 7  93228278.192 7  22767288.492                    22767300.320
 109194972.007 8  85087026.62946  20779071.852                    20779078.316
 11  8 19  1  5 30.0000000  0  8G17G30G10G12G05G04G25G02
 126633273.288 6  98675351.052 6  24097518.969                    24097530.070
 117483621.343 7  91545753.24145  22356392.461                    22356401.875
 111857893.569 7  87162119.32945  21285836.906                    21285846.125
 109373143.946 8  85225889.159 7  20813015.266                    20813023.621
 109394516.271 8  85242571.266 8  20817071.000                    20817080.008
 120637588.873 6  94003427.05844  22956555.195                    22956565.082
 119565718.569 7  93168140.487 7  22752601.797                    22752613.871
 109214446.360 8  85102201.44646  20782777.688                    20782783.898
 11  8 19  1  6  0.0000000  0  8G17G30G10G12G05G04G25G02
 126699883.725 6  98727255.310 6  24110194.398                    24110204.797
 117416992.784 7  91493834.91745  22343712.883                    22343722.941
 111907932.505 7  87201110.71045  21295359.258                    21295368.211
 109354402.164 8  85211285.184 7  20809448.789                    20809456.969
 109338508.895 8  85198929.191 8  20806412.781                    20806422.094
 120719749.344 6  94067448.15244  22972189.484                    22972199.449
 119488926.563 7  93108302.596 7  22737989.539                    22738000.852
 109234112.577 8  85117525.76446  20786519.883                    20786526.559
 11  8 19  1  6 30.0000000  0  8G17G30G10G12G05G04G25G02
 126766680.546 6  98779304.786 6  24122905.203                    24122915.820
 117350850.275 7  91442295.31845  22331126.469                    22331136.000
 111958525.741 7  87240534.00745  21304986.758                    21304995.438
 109336228.386 8  85197123.816 7  20805990.531                    20805998.762
 109283006.668 8  85155680.744 7  20795851.461                    20795860.281
 120801914.627 7  94131473.02044  22987824.758                    22987835.168
 119412521.692 7  93048766.370 7  22723449.313                    22723461.492
 109253969.068 8  85132998.35446  20790298.570                    20790305.160
 11  8 19  1  7  0.0000000  0  8G17G30G10G12G05G04G25G02
 126833664.229 6  98831499.886 6  24135651.422                    24135662.492
 117285196.536 7  91391136.59645  22318632.570                    22318642.516
 112009671.823 8  87280388.08545  21314719.789                    21314728.539
 109318623.375 8  85183405.641 7  20802640.570                    20802648.645
 109228011.802 8  85112827.641 7  20785386.289                    20785395.250
 120884084.231 7  94195501.26244  23003461.063                    23003471.422
 119336507.018 7  92989534.168 7  22708983.836                    22708996.484
 109274015.703 8  85148619.10246  20794113.266                    20794119.762
 11  8 19  1  7 30.0000000  0  8G17G30G10G12G05G04G25G02
 126900835.046 6  98883840.806 6  24148433.438                    24148444.512
 117220033.856 7  91340360.49845  22306233.141                    22306242.516
 112061368.760 7  87320671.41645  21324557.508                    21324566.277
 109301588.199 8  85170131.483 7  20799398.609                    20799406.543
 109173526.131 8  85070371.303 8  20775017.805                    20775026.867
 120966257.001 6  94259531.95244  23019098.313                    23019108.406
 119260884.910 7  92930607.880 7  22694593.766                    22694605.879
 109294251.513 8  85164387.26446  20797964.180                    20797970.938
 11  8 19  1  8  0.0000000  0  8G17G30G10G12G05G04G25G02
 126968193.038 6  98936327.543 6  24161250.672                    24161262.125
 117155364.187 7  91289968.58645  22293926.609                    22293936.754
 112113614.265 7  87361382.20745  21334499.367                    21334508.422
 109285123.427 8  85157301.800 7  20796265.266                    20796273.684
 109119550.865 8  85028312.697 8  20764746.547                    20764755.477
 121048431.417 7  94323563.94744  23034735.438                    23034745.730
 119185657.617 7  92871989.245 7  22680278.672                    22680290.402
 109314674.911 8  85180301.60546  20801850.461                    20801857.191
 11  8 19  1  8 30.0000000  0  8G17G30G10G12G05G04G25G02
 127035737.875 6  98988959.906 6  24174105.188                    24174115.320
 117091189.592 7  91239962.44545  22281714.984                    22281723.961
 112166406.051 7  87402518.66345  21344544.930                    21344554.074
 109269230.016 8  85144917.333 7  20793241.023                    20793249.164
 109066087.900 8  84986653.285 8  20754573.109                    20754581.754
 121130606.312 6  94387596.30744  23050373.430                    23050383.582
 119110827.512 7  92813680.095 7  22666038.953                    22666050.875
 109335284.228 8  85196360.80546  20805772.477                    20805778.801
 11  8 19  1  9  0.0000000  0  8G17G30G10G12G05G04G25G02
 127103469.909 6  99041738.133 6  24186994.180                    24187004.367
 117027512.580 7  91190344.01245  22269597.477                    22269607.125
 112219742.678 7  87444079.65645  21354694.578                    21354703.711
 109253909.035 8  85132978.915 7  20790325.641                    20790333.805
 109013139.384 8  84945394.741 8  20744497.773                    20744506.277
 121212780.887 7  94451628.43144  23066010.406                    23066020.398
 119036397.319 7  92755682.564 7  22651875.414                    22651886.730
 109356078.910 8  85212564.45446  20809729.391                    20809736.156
 11  8 19  1  9 30.0000000  0  8G17G30G10G12G05G04G25G02
 127171389.197 6  99094662.256 6  24199918.047                    24199929.410
 116964335.210 7  91141114.92345  22257575.000                    22257584.645
 112273621.849 7  87486063.42745  21364947.711                    21364956.574
 109239160.729 8  85121486.735 7  20787519.031                    20787527.387
 108960706.637 8  84904538.099 8  20734519.297                    20734528.020
 121294953.600 7  94515659.09444  23081647.383                    23081657.457
 118962369.321 7  92697998.441 7  22637788.234                    22637799.617
 109377057.734 8  85228911.59546  20813721.852                    20813728.137
 11  8 19  1 10  0.0000000  0  8G17G30G10G12G05G04G25G02
 127239495.711 6  99147732.247 5  24212878.734                    24212889.023
 116901659.900 7  91092277.05045  22245648.156                    22245658.078
 112328041.589 7  87528468.41845  21375303.914                    21375312.523
 109224986.565 8  85110441.942 7  20784821.602                    20784830.293
 108908791.593 8  84864084.862 8  20724640.391                    20724649.164
 121377123.796 7  94579687.77844  23097284.195                    23097293.348
 118888746.271 7  92640629.854 7  22623777.953                    22623789.711
 109398219.753 8  85245401.48346  20817748.695                    20817755.313
 11  8 19  1 10 30.0000000  0  8G17G30G10G12G05G04G25G02
 127307789.719 6  99200948.366 6  24225874.648                    24225884.516
 116839488.503 7  91043831.84645  22233817.234                    22233826.617
 112382999.744 7  87571292.95645  21385761.859                    21385770.703
 109211386.603 8  85099844.570 7  20782233.594                    20782242.023
 108857395.849 8  84824036.272 8  20714860.148                    20714868.883
 121459290.306 7  94643713.61044  23112919.859                    23112929.602
 118815530.339 7  92583578.520 7  22609845.711                    22609857.848
 109419563.813 8  85262033.21546  20821810.539                    20821816.617
 11  8 19  1 11  0.0000000  0  8G17G30G10G12G05G04G25G02
 127376271.209 6  99254310.565 5  24238905.813                    24238916.473
 116777823.401 7  90995781.13745  22222082.898                    22222092.238
 112438494.596 7  87614535.69645  21396321.688                    21396330.859
 109198362.051 8  85089695.575 7  20779755.242                    20779763.836
 108806521.215 8  84784393.734 7  20705179.016                    20705187.922
 121541452.030 7  94707735.69644  23128554.594                    23128565.016
 118742724.241 8  92526846.533 7  22595990.852                    22596002.859
 109441088.803 8  85278805.94246  20825906.383                    20825913.004
 11  8 19  1 11 30.0000000  0  8G17G30G10G12G05G04G25G02
 127444940.177 6  99307818.873 5  24251973.430                    24251983.879
 116716666.589 7  90948126.51745  22210445.063                    22210455.133
 112494523.783 7  87658194.80445  21406983.945                    21406992.844
 109185913.146 8  85079995.135 7  20777386.320                    20777394.648
 108756169.181 8  84745158.423 7  20695597.164                    20695605.863
 121623607.751 7  94771753.10244  23144188.711                    23144198.172
 118670330.064 8  92470435.523 7  22582215.055                    22582227.129
 109462793.517 8  85295718.71746  20830036.711                    20830043.152
 11  8 19  1 12  0.0000000  0  8G17G30G10G12G05G04G25G02
 127513796.693 6  99361473.315 5  24265076.500                    24265086.734
 116656019.785 7  90900869.30245  22198903.805                    22198914.023
 112551084.570 7  87702268.14345  21417747.172                    21417756.223
 109174040.377 8  85070743.632 7  20775127.141                    20775134.961
 108706341.018 8  84706331.324 8  20686115.117                    20686124.086
 121705756.171 7  94835764.85844  23159820.109                    23159830.395
 118598349.994 7  92414347.192 7  22568517.258                    22568529.211
 109484676.373 8  85312770.30746  20834200.805                    20834207.324
 11  8 19  1 12 30.0000000  0  8G17G30G10G12G05G04G25G02
 127582840.546 6  99415273.778 6  24278215.898                    24278225.938
 116595885.446 7  90854011.41245  22187461.242                    22187471.203
 112608175.085 7  87746754.26145  21428611.188                    21428620.094
 109162744.697 8  85061941.801 7  20772977.359                    20772985.660
 108657038.266 8  84667913.634 7  20676733.266                    20676742.082
 121787896.685 7  94899770.41844  23175451.859                    23175462.156
 118526786.793 7  92358583.703 7  22554899.625                    22554911.195
 109506736.785 8  85329960.25346  20838398.805                    20838405.230
 11  8 19  1 13  0.0000000  0  8G17G30G10G12G05G04G25G02
 127652072.187 6  99469220.562 5  24291389.469                    24291399.684
 116536265.701 7  90807554.48845  22176116.109                    22176125.785
 112665793.462 7  87791651.69645  21439575.570                    21439584.758
 109152026.942 8  85053590.303 7  20770937.898                    20770946.250
 108608262.836 8  84629906.841 8  20667451.430                    20667459.945
 121870028.137 6  94963768.90544  23191080.492                    23191091.199
 118455642.868 7  92303146.903 7  22541361.523                    22541372.664
 109528973.836 8  85347287.83146  20842630.148                    20842636.766
 11  8 19  1 13 30.0000000  0  8G17G30G10G12G05G04G25G02
 127721491.581 7  99523313.668 6  24304599.219                    24304610.547
 116477162.779 7  90761500.29645  22164868.875                    22164878.125
 112723937.752 7  87836958.93845  21450639.625                    21450648.750
 109141887.672 8  85045689.579 7  20769008.555                    20769016.453
 108560016.478 8  84592312.319 8  20658270.422                    20658279.059
 121952149.660 6  95027759.68144  23206707.438                    23206718.098
 118384920.766 7  92248038.817 7  22527903.445                    22527915.332
 109551386.630 8  85364752.35846  20846895.203                    20846901.684
 11  8 19  1 14  0.0000000  0  9G17G30G10G12G05G04G29G25G02
 127791098.552 6  99577552.905 6  24317844.781                    24317855.625
 116418578.174 7  90715849.98145  22153720.391                    22153730.242
 112782605.197 7  87882673.82345  21461803.945                    21461813.133
 109132326.862 8  85038239.588 7  20767189.000                    20767197.488
 108512300.495 8  84555131.075 7  20649190.406                    20649199.203
 122034259.851 6  95091741.57844  23222333.164                    23222342.891
 129560526.70616 100956299.15615  24654555.281                    24654565.547
 118314622.284 7  92193260.824 7  22514525.914                    22514537.242
 109573973.423 8  85382352.46546  20851193.266                    20851199.879
 11  8 19  1 14 30.0000000  0  9G17G30G10G12G05G04G29G25G02
 127860893.306 6  99631938.464 6  24331126.539                    24331137.699
 116360514.607 7  90670605.67045  22142671.492                    22142680.566
 112841794.202 7  87928795.11645  21473067.492                    21473076.477
 109123346.048 8  85031241.549 7  20765480.125                    20765488.254
 108465116.743 8  84518364.553 8  20640211.820                    20640220.355
 122116358.455 6  95155714.47744  23237955.875                    23237965.691
 129481061.109 6 100894377.975 5  24639432.852                    24639444.070
 118244750.684 7  92138815.459 7  22501229.656                    22501241.512
 109596733.938 8  85400087.94246  20855524.547                    20855531.098
 11  8 19  1 15  0.0000000  0  9G17G30G10G12G05G04G29G25G02
 127930876.019 6  99686470.497 6  24344444.008                    24344454.688
 116302973.876 7  90625768.75645  22131721.773                    22131731.277
 112901502.316 7  87975320.92445  21484429.125                    21484438.066
 109114945.160 8  85024695.403 7  20763881.438                    20763890.168
 108418466.330 8  84482013.619 8  20631334.273                    20631343.047
 122198444.210 7  95219677.35844  23253576.461                    23253586.156
 129401517.354 6 100832395.889 6  24624297.016                    24624307.301
 118175307.877 7  92084704.211 7  22488015.391                    22488026.918
 109619666.758 8  85417957.68846  20859888.219                    20859894.766
 11  8 19  1 15 30.0000000  0  9G17G30G10G12G05G04G29G25G02
 128001046.082 6  99741148.509 6  24357796.297                    24357807.488
 116245957.255 7  90581340.25145  22120871.734                    22120881.785
 112961726.504 7  88022248.86045  21495889.625                    21495898.555
 109107124.284 8  85018601.203 7  20762393.297                    20762401.859
 108372350.091 8  84446078.926 8  20622558.734                    20622567.523
 122280515.407 7  95283628.89344  23269193.375                    23269203.566
 129321895.367 6 100770352.878 6  24609145.133                    24609156.750
 118106295.639 7  92030928.474 7  22474882.641                    22474894.270
 109642770.024 8  85435960.23846  20864284.734                    20864291.586
 11  8 19  1 16  0.0000000  0  9G17G30G10G12G05G04G29G25G02
 128071403.709 6  99795972.704 6  24371185.188                    24371196.082
 116189467.258 7  90537322.08945  22110122.063                    22110131.953
 113022464.988 7  88069577.55445  21507447.773                    21507456.512
 109099884.177 8  85012959.556 7  20761015.227                    20761023.711
 108326770.248 8  84410562.203 8  20613885.289                    20613893.938
 122362571.638 6  95347568.79043  23284808.445                    23284818.848
 129242195.780 6 100708249.362 5  24593978.492                    24593989.633
 118037716.767 7  91977490.415 7  22461832.461                    22461843.957
 109666043.383 8  85454095.33346  20868713.734                    20868720.195
 11  8 19  1 16 30.0000000  0  9G17G30G10G12G05G04G29G25G02
 128141948.884 7  99850943.023 6  24384609.594                    24384620.254
 116133505.698 7  90493715.71345  22099472.914                    22099482.648
 113083715.575 7  88117305.28245  21519103.375                    21519112.414
 109093225.316 8  85007770.834 7  20759748.438                    20759756.602
 108281727.944 8  84375464.347 8  20605313.867                    20605322.047
 122444611.815 6  95411496.12943  23300420.086                    23300430.578
 129162419.381 6 100646085.997 6  24578798.063                    24578808.609
 117969573.425 7  91924391.735 7  22448865.172                    22448876.863
 109689485.643 8  85472362.02446  20873174.688                    20873181.195
 11  8 19  1 17  0.0000000  0  9G17G30G10G12G05G04G29G25G02
 128212681.523 7  99906059.431 6  24398069.461                    24398079.652
 116078074.560 7  90450522.63145  22088924.664                    22088933.988
 113145476.187 7  88165430.44045  21530855.781                    21530864.977
 109087147.817 8  85003035.121 7  20758591.641                    20758599.898
 108237224.423 8  84340786.309 8  20596845.031                    20596853.762
 122526635.040 6  95475410.26844  23316028.453                    23316039.660
 129082567.062 6 100583863.508 6  24563602.336                    24563613.777
 117901868.099 7  91871634.385 7  22435980.711                    22435993.258
 109713095.943 8  85490759.65846  20877667.266                    20877673.984
 11  8 19  1 17 30.0000000  0  9G17G30G10G12G05G04G29G25G02
 128283601.317 7  99961321.690 6  24411564.695                    24411575.469
 116023175.654 7  90407744.27045  22078477.891                    22078487.668
 113207744.046 7  88213950.85245  21542705.164                    21542714.184
 109081652.176 8  84998752.801 7  20757545.844                    20757554.418
 108193261.293 8  84306529.367 8  20588478.875                    20588487.699
 122608640.419 6  95539310.51144  23331634.094                    23331644.391
 129002638.845 6 100521581.880 6  24548391.828                    24548403.574
 117834602.889 7  91819219.962 7  22423181.219                    22423192.855
 109736872.815 8  85509287.09346  20882191.859                    20882198.609
 11  8 19  1 18  0.0000000  0  9G17G30G10G12G05G04G29G25G02
 128354708.640 6 100016730.080 6  24425096.383                    24425107.012
 115968810.902 7  90365382.15745  22068132.531                    22068141.965
 113270516.860 7  88262864.72745  21554650.391                    21554659.566
 109076738.816 8  84994924.215 7  20756610.773                    20756619.613
 108149839.963 8  84272694.597 8  20580216.117                    20580225.375
 122690626.624 6  95603195.83944  23347235.914                    23347245.797
 128922635.590 6 100459241.765 6  24533168.023                    24533179.066
 117767780.151 7  91767150.317 7  22410464.906                    22410476.129
 109760815.553 8  85527943.77246  20886748.023                    20886754.539
 11  8 19  1 18 30.0000000  0  9G17G30G10G12G05G04G29G25G02
 128426003.209 6 100072284.364 6  24438662.977                    24438674.117
 115914982.109 7  90323437.65645  22057889.133                    22057899.168
 113333792.267 7  88312170.22945  21566691.016                    21566699.883
 109072408.297 7  84991549.800 7  20755786.977                    20755795.414
 108106961.519 8  84239282.863 8  20572056.383                    20572065.234
 122772593.230 7  95667065.88844  23362833.117                    23362843.988
 128842557.683 6 100396843.468 6  24517929.750                    24517940.277
 117701402.035 7  91715427.135 7  22397833.828                    22397845.188
 109784922.955 8  85546728.75646  20891336.055                    20891342.105
 11  8 19  1 19  0.0000000  0  9G17G30G10G12G05G04G29G25G02
 128497485.105 6 100127984.578 6  24452265.516                    24452276.938
 115861691.209 7  90281912.29245  22047747.938                    22047757.691
 113397568.086 7  88361865.66745  21578827.453                    21578836.543
 109068660.723 7  84988629.616 7  20755073.672                    20755082.020
 108064627.141 8  84206295.074 8  20564000.742                    20564009.512
 122854539.105 6  95730919.78044  23378426.695                    23378437.426
 128762405.675 6 100334387.396 6  24502677.852                    24502687.723
 117635470.975 7  91664052.312 7  22385287.398                    22385298.969
 109809194.184 8  85565641.39746  20895954.516                    20895960.590
 11  8 19  1 19 30.0000000  0  9G17G30G10G12G05G04G29G25G02
 128569154.103 6 100183830.596 6  24465903.242                    24465914.301
 115808939.929 7  90240807.41745  22037709.797                    22037719.660
 113461841.634 7  88411948.94445  21591058.375                    21591067.207
 109065496.237 7  84986163.797 7  20754471.375                    20754479.773
 108022838.250 8  84173732.346 8  20556048.461                    20556057.574
 122936463.383 6  95794756.82844  23394017.031                    23394027.012
 128682180.266 7 100271874.158 6  24487410.688                    24487422.148
 117569989.015 7  91613027.431 7  22372826.016                    22372838.125
 109833627.892 8  85584680.64646  20900603.859                    20900610.625
 11  8 19  1 20  0.0000000  0  9G17G30G10G12G05G04G29G25G02
 128641009.957 5 100239822.184 6  24479576.328                    24479588.008
 115756729.938 7  90200124.33345  22027774.766                    22027784.324
 113526610.470 7  88462418.16245  21603383.492                    21603392.469
 109062915.032 7  84984152.483 7  20753980.492                    20753988.996
 107981595.841 8  84141595.440 8  20548200.359                    20548209.480
 123018365.006 7  95858576.26244  23409602.297                    23409613.047
 128601882.199 7 100209304.275 6  24472131.289                    24472141.172
 117504958.360 7  91562354.217 7  22360451.930                    22360463.547
 109858223.068 8  85603845.71846  20905284.391                    20905290.863
 11  8 19  1 20 30.0000000  0  9G17G30G10G12G05G04G29G25G02
 128713052.868 5 100295959.512 6  24493285.789                    24493297.527
 115705063.248 7  90159864.57845  22017943.086                    22017952.527
 113591872.324 8  88513271.55045  21615802.461                    21615811.254
 109060917.302 8  84982595.834 7  20753600.477                    20753608.531
 107940901.489 8  84109885.594 8  20540456.531                    20540465.113
 123100243.224 6  95922377.42743  23425182.969                    23425193.531
 128521512.040 6 100146678.236 6  24456836.453                    24456847.477
 117440381.322 7  91512034.473 7  22348163.039                    22348174.652
 109882978.869 8  85623135.95146  20909995.375                    20910001.668
 11  8 19  1 21  0.0000000  0  8G30G10G12G05G04G29G25G02
 115653942.111 7  90120029.94045  22008215.422                    22008224.203
 113657625.289 7  88564507.62245  21628314.883                    21628323.707
 109059504.024 8  84981494.599 7  20753331.406                    20753339.625
 107900756.839 8  84078604.088 8  20532817.133                    20532825.660
 123182097.729 7  95986160.14144  23440759.680                    23440770.012
 128441070.940 6 100083996.903 6  24441529.008                    24441539.824
 117376260.719 7  91462070.400 7  22335961.484                    22335972.770
 109907894.632 8  85642550.83046  20914736.445                    20914742.992
 11  8 19  1 21 30.0000000  0  8G30G10G12G05G04G29G25G02
 115603368.570 8  90080622.01245  21998591.039                    21998600.742
 113723867.451 7  88616124.87945  21640920.320                    21640928.879
 109058675.767 8  84980849.228 7  20753173.727                    20753181.938
 107861163.409 8  84047752.101 8  20525282.883                    20525291.750
 123263927.821 6  96049923.79444  23456331.547                    23456341.973
 128360559.904 6 100021261.063 6  24426209.023                    24426219.203
 117312598.975 7  91412463.874 7  22323847.016                    22323858.395
 109932970.012 8  85662090.08346  20919508.102                    20919515.012
 11  8 19  1 22  0.0000000  0  8G30G10G12G05G04G29G25G02
 115553343.225 7  90041641.24645  21989071.742                    21989081.234
 113790595.066 7  88668120.41245  21653618.500                    21653626.898
 109058431.037 8  84980658.540 7  20753127.031                    20753135.313
 107822120.922 8  84017329.428 8  20517853.195                    20517861.973
 123345731.647 7  96113667.03743  23471897.906                    23471908.172
 128279978.188 6  99958470.157 6  24410873.648                    24410884.727
 117249397.076 7  91363215.677 7  22311819.453                    22311831.324
 109958202.444 8  85681751.71546  20924309.820                    20924316.258
 11  8 19  1 22 30.0000000  0  8G30G10G12G05G04G29G25G02
 115503868.011 7  90003089.15745  21979656.875                    21979666.055
 113857806.003 7  88720492.56745  21666407.977                    21666416.973
 109058770.725 8  84980923.249 7  20753191.695                    20753199.879
 107783631.197 8  83987337.468 8  20510528.875                    20510537.934
 123427508.600 7  96177389.31544  23487460.156                    23487470.012
 128199326.974 6  99895625.080 6  24395527.523                    24395537.090
 117186657.520 7  91314327.733 7  22299880.859                    22299892.426
 109983591.552 8  85701535.43446  20929141.156                    20929147.648
 11  8 19  1 23  0.0000000  0  8G30G10G12G05G04G29G25G02
 115454944.206 8  89964966.73845  21970346.891                    21970356.098
 113925497.367 7  88773239.07745  21679289.406                    21679298.027
 109059694.298 8  84981642.933 7  20753367.547                    20753375.723
 107745694.631 8  83957776.538 8  20503309.867                    20503318.391
 123509257.560 7  96241089.78143  23503015.953                    23503026.629
 128118606.639 6  99832726.136 6  24380166.477                    24380176.910
 117124381.984 7  91265801.377 7  22288030.406                    22288042.230
 110009135.621 8  85721439.91246  20934002.047                    20934008.809
 11  8 19  1 23 30.0000000  0  8G30G10G12G05G04G29G25G02
 115406573.636 7  89927275.40745  21961142.164                    21961151.816
 113993666.724 7  88826358.06945  21692261.516                    21692270.844
 109061202.071 8  84982817.840 8  20753654.555                    20753662.422
 107708312.561 8  83928647.689 8  20496196.023                    20496204.898
 123590977.959 6  96304767.98044  23518566.656                    23518577.336
 128037818.076 6  99769773.983 5  24364792.227                    24364803.027
 117062572.887 7  91217638.466 7  22276268.523                    22276279.664
 110034834.112 8  85741464.71646  20938892.469                    20938899.000
 11  8 19  1 24  0.0000000  0  8G30G10G12G05G04G29G25G02
 115358758.598 7  89890016.97145  21952043.211                    21952052.996
 114062312.348 7  88879848.17445  21705324.336                    21705333.152
 109063295.137 8  84984448.819 7  20754052.633                    20754060.641
 107671486.601 8  83899952.167 8  20489188.109                    20489197.043
 123672669.310 6  96368423.54244  23534112.117                    23534122.582
 127956962.300 6  99706769.538 6  24349405.953                    24349416.414
 117001232.890 7  91169841.094 7  22264595.453                    22264607.207
 110060686.610 7  85761609.51946  20943811.789                    20943818.535
 11  8 19  1 24 30.0000000  0  8G30G10G12G05G04G29G25G02
 115311499.903 7  89853192.05245  21943050.133                    21943059.414
 114131430.834 7  88933706.73645  21718477.047                    21718485.809
 109065971.714 8  84986534.473 7  20754562.008                    20754570.129
 107635217.537 8  83871690.592 8  20482286.648                    20482295.004
 123754330.257 6  96432055.43143  23549651.430                    23549662.301
 127876039.393 6  99643712.756 6  24334006.844                    24334017.594
 116940363.333 8  91122410.302 7  22253012.805                    22253024.039
 110086691.336 7  85781872.95246  20948760.273                    20948766.922
 11  8 19  1 25  0.0000000  0  8G30G10G12G05G04G29G25G02
 115264799.595 7  89816802.23045  21934163.547                    21934173.164
 114201020.166 7  88987932.19245  21731719.281                    21731728.184
 109069232.677 8  84989075.491 7  20755182.633                    20755190.816
 107599506.292 8  83843863.675 8  20475490.852                    20475499.531
 123835960.226 6  96495663.16243  23565185.938                    23565196.133
 127795050.611 6  99580604.655 5  24318595.563                    24318605.672
 116879966.772 7  91075348.081 7  22241519.711                    22241530.477
 110112847.861 8  85802254.66346  20953737.852                    20953744.453
 11  8 19  1 25 30.0000000  0  8G30G10G12G05G04G29G25G02
 115218658.812 8  89780848.40845  21925383.227                    21925392.191
 114271076.892 7  89042521.84845  21745050.625                    21745059.852
 109073077.592 8  84992071.531 7  20755914.211                    20755922.738
 107564353.474 8  83816471.896 8  20468801.289                    20468810.242
 123917558.252 6  96559245.97544  23580713.617                    23580723.863
 127713996.194 6  99517445.397 6  24303171.594                    24303181.629
 116820044.817 8  91028655.680 7  22230116.523                    22230128.023
 110139154.482 8  85822753.32646  20958743.727                    20958750.434
 11  8 19  1 26  0.0000000  0  8G30G10G12G05G04G29G25G02
 115173079.386 8  89745332.00845  21916709.633                    21916718.602
 114341599.173 7  89097474.26345  21758470.836                    21758479.512
 109077506.614 8  84995522.723 7  20756756.781                    20756765.559
 107529760.325 8  83789516.220 8  20462218.688                    20462227.203
 123999123.758 6  96622803.44243  23596234.438                    23596245.863
 127632877.063 6  99454235.742 6  24287734.570                    24287745.262
 116760599.820 8  90982334.938 7  22218804.961                    22218815.883
 110165610.745 8  85843368.60446  20963778.180                    20963784.617
 11  8 19  1 26 30.0000000  0  8G30G10G12G05G04G29G25G02
 115128063.039 7  89710254.37245  21908143.203                    21908152.254
 114412584.729 7  89152787.68645  21771978.664                    21771987.914
 109082520.128 8  84999429.362 8  20757711.180                    20757719.570
 107495727.961 8  83762997.534 8  20455742.297                    20455750.902
 124080656.042 6  96686335.05143  23611749.602                    23611760.266
 127551694.223 6  99390976.437 6  24272286.281                    24272296.758
 116701634.027 8  90936387.593 7  22207584.086                    22207595.328
 110192215.775 8  85864099.80446  20968840.938                    20968847.832
 11  8 19  1 27  0.0000000  0  8G30G10G12G05G04G29G25G02
 115083611.028 8  89675616.47545  21899684.336                    21899694.004
 114484030.625 7  89208459.81945  21785574.523                    21785583.539
 109088117.627 8  85003791.044 7  20758776.133                    20758784.426
 107462257.163 8  83736916.412 8  20449373.234                    20449381.883
 124162154.279 6  96749840.10443  23627259.156                    23627269.066
 127470448.271 6  99327667.977 6  24256825.969                    24256836.438
 116643149.252 8  90890815.074 7  22196454.758                    22196466.555
 110218968.610 8  85884946.17346  20973931.578                    20973938.574
 11  8 19  1 27 30.0000000  0  8G30G10G12G05G04G29G25G02
 115039724.730 7  89641419.38845  21891332.852                    21891342.590
 114555934.127 7  89264488.51345  21799257.211                    21799266.391
 109094298.866 8  85008607.593 7  20759952.258                    20759960.660
 107429348.941 8  83711273.679 8  20443110.672                    20443119.246
 124243617.732 7  96813318.07244  23642760.969                    23642770.871
 127389139.836 6  99264310.814 6  24241353.078                    24241363.742
 116585147.411 7  90845618.874 7  22185417.063                    22185428.297
 110245868.128 8  85905906.85246  20979050.539                    20979057.555
 11  8 19  1 28  0.0000000  0  8G30G10G12G05G04G29G25G02
 114996406.055 8  89607664.61845  21883089.500                    21883099.008
 114628293.061 7  89320872.09145  21813026.484                    21813035.367
 109101063.948 8  85013879.087 7  20761240.000                    20761247.871
 107397004.294 8  83686070.080 8  20436955.727                    20436964.340
 124325045.723 7  96876768.39443  23658256.016                    23658266.184
 127307769.950 7  99200905.757 6  24225868.625                    24225879.578
 116527630.917 8  90800800.843 7  22174472.109                    22174483.262
 110272913.714 8  85926981.33746  20984197.258                    20984203.730
 11  8 19  1 28 30.0000000  0  8G30G10G12G05G04G29G25G02
 114953655.851 7  89574352.78345  21874954.516                    21874963.859
 114701104.135 7  89377607.99945  21826882.336                    21826891.023
 109108412.241 8  85019605.020 7  20762638.063                    20762646.434
 107365223.465 8  83661305.833 8  20430908.148                    20430916.551
 124406437.402 6  96940190.43744  23673744.328                    23673754.879
 127226339.080 6  99137453.195 6  24210373.180                    24210384.238
 116470601.207 8  90756362.146 7  22163619.789                    22163630.941
 110300103.919 7  85948168.51846  20989371.555                    20989378.086
 11  8 19  1 29  0.0000000  0  8G30G10G12G05G04G29G25G02
 114911476.031 7  89541485.43045  21866927.828                    21866937.676
 114774365.368 7  89434694.66645  21840823.469                    21840832.914
 109116344.305 8  85025785.844 7  20764147.750                    20764155.719
 107334007.775 8  83636981.949 8  20424967.758                    20424976.422
 124487792.300 7  97003583.80944  23689226.398                    23689235.988
 127144848.162 7  99073953.854 6  24194866.156                    24194876.137
 116414060.646 8  90712304.601 7  22152860.227                    22152871.613
 110327438.198 8  85969467.96746  20994572.891                    20994579.637
 11  8 19  1 29 30.0000000  0  8G30G10G12G05G04G29G25G02
 114869867.577 7  89509063.27845  21859009.781                    21859019.484
 114848073.573 7  89492129.62145  21854849.484                    21854858.727
 109124859.065 8  85032420.706 7  20765768.078                    20765776.070
 107303357.666 8  83613098.788 8  20419135.047                    20419143.566
 124569109.440 7  97066947.75844  23704699.805                    23704710.492
 127063297.804 6  99010408.182 6  24179346.766                    24179357.504
 116358010.877 8  90668629.487 7  22142194.438                    22142205.863
 110354915.285 8  85990878.69546  20999801.602                    20999808.699
 11  8 19  1 30  0.0000000  0  8G30G10G12G05G04G29G25G02
 114828832.036 7  89477087.54745  21851200.922                    21851210.902
 114922226.366 7  89549910.99645  21868960.641                    21868969.344
 109133956.700 8  85039509.772 7  20767498.820                    20767507.234
 107273274.192 8  83589657.143 8  20413410.727                    20413418.941
 124650388.214 7  97130281.79744  23720167.164                    23720177.148
 126981689.238 6  98946817.153 6  24163817.961                    24163827.207
 116302453.979 8  90625338.432 7  22131622.297                    22131633.434
 110382534.590 8  86012400.24046  21005057.500                    21005064.102
 11  8 19  1 30 30.0000000  0  8G30G10G12G05G04G29G25G02
 114788371.060 7  89445559.53445  21843501.305                    21843511.293
 114996821.544 7  89608037.08845  21883155.375                    21883164.516
 109143636.812 8  85047052.697 7  20769341.273                    20769349.438
 107243758.143 8  83566657.654 8  20407794.063                    20407802.434
 124731628.365 7  97193585.75944  23735626.164                    23735636.750
 126900023.397 6  98883181.494 6  24148276.914                    24148287.383
 116247392.203 8  90582433.176 7  22121144.484                    22121155.906
 110410295.653 8  86034032.24046  21010340.133                    21010346.750
 11  8 19  1 31  0.0000000  0  8G30G10G12G05G04G29G25G02
 114748485.601 7  89414479.96845  21835911.469                    21835921.004
 115071856.075 7  89666505.55545  21897434.570                    21897443.152
 109153899.031 8  85055049.228 7  20771294.000                    20771302.383
 107214810.264 8  83544100.900 8  20402285.633                    20402293.949
 124812828.777 7  97256858.79144  23751078.109                    23751088.441
 126818300.845 6  98819501.601 6  24132725.164                    24132736.152
 116192827.094 8  90539914.953 7  22110760.844                    22110772.258
 110438197.104 8  86055773.64346  21015649.586                    21015656.254
 11  8 19  1 31 30.0000000  0  8G30G10G12G05G04G29G25G02
 114709176.766 7  89383849.71345  21828431.523                    21828441.516
 115147327.010 7  89725314.06245  21911795.875                    21911804.684
 109164742.871 8  85063498.962 7  20773357.586                    20773365.512
 107186430.765 8  83521987.039 8  20396884.766                    20396893.555
 124893988.674 7  97320100.22544  23766522.773                    23766532.641
 126736522.267 6  98755778.041 5  24117163.938                    24117173.398
 116138760.322 8  90497785.005 7  22100472.703                    22100483.574
 110466237.714 8  86077623.47446  21020985.781                    21020992.148
 11  8 19  1 32  0.0000000  0  8G30G10G12G05G04G29G25G02
 114670445.917 7  89353669.84345  21821061.289                    21821071.266
 115223231.697 7  89784460.55045  21926239.734                    21926249.203
 109176167.832 8  85072401.526 7  20775531.352                    20775539.676
 107158620.423 8  83500316.679 8  20391592.836                    20391601.172
 124975107.480 7  97383309.63143  23781958.258                    23781969.660
 126654688.269 6  98692011.335 6  24101591.375                    24101601.133
 116085193.818 8  90456044.896 7  22090279.125                    22090290.285
 110494416.568 8  86099581.02446  21026347.625                    21026354.457
 11  8 19  1 32 30.0000000  0  8G30G10G12G05G04G29G25G02
 114632294.484 8  89323941.45145  21813801.422                    21813810.742
 115299567.637 7  89843943.08145  21940766.031                    21940775.082
 109188173.941 8  85081756.920 8  20777816.180                    20777824.211
 107131380.076 8  83479090.462 8  20386408.852                    20386417.418
 125056184.522 7  97446486.52243  23797387.063                    23797397.465
 126572800.217 6  98628202.509 5  24086008.523                    24086018.324
 116032129.606 8  90414696.181 7  22080180.977                    22080192.543
 110522733.180 8  86121645.93046  21031736.500                    21031743.031
 11  8 19  1 33  0.0000000  0  8G30G10G12G05G04G29G25G02
 114594723.204 7  89294665.12545  21806652.000                    21806661.430
 115376331.664 7  89903759.18245  21955374.086                    21955383.094
 109200760.125 8  85091564.330 7  20780211.766                    20780219.711
 107104709.975 8  83458308.596 8  20381333.664                    20381342.320
 125137218.922 6  97509630.19143  23812807.820                    23812817.637
 126490858.589 7  98564351.910 6  24070414.797                    24070425.680
 115979569.115 8  90373739.978 7  22070179.234                    22070190.363
 110551185.952 8  86143816.93446  21037150.789                    21037156.930
 11  8 19  1 33 30.0000000  0  8G30G10G12G05G04G29G25G02
 114557733.584 7  89265842.03745  21799612.883                    21799622.391
 115453521.337 7  89963906.95545  21970062.898                    21970071.781
 109213926.223 8  85101823.627 7  20782717.180                    20782725.543
 107078610.990 8  83437971.754 8  20376367.305                    20376375.734
 125218210.212 6  97572740.26943  23828220.008                    23828229.434
 126408864.260 6  98500460.276 6  24054812.203                    24054822.523
 115927514.415 8  90333177.873 7  22060273.227                    22060284.582
 110579774.459 8  86166093.70446  21042590.984                    21042597.621
 11  8 19  1 34  0.0000000  0  8G30G10G12G05G04G29G25G02
 114521327.843 8  89237473.92445  21792684.945                    21792694.691
 115531135.005 7  90024385.12845  21984831.859                    21984841.023
 109227672.781 8  85112535.227 7  20785332.633                    20785340.902
 107053084.614 8  83418081.099 8  20371510.000                    20371518.285
 125299158.946 6  97635817.16943  23843623.625                    23843634.820
 126326819.069 6  98436529.047 6  24039199.602                    24039210.563
 115875968.362 8  90293012.137 7  22050464.250                    22050475.926
 110608499.393 8  86188476.78446  21048056.977                    21048063.473
 11  8 19  1 34 30.0000000  0  8G30G10G12G05G04G29G25G02
 114485505.577 8  89209560.47345  21785868.953                    21785878.105
 115609168.414 7  90085190.37845  21999681.219                    21999690.391
 109241997.708 8  85123697.500 7  20788058.805                    20788067.125
 107028130.075 8  83398636.029 8  20366761.016                    20366769.301
 125380063.154 6  97698859.39743  23859018.859                    23859029.980
 126244722.705 6  98372557.941 6  24023576.328                    24023587.184
 115824931.190 8  90253242.926 7  22040752.422                    22040763.863
 110637357.696 8  86210963.78846  21053548.109                    21053554.949
 11  8 19  1 35  0.0000000  0  8G30G10G12G05G04G29G25G02
 114450268.351 8  89182102.90645  21779163.109                    21779172.770
 115687619.550 7  90146321.12045  22014609.961                    22014618.953
 109256900.836 8  85135310.317 7  20790894.672                    20790902.891
 107003748.192 8  83379637.174 8  20362121.234                    20362129.797
 125460922.474 6  97761866.59643  23874406.297                    23874417.004
 126162576.445 6  98308547.991 6  24007944.781                    24007955.910
 115774405.096 8  90213871.970 7  22031137.422                    22031149.121
 110666349.108 8  86233554.50446  21059065.367                    21059071.316
 11  8 19  1 35 30.0000000  0  8G30G10G12G05G04G29G25G02
 114415617.469 7  89155102.23245  21772569.250                    21772578.473
 115766485.358 7  90207774.97445  22029617.875                    22029626.895
 109272382.211 8  85147373.729 8  20793840.313                    20793848.883
 106979939.377 8  83361084.876 8  20357590.453                    20357598.836
 125541736.381 6  97824838.47943  23889784.422                    23889795.465
 126080381.489 6  98244500.090 6  23992303.516                    23992314.293
 115724391.925 8  90174900.664 7  22021620.430                    22021632.047
 110695472.964 8  86256248.42646  21064607.383                    21064613.941
 11  8 19  1 36  0.0000000  0  8G30G10G12G05G04G29G25G02
 114381554.568 7  89128559.72345  21766087.289                    21766096.570
 115845763.865 7  90269550.40545  22044704.289                    22044712.973
 109288441.279 8  85159887.289 7  20796896.742                    20796905.340
 106956704.972 8  83342980.171 8  20353169.289                    20353177.660
 125622504.907 6  97887774.89643  23905154.563                    23905165.773
 125998139.289 6  98180415.352 6  23976653.195                    23976663.848
 115674894.105 8  90136330.965 7  22012201.398                    22012212.887
 110724729.437 8  86279045.69246  21070174.625                    21070181.195
 11  8 19  1 36 30.0000000  0  8G30G10G12G05G04G29G25G02
 114348079.861 7  89102475.55345  21759717.297                    21759726.527
 115925451.475 7  90331644.63345  22059867.898                    22059877.008
 109305077.059 8  85172850.232 7  20800062.539                    20800070.910
 106934044.663 8  83325322.810 8  20348857.211                    20348865.516
 125703226.734 6  97950675.02843  23920515.547                    23920525.805
 125915849.990 6  98116293.928 6  23960993.773                    23961004.805
 115625912.399 8  90098163.415 7  22002880.742                    22002892.016
 110754116.466 8  86301944.68446  21075767.016                    21075773.773
 11  8 19  1 37  0.0000000  0  8G30G10G12G05G04G29G25G02
 114315194.071 7  89076850.28545  21753459.398                    21753468.684
 116005545.376 7  90394055.44745  22075109.570                    22075118.438
 109322288.152 8  85186261.468 7  20803337.773                    20803346.008
 106911958.462 8  83308112.809 8  20344654.195                    20344662.633
 125783901.013 6  98013538.06243  23935867.008                    23935878.180
 125833514.322 7  98052136.379 6  23945326.563                    23945337.176
 115577448.328 8  90060399.208 7  21993658.016                    21993669.680
 110783632.737 8  86324944.38446  21081383.711                    21081390.191
 11  8 19  1 37 30.0000000  0  8G30G10G12G05G04G29G25G02
 114282898.721 7  89051685.09645  21747313.805                    21747323.098
 116086042.885 7  90456780.77645  22090427.508                    22090436.328
 109340074.943 8  85200121.306 7  20806722.375                    20806730.238
 106890447.145 8  83291350.763 8  20340560.977                    20340568.824
 125864527.794 6  98076364.14043  23951209.078                    23951220.246
 125751133.437 7  97987943.530 6  23929649.281                    23929659.801
 115529503.956 8  90023039.971 7  21984534.313                    21984545.656
 110813278.287 8  86348044.81246  21087025.297                    21087031.555
 11  8 19  1 38  0.0000000  0  8G30G10G12G05G04G29G25G02
 114251194.360 7  89026980.43545  21741280.203                    21741289.836
 116166940.833 7  90519818.13945  22105822.133                    22105830.898
 109358436.149 8  85214428.740 7  20810216.102                    20810224.699
 106869511.020 8  83275036.916 8  20336577.070                    20336585.297
 125945106.000 6  98139152.33843  23966543.492                    23966554.406
 125668708.358 7  97923716.250 6  23913965.211                    23913975.344
 115482080.581 8  89986086.720 7  21975510.023                    21975521.551
 110843051.673 8  86371244.84846  21092690.656                    21092697.520
 11  8 19  1 38 30.0000000  0  8G30G10G12G05G04G29G25G02
 114220082.286 7  89002737.29645  21735360.094                    21735369.629
 116248236.904 7  90583165.72145  22121291.805                    22121300.992
 109377371.147 8  85229183.287 7  20813819.680                    20813828.145
 106849150.521 8  83259171.620 8  20332702.086                    20332710.684
 126025635.612 6  98201902.61243  23981868.602                    23981878.828
 125586240.060 7  97859455.264 6  23898271.766                    23898281.410
 115435180.165 8  89949540.960 7  21966585.094                    21966596.879
 110872952.660 8  86394544.31046  21098380.438                    21098387.309
 11  8 19  1 39  0.0000000  0  8G30G10G12G05G04G29G25G02
 114189563.441 8  88978956.41445  21729552.656                    21729561.141
 116329928.386 7  90646821.41745  22136837.516                    22136845.965
 109396879.349 8  85244384.478 7  20817531.945                    20817540.063
 106829365.825 8  83243755.003 8  20328937.422                    20328945.445
 126106115.913 6  98264614.50343  23997183.258                    23997193.297
 125503729.692 7  97795161.485 6  23882570.297                    23882580.020
 115388804.373 8  89913404.002 7  21957760.180                    21957771.934
 110902980.321 8  86417942.47346  21104094.750                    21104101.988
 11  8 19  1 39 30.0000000  0  8G30G10G12G05G04G29G25G02
 114159638.933 8  88955638.64745  21723857.773                    21723867.176
 116412012.759 7  90710783.25545  22152457.266                    22152466.566
 109416960.097 8  85260031.815 7  20821352.938                    20821361.137
 106810157.484 8  83228787.491 8  20325282.188                    20325290.391
 126186546.685 7  98327287.80644  24012488.914                    24012499.801
 125421178.495 7  97730835.882 6  23866860.992                    23866871.070
 115342954.973 8  89877677.214 7  21949035.539                    21949046.742
 110933134.284 8  86441439.06346  21109832.922                    21109839.492
 11  8 19  1 40  0.0000000  0  8G30G10G12G05G04G29G25G02
 114130309.221 7  88932784.35245  21718276.758                    21718286.258
 116494486.831 7  90775048.75545  22168152.031                    22168160.992
 109437612.423 8  85276124.546 7  20825282.898                    20825291.223
 106791525.400 8  83214269.008 8  20321736.563                    20321744.910
 126266927.085 7  98389921.87544  24027784.820                    24027795.035
 125338586.978 7  97666478.841 6  23851144.695                    23851154.246
 115297633.153 8  89842361.545 7  21940411.016                    21940422.238
 110963413.134 8  86465032.95746  21115594.859                    21115601.398
 11  8 19  1 40 30.0000000  0  8G30G10G12G05G04G29G25G02
 114101575.085 7  88910394.14945  21712808.633                    21712818.246
 116577347.740 7  90839615.70245  22183919.797                    22183928.703
 109458835.404 8  85292661.931 7  20829321.586                    20829330.109
 106773469.992 8  83200199.896 8  20318300.664                    20318309.223
 126347256.615 7  98452516.29743  24043070.742                    24043081.199
 125255955.784 6  97602090.872 6  23835419.914                    23835430.098
 115252840.379 8  89807458.113 7  21931887.070                    21931898.355
 110993816.028 8  86488723.51946  21121380.281                    21121387.207
 11  8 19  1 41  0.0000000  0  8G30G10G12G05G04G29G25G02
 114073437.607 7  88888468.87045  21707454.156                    21707463.473
 116660592.909 7  90904482.07844  22199760.563                    22199769.297
 109480628.471 8  85309643.533 7  20833468.438                    20833476.668
 106755991.629 8  83186580.418 8  20314974.602                    20314982.801
 126427535.028 6  98515070.88043  24058346.945                    24058357.563
 125173286.907 6  97537673.539 6  23819688.930                    23819699.234
 115208578.444 8  89772968.325 7  21923464.273                    21923475.512
 111024342.779 8  86512510.58746  21127189.516                    21127195.969
 11  8 19  1 41 30.0000000  0  8G30G10G12G05G04G29G25G02
 114045897.642 7  88867009.17545  21702213.328                    21702222.965
 116744219.536 7  90969645.67644  22215674.398                    22215683.223
 109502990.759 8  85327068.699 7  20837724.070                    20837732.297
 106739090.757 8  83173410.935 8  20311758.328                    20311766.719
 126507761.767 6  98577585.21543  24073613.719                    24073624.234
 125090581.402 6  97473227.708 6  23803950.094                    23803960.766
 115164848.980 8  89738893.451 7  21915142.594                    21915153.914
 111054992.572 8  86536393.53646  21133022.438                    21133028.988
 11  8 19  1 42  0.0000000  0  8G30G10G12G05G04G29G25G02
 114018956.160 7  88846015.83545  21697086.641                    21697095.813
 116828225.058 7  91035104.51845  22231659.859                    22231669.332
 109525921.484 8  85344936.798 7  20842087.680                    20842096.000
 106722767.420 8  83160691.478 8  20308651.977                    20308660.406
 126587936.597 6  98640059.12143  24088869.688                    24088880.340
 125007840.100 6  97408753.965 6  23788205.508                    23788216.027
 115121653.653 8  89705234.787 7  21906922.984                    21906934.273
 111085764.945 8  86560371.99446  21138877.734                    21138884.141
 11  8 19  1 42 30.0000000  0  8G30G10G12G05G04G29G25G02
 113992612.996 7  88825488.71545  21692073.930                    21692083.219
 116912605.686 7  91100855.64845  22247717.102                    22247726.246
 109549418.841 8  85363246.426 7  20846558.805                    20846567.633
 106707020.951 8  83148421.528 8  20305656.055                    20305664.121
 126668058.384 6  98702491.69843  24104116.727                    24104127.520
 124925063.562 6  97344252.806 6  23772453.617                    23772464.375
 115078993.004 8  89671992.753 7  21898805.078                    21898815.992
 111116657.847 8  86584444.37946  21144756.758                    21144763.039
 11  8 19  1 43  0.0000000  0  8G30G10G12G05G04G29G25G02
 113966868.972 7  88805428.44445  21687175.047                    21687184.188
 116997358.703 7  91166896.96845  22263845.008                    22263854.059
 109573482.255 8  85381997.140 7  20851137.859                    20851146.391
 106691851.533 8  83136601.228 8  20302768.938                    20302777.629
 126748126.711 6  98764882.58043  24119353.625                    24119364.363
 124842252.907 7  97279725.048 6  23756695.328                    23756706.063
 115036868.655 8  89639168.616 7  21890789.055                    21890800.148
 111147670.853 8  86608610.34846  21150658.023                    21150664.586
 11  8 19  1 43 30.0000000  0  8G30G10G12G05G04G29G25G02
 113941725.632 7  88785836.24545  21682390.117                    21682400.035
 117082482.007 7  91233226.82445  22280043.539                    22280052.938
 109598111.374 8  85401188.665 7  20855824.953                    20855833.000
 106677260.008 8  83125231.231 8  20299992.367                    20300000.777
 126828141.938 7  98827232.12344  24134580.328                    24134590.691
 124759409.930 7  97215172.073 6  23740931.023                    23740941.527
 114995282.785 8  89606764.071 7  21882875.430                    21882886.719
 111178804.458 8  86632870.29746  21156582.148                    21156588.902
 11  8 19  1 44  0.0000000  0  8G30G10G12G05G04G29G25G02
 113917182.831 8  88766711.98545  21677719.734                    21677729.473
 117167972.074 7  91299842.47144  22296311.813                    22296321.125
 109623304.589 8  85420819.740 7  20860619.055                    20860627.363
 106663245.781 8  83114311.078 8  20297325.477                    20297334.098
 126908102.784 7  98889539.27144  24149796.477                    24149807.121
 124676534.943 7  97150594.179 6  23725160.656                    23725170.680
 114954236.056 8  89574779.649 7  21875064.195                    21875075.707
 111210056.706 8  86657222.69546  21162529.422                    21162536.195
 11  8 19  1 44 30.0000000  0  8G30G10G12G05G04G29G25G02
 113893241.405 7  88748056.32845  21673164.094                    21673173.113
 117253826.230 7  91366741.80545  22312649.375                    22312658.340
 109649060.764 8  85440889.488 7  20865520.445                    20865528.586
 106649808.894 8  83103840.792 8  20294768.711                    20294777.113
 126988009.180 6  98951804.00843  24165002.047                    24165012.922
 124593629.403 7  97085992.483 6  23709383.969                    23709394.484
 114913730.057 8  89543216.544 7  21867356.586                    21867367.754
 111241427.150 8  86681667.20346  21168499.234                    21168505.727
 11  8 19  1 45  0.0000000  0  8G30G10G12G05G04G29G25G02
 113869901.915 8  88729869.71045  21668722.367                    21668732.020
 117340041.600 7  91433922.60645  22329055.555                    22329064.715
 109675379.009 8  85461397.215 7  20870528.602                    20870536.699
 106636949.650 8  83093820.621 8  20292321.734                    20292329.906
 127067860.562 6  99014025.83143  24180197.094                    24180208.082
 124510694.482 7  97021367.904 6  23693601.672                    23693612.066
 114873766.067 8  89512075.782 7  21859751.547                    21859762.621
 111272915.059 8  86706203.23946  21174491.203                    21174497.625
 11  8 19  1 45 30.0000000  0  8G30G10G12G05G04G29G25G02
 113847165.383 8  88712152.93345  21664395.664                    21664405.434
 117426616.001 7  91501383.17944  22345530.305                    22345539.223
 109702258.917 8  85482342.603 7  20875643.453                    20875651.879
 106624668.550 8  83084250.943 8  20289984.648                    20289992.809
 127147656.839 6  99076204.72043  24195381.320                    24195392.270
 124427731.655 7  96956721.608 6  23677814.398                    23677825.129
 114834345.986 8  89481358.852 7  21852250.281                    21852261.297
 111304520.419 8  86730830.79746  21180505.648                    21180512.047
 11  8 19  1 46  0.0000000  0  8G30G10G12G05G04G29G25G02
 113825031.893 8  88694906.05545  21660184.070                    21660193.406
 117513546.084 7  91569120.89145  22362072.469                    22362081.543
 109729698.603 8  85503724.182 7  20880865.336                    20880873.180
 106612964.975 8  83075131.298 8  20287757.523                    20287765.844
 127227397.423 6  99138340.24743  24210555.375                    24210566.465
 124344741.720 7  96892054.196 6  23662021.867                    23662032.242
 114795470.610 8  89451066.358 7  21844852.313                    21844863.809
 111336241.855 8  86755548.80846  21186541.992                    21186548.473
 11  8 19  1 46 30.0000000  0  8G30G10G12G05G04G29G25G02
 113803501.801 8  88678129.35445  21656086.945                    21656096.398
 117600828.579 7  91637133.20944  22378681.766                    22378690.738
 109757696.935 8  85525541.068 7  20886193.094                    20886201.301
 106601838.666 8  83066461.466 8  20285639.945                    20285648.238
 127307081.653 6  99200431.78442  24225717.750                    24225730.012
 124261725.423 7  96827366.211 6  23646224.320                    23646234.680
 114757141.089 8  89421199.209 7  21837558.141                    21837569.727
 111368078.299 8  86780356.42946  21192600.117                    21192606.555
 11  8 19  1 47  0.0000000  0  8G30G10G12G05G04G29G25G02
 113782576.419 8  88661823.86945  21652105.336                    21652114.227
 117688461.565 7  91705418.64244  22395357.898                    22395366.672
 109786253.570 8  85547792.993 7  20891627.117                    20891635.227
 106591289.912 8  83058241.673 8  20283632.633                    20283641.316
 127386709.671 6  99262479.64142  24240871.289                    24240882.129
 124178684.726 6  96762659.271 6  23630421.852                    23630432.430
 114719359.455 8  89391758.985 7  21830368.766                    21830379.754
 111400030.341 8  86805254.13446  21198680.414                    21198686.918
 11  8 19  1 47 30.0000000  0  8G30G10G12G05G04G29G25G02
 113762255.332 8  88645989.26845  21648238.328                    21648247.629
 117776441.254 7  91773974.22944  22412099.852                    22412109.027
 109815366.354 7  85570478.293 7  20897167.211                    20897175.367
 106581318.096 8  83050471.452 8  20281735.164                    20281743.336
 127466280.844 6  99324483.06442  24256013.672                    24256024.652
 124095620.074 7  96697933.618 6  23614615.672                    23614625.633
 114682126.104 8  89362745.998 7  21823283.656                    21823295.051
 111432096.222 7  86830240.54246  21204782.250                    21204788.586
 11  8 19  1 48  0.0000000  0  9G26G30G10G12G05G04G29G25G02
 130463617.19615 101660065.74953  24826416.109                    24826427.668
 113742539.412 8  88630626.21845  21644486.195                    21644495.754
 117864765.147 7  91842798.01344  22428907.133                    22428916.305
 109845034.846 8  85593596.596 7  20902812.625                    20902820.965
 106571923.601 8  83043151.088 8  20279947.570                    20279955.855
 127545794.618 6  99386441.86842  24271144.430                    24271155.512
 124012533.117 7  96633190.614 6  23598804.852                    23598814.652
 114645442.618 8  89334161.463 7  21816302.844                    21816314.191
 111464275.691 8  86855315.46346  21210905.609                    21210912.699
 11  8 19  1 48 30.0000000  0  9G26G30G10G12G05G04G29G25G02
 130371608.186 6 101588370.53143  24808908.109                    24808918.695
 113723429.675 8  88615735.52645  21640850.375                    21640859.301
 117953431.131 7  91911888.36144  22445779.586                    22445788.930
 109875258.066 8  85617147.162 7  20908564.352                    20908572.172
 106563107.058 8  83036281.084 8  20278269.656                    20278277.469
 127625251.592 5  99448356.34342  24286265.047                    24286275.891
 123929425.767 7  96568431.695 6  23582989.742                    23582999.762
 114609310.980 8  89306006.956 7  21809426.867                    21809438.668
 111496568.585 7  86880478.77346  21217051.016                    21217057.676
 11  8 19  1 49  0.0000000  0  9G26G30G10G12G05G04G29G25G02
 130279464.607 6 101516570.45643  24791373.516                    24791384.688
 113704925.797 8  88601316.95045  21637328.578                    21637338.184
 118042435.522 6  91981242.41444  22462716.461                    22462725.875
 109906034.344 8  85641128.675 7  20914420.609                    20914428.617
 106554867.081 8  83029860.341 8  20276701.555                    20276709.922
 127704650.768 6  99510225.85042  24301374.063                    24301384.977
 123846298.123 7  96503656.988 6  23567170.711                    23567180.934
 114573731.611 8  89278282.787 7  21802656.859                    21802667.938
 111528973.791 8  86905729.59446  21223217.445                    21223223.570
 11  8 19  1 49 30.0000000  0  9G26G30G10G12G05G04G29G25G02
 130187188.940 6 101444667.46443  24773813.672                    24773824.945
 113687028.040 8  88587370.66345  21633922.727                    21633932.035
 118131775.278 7  92050857.78644  22479717.602                    22479726.742
 109937361.929 8  85665539.782 7  20920382.133                    20920390.465
 106547203.600 8  83023888.825 8  20275243.375                    20275252.273
 127783991.649 6  99572049.78642  24316471.469                    24316482.141
 123763151.674 7  96438867.609 6  23551348.719                    23551358.973
 114538705.558 8  89250989.781 7  21795991.617                    21796002.645
 111561490.406 8  86931067.23946  21229405.203                    21229411.586
 11  8 19  1 50  0.0000000  0  9G26G30G10G12G05G04G29G25G02
 130094784.001 6 101372663.72943  24756229.570                    24756241.309
 113669736.506 8  88573896.75845  21630632.414                    21630641.715
 118221447.203 7  92120731.96644  22496781.539                    22496790.980
 109969239.444 8  85690379.402 7  20926448.617                    20926456.754
 106540115.950 8  83018365.999 8  20273894.539                    20273902.520
 127863273.683 6  99633827.96642  24331559.109                    24331569.184
 123679987.204 7  96374064.191 6  23535523.266                    23535532.766
 114504233.768 8  89224128.660 7  21789431.891                    21789443.207
 111594117.683 8  86956491.10446  21235613.367                    21235620.270
 11  8 19  1 50 30.0000000  0  9G26G30G10G12G05G04G29G25G02
 130002253.153 6 101300561.88043  24738621.688                    24738632.953
 113653051.770 8  88560895.70645  21627457.438                    21627466.719
 118311448.741 7  92190863.00644  22513908.813                    22513917.516
 110001666.152 8  85715646.966 7  20932619.039                    20932627.016
 106533604.427 8  83013292.106 8  20272655.430                    20272663.465
 127942496.819 6  99695560.32243  24346635.539                    24346645.461
 123596806.089 7  96309247.820 6  23519693.945                    23519704.535
 114470317.622 8  89197700.516 7  21782977.938                    21782988.723
 111626855.237 8  86982000.89946  21241843.359                    21241850.395
 11  8 19  1 51  0.0000000  0  9G26G30G10G12G05G04G29G25G02
 129909598.686 6 101228363.72243  24720991.039                    24721001.324
 113636973.835 8  88548367.47345  21624397.578                    21624407.234
 118401776.806 7  92261248.48844  22531097.180                    22531106.633
 110034640.167 8  85741340.995 7  20938893.719                    20938901.551
 106527668.269 8  83008666.545 8  20271525.938                    20271534.070
 128021660.327 6  99757246.14743  24361699.086                    24361709.637
 123513609.760 7  96244419.571 6  23503862.148                    23503872.195
 114436957.895 8  89171705.970 7  21776629.375                    21776640.766
 111659701.930 8  87007595.73846  21248093.992                    21248100.789
 11  8 19  1 51 30.0000000  0  9G26G30G10G12G05G04G29G25G02
 129816823.679 6 101156071.64643  24703335.609                    24703346.145
 113621503.047 8  88536312.34545  21621453.984                    21621463.102
 118492428.916 7  92331886.47644  22548347.906                    22548357.004
 110068160.622 8  85767460.826 7  20945272.313                    20945280.586
 106522307.423 8  83004489.286 8  20270505.898                    20270513.770
 128100764.312 7  99818885.70643  24376752.914                    24376762.836
 123430399.430 6  96179580.417 6  23488028.211                    23488037.984
 114404155.888 8  89146145.995 7  21770387.484                    21770399.246
 111692657.775 8  87033275.62746  21254365.344                    21254371.730
 11  8 19  1 52  0.0000000  0  9G26G30G10G12G05G04G29G25G02
 129723931.096 6 101083687.94843  24685658.492                    24685669.242
 113606639.560 8  88524730.44145  21618625.594                    21618634.578
 118583402.006 6  92402774.56344  22565659.273                    22565669.074
 110102225.649 8  85794004.995 7  20951754.938                    20951762.980
 106517521.428 8  83000759.948 8  20269594.805                    20269602.895
 128179808.229 7  99880478.41443  24391793.711                    24391804.336
 123347176.318 6  96114731.306 6  23472190.688                    23472200.930
 114371912.494 8  89121021.318 7  21764251.633                    21764262.980
 111725721.730 8  87059039.75946  21260657.320                    21260663.805
 11  8 19  1 52 30.0000000  0  9G26G30G10G12G05G04G29G25G02
 129630923.727 6 101011214.81543  24667959.680                    24667970.602
 113592383.663 8  88513621.99145  21615912.117                    21615921.496
 118674693.319 7  92473910.61144  22583031.414                    22583040.840
 110136834.230 8  85820972.711 7  20958340.414                    20958348.613
 106513310.020 8  82997478.348 8  20268793.445                    20268801.809
 128258792.016 6  99942024.27243  24406823.531                    24406833.844
 123263941.751 7  96049873.211 6  23456351.672                    23456361.461
 114340228.915 7  89096332.848 7  21758222.430                    21758233.883
 111758893.349 8  87084887.79346  21266969.633                    21266975.992
 11  8 19  1 53  0.0000000  0  9G26G30G10G12G05G04G29G25G02
 129537804.343 6 100938654.39743  24650239.367                    24650250.188
 113578735.483 8  88502987.07645  21613315.688                    21613324.387
 118766299.829 7  92545292.27244  22600463.836                    22600472.746
 110171984.603 7  85848362.602 7  20965029.328                    20965037.879
 106509672.605 8  82994644.010 8  20268101.273                    20268109.566
 128337715.300 6 100003522.97243  24421842.031                    24421852.777
 123180696.923 7  95985007.157 6  23440511.320                    23440520.500
 114309105.951 7  89072081.230 7  21752299.852                    21752311.152
 111792171.924 7  87110819.17646  21273301.977                    21273308.629
 11  8 19  1 53 30.0000000  0  9G26G30G10G12G05G04G29G25G02
 129444576.236 6 100866009.24843  24632498.922                    24632509.902
 113565695.037 8  88492825.71245  21610834.008                    21610842.730
 118858218.396 6  92616917.11844  22617955.539                    22617964.578
 110207675.425 8  85876173.622 7  20971821.242                    20971829.094
 106506608.677 8  82992256.545 8  20267518.164                    20267526.453
 128416577.531 6 100064974.07343  24436849.156                    24436860.047
 123097443.049 7  95920134.029 6  23424668.469                    23424677.625
 114278544.625 8  89048267.252 7  21746483.875                    21746495.324
 111825556.944 7  87136833.49646  21279655.063                    21279661.754
 11  8 19  1 54  0.0000000  0  9G26G30G10G12G05G04G29G25G02
 129351242.216 6 100793281.57543  24614738.031                    24614748.426
 113553262.409 8  88483137.97845  21608467.883                    21608477.336
 118950446.351 6  92688783.05444  22635505.875                    22635514.770
 110243905.212 7  85904404.621 7  20978715.727                    20978724.004
 106504118.008 7  82990315.782 8  20267044.383                    20267052.738
 128495378.720 6 100126377.57743  24451844.328                    24451855.383
 123014181.478 7  95855254.902 6  23408823.641                    23408833.789
 114248545.921 8  89024891.664 7  21740775.555                    21740786.875
 111859047.730 7  87162930.21746  21286028.164                    21286034.688
 11  8 19  1 54 30.0000000  0  9G26G30G10G12G05G04G29G25G02
 129257805.112 6 100720473.55943  24596956.961                    24596967.820
 113541437.935 8  88473924.12145  21606217.859                    21606226.629
 119042980.662 6  92760887.68544  22653113.922                    22653123.543
 110280672.865 8  85933054.725 7  20985712.000                    20985720.184
 106502200.231 8  82988821.431 8  20266679.398                    20266687.496
 128574118.675 6 100187733.35743  24466828.328                    24466838.473
 122930913.678 7  95790370.922 6  23392979.008                    23392988.199
 114219110.783 8  89001955.227 7  21735174.070                    21735185.289
 111892644.049 7  87189109.18446  21292421.406                    21292427.906
 11  8 19  1 55  0.0000000  0  9G26G30G10G12G05G04G29G25G02
 129164268.122 6 100647587.71343  24579157.945                    24579168.254
 113530221.611 8  88465184.14845  21604083.344                    21604092.988
 119135818.774 6  92833229.05844  22670781.180                    22670790.250
 110317976.462 7  85962122.453 7  20992810.969                    20992818.836
 106500855.158 8  82987773.330 8  20266423.242                    20266431.672
 128652797.183 6 100249041.30743  24481800.016                    24481810.738
 122847640.995 7  95725483.131 6  23377132.828                    23377142.621
 114190240.277 8  88979458.753 7  21729680.641                    21729691.613
 111926345.161 7  87215369.80246  21298834.633                    21298841.090
 11  8 19  1 55 30.0000000  0  9G26G30G10G12G05G04G29G25G02
 129070634.003 6 100574626.18043  24561338.594                    24561349.609
 113519613.319 8  88456917.96045  21602064.680                    21602074.219
 119228957.415 7  92905804.58644  22688504.289                    22688513.918
 110355814.109 8  85991606.331 7  21000011.008                    21000019.102
 106500081.710 7  82987170.667 8  20266276.094                    20266284.395
 128731413.719 6 100310300.94643  24496760.883                    24496771.773
 122764364.485 7  95660592.358 6  23361285.703                    23361295.527
 114161935.013 7  88957402.730 7  21724294.172                    21724305.242
 111960150.165 7  87241711.36446  21305267.352                    21305273.742
 11  8 19  1 56  0.0000000  0  9G26G30G10G12G05G04G29G25G02
 128976905.724 6 100501591.21042  24543502.898                    24543514.113
 113509613.033 8  88449125.53945  21600161.688                    21600170.898
 119322393.958 6  92978612.25844  22706284.961                    22706294.051
 110394184.813 8  86021505.559 7  21007312.695                    21007321.008
 106499879.415 8  82987013.046 8  20266237.563                    20266245.996
 128809968.271 6 100371512.26843  24511709.508                    24511719.961
 122681085.858 6  95595699.942 6  23345438.086                    23345448.379
 114134195.983 7  88935787.923 7  21719015.648                    21719027.008
 111994059.042 8  87268133.87846  21311720.172                    21311726.684
 11  8 19  1 56 30.0000000  0  9G26G30G10G12G05G04G29G25G02
 128883086.350 6 100428485.25742  24525650.336                    24525660.383
 113500220.747 8  88441806.89045  21598374.344                    21598383.613
 119416125.440 6  93051649.73844  22724121.625                    22724130.805
 110433086.792 8  86051818.795 7  21014715.320                    21014723.598
 106500247.957 8  82987300.246 8  20266308.203                    20266315.922
 128888460.434 6 100432675.02043  24526645.516                    24526656.500
 122597806.288 6  95530806.782 6  23329590.398                    23329600.750
 114107023.903 8  88914614.878 7  21713844.922                    21713856.191
 112028070.870 8  87294636.60746  21318192.328                    21318198.895
 11  8 19  1 57  0.0000000  0  9G26G30G10G12G05G04G29G25G02
 128789178.934 6 100355310.73642  24507779.781                    24507790.434
 113491436.347 8  88434961.90646  21596702.805                    21596712.055
 119510148.696 7  93124914.61644  22742013.773                    22742023.039
 110472518.643 8  86082544.896 7  21022219.289                    21022227.305
 106501186.596 8  82988031.667 8  20266486.078                    20266494.352
 128966889.982 6 100493788.93843  24541570.406                    24541580.922
 122514527.256 6  95465914.073 6  23313743.234                    23313753.277
 114080419.632 8  88893884.294 7  21708782.055                    21708793.523
 112062185.345 8  87321219.33346  21324683.898                    21324690.602
 11  8 19  1 57 30.0000000  0  9G26G30G10G12G05G04G29G25G02
 128695186.191 6 100282069.71042  24489893.461                    24489903.992
 113483259.848 8  88428590.60045  21595146.680                    21595156.152
 119604461.225 7  93198404.89844  22759960.852                    22759969.832
 110512478.603 8  86113682.520 7  21029823.219                    21029831.207
 106502694.681 8  82989206.811 8  20266773.039                    20266781.441
 129045256.937 6 100554854.08143  24556483.305                    24556494.059
 122431249.929 6  95401022.666 6  23297896.078                    23297905.711
 114054383.997 8  88873596.781 7  21703827.836                    21703838.820
 112096401.764 8  87347881.48746  21331195.586                    21331202.008
 11  8 19  1 58  0.0000000  0  9G26G30G10G12G05G04G29G25G02
 128601111.467 6 100208764.83342  24471991.336                    24472002.227
 113475690.826 8  88422692.65246  21593706.758                    21593715.742
 119699060.180 7  93272118.35244  22777962.555                    22777972.184
 110552964.479 8  86145229.950 7  21037527.398                    21037535.656
 106504771.457 7  82990825.087 8  20267168.555                    20267176.688
 129123560.879 6 100615870.13243  24571383.242                    24571394.246
 122347975.700 6  95336133.685 6  23282049.297                    23282059.191
 114028917.573 8  88853752.809 7  21698981.633                    21698993.031
 112130719.484 7  87374622.57446  21337725.594                    21337732.055
 11  8 19  1 58 30.0000000  0  9G26G30G10G12G05G04G29G25G02
 128506957.555 6 100135398.22943  24454074.930                    24454085.508
 113468729.312 8  88417268.08945  21592382.117                    21592391.234
 119793942.363 7  93346052.47844  22796017.828                    22796026.855
 110593974.932 8  86177186.140 7  21045331.523                    21045339.789
 106507416.297 7  82992886.008 8  20267671.820                    20267679.902
 129201801.602 5 100676836.86242  24586271.664                    24586283.410
 122264706.210 6  95271248.415 6  23266203.250                    23266213.113
 114004021.158 8  88834352.986 7  21694244.055                    21694254.945
 112165138.379 7  87401442.50346  21344275.102                    21344282.047
 11  8 19  1 59  0.0000000  0  9G26G30G10G12G05G04G29G25G02
 128412727.608 6 100061972.37343  24436143.586                    24436153.547
 113462375.153 8  88412316.78445  21591172.648                    21591181.594
 119889104.864 6  93420205.06244  22814126.672                    22814135.492
 110635508.584 8  86209550.020 7  21053234.945                    21053243.199
 106510628.594 7  82995389.110 8  20268283.055                    20268291.340
 129279979.048 5 100737754.34842  24601147.766                    24601159.656
 122181442.820 6  95206367.866 6  23250359.125                    23250368.969
 113979695.470 8  88815397.898 7  21689615.164                    21689626.488
 112199657.752 7  87428340.71746  21350844.367                    21350850.723
 11  8 19  1 59 30.0000000  0  9G26G30G10G12G05G04G29G25G02
 128318424.729 6  99988489.68943  24418198.031                    24418208.672
 113456628.118 8  88407838.56845  21590079.211                    21590088.645
 119984545.119 7  93494574.08144  22832287.992                    22832297.340
 110677563.453 8  86242320.040 7  21061237.742                    21061246.285
 106514407.565 8  82998333.772 8  20269001.883                    20269010.313
 129358092.893 5 100798622.27342  24616013.078                    24616024.453
 122098186.542 6  95141492.885 6  23234515.953                    23234525.449
 113955941.250 8  88796888.114 7  21685094.758                    21685105.984
 112234276.898 8  87455316.67346  21357431.891                    21357438.469
 11  8 19  2  0  0.0000000  0  9G26G30G10G12G05G04G29G25G02
 128224051.864 6  99914952.44443  24400239.617                    24400250.070
 113451487.878 8  88403833.17145  21589100.516                    21589109.758
 120080259.940 7  93569157.04644  22850502.469                    22850511.684
 110720137.732 8  86275494.801 7  21069339.406                    21069347.918
 106518752.467 8  83001719.423 8  20269829.008                    20269837.438
 129436142.882 6 100859440.37742  24630865.500                    24630876.930
 122014939.210 7  95076624.864 6  23218674.320                    23218683.914
 113932759.039 8  88778824.039 7  21680683.289                    21680694.309
 112268995.496 7  87482370.13346  21364038.492                    21364045.137
 11  8 19  2  0 30.0000000  0  9G26G30G10G12G05G04G29G25G02
 128129612.180 6  99841363.18943  24382268.461                    24382278.871
 113446954.215 8  88400300.43545  21588238.039                    21588247.535
 120176246.291 7  93643951.58644  22868768.273                    22868777.363
 110763229.722 8  86309072.977 7  21077539.344                    21077548.266
 106523662.743 8  83005545.613 8  20270763.398                    20270771.883
 129514128.867 6 100920208.69542  24645705.953                    24645717.012
 121931702.242 6  95011764.943 6  23202834.820                    23202844.680
 113910149.526 8  88761206.228 7  21676380.906                    21676392.453
 112303813.196 8  87509500.81446  21370664.391                    21370670.777
 11  8 19  2  1  0.0000000  0  9G26G30G10G12G05G04G29G25G02
 128035108.734 7  99767724.19343  24364284.750                    24364295.371
 113443026.881 8  88397240.16345  21587490.625                    21587500.324
 120272501.461 6  93718955.59644  22887085.180                    22887093.969
 110806837.576 8  86343053.121 7  21085838.250                    21085846.469
 106529137.556 8  83009811.717 8  20271805.195                    20271813.637
 129592050.865 6 100980927.12643  24660533.938                    24660545.199
 121848476.874 6  94946914.062 6  23186996.977                    23187006.789
 113888113.298 8  88744035.134 7  21672187.703                    21672198.809
 112338729.190 7  87536708.08146  21377308.641                    21377315.168
 11  8 19  2  1 30.0000000  0  8G26G30G10G12G05G29G25G02
 127940544.802 7  99694038.11843  24346290.109                    24346300.234
 113439705.573 8  88394652.12345  21586858.844                    21586868.133
 120369022.620 6  93794166.86544  22905452.383                    22905461.254
 110850959.674 8  86377433.970 7  21094234.156                    21094242.473
 106535175.982 8  83014516.988 8  20272954.594                    20272962.402
 121765264.973 6  94882073.682 6  23171163.086                    23171172.051
 113866651.085 8  88727311.321 7  21668103.734                    21668115.055
 112373743.307 7  87563991.81946  21383971.250                    21383978.000
 11  8 19  2  2  0.0000000  0  8G26G30G10G12G05G29G25G02
 127845923.812 6  99620307.54943  24328283.820                    24328294.574
 113436990.302 8  88392536.32445  21586341.898                    21586351.102
 120465807.291 7  93869583.45744  22923870.328                    22923879.020
 110895594.511 8  86412214.366 7  21102728.086                    21102736.223
 106541777.521 8  83019661.063 8  20274210.477                    20274219.133
 121682068.033 7  94817244.958 6  23155330.617                    23155340.617
 113845763.701 8  88711035.441 7  21664129.008                    21664139.898
 112408855.316 7  87591351.82346  21390653.633                    21390659.988
 11  8 19  2  2 30.0000000  0  8G26G30G10G12G05G29G25G02
 127751248.305 6  99546534.56143  24310268.141                    24310278.207
 113434880.298 7  88390892.15845  21585940.461                    21585949.953
 120562851.903 6  93945202.60644  22942336.227                    22942345.824
 110940739.596 8  86447392.356 7  21111318.805                    21111326.977
 106548940.866 8  83025242.898 8  20275573.672                    20275581.711
 121598886.992 7  94752428.623 6  23139502.070                    23139511.582
 113825451.248 8  88695207.551 7  21660263.695                    21660274.574
 112444064.475 8  87618787.54346  21397353.211                    21397359.738
 11  8 19  2  3  0.0000000  0  8G26G30G10G12G05G29G25G02
 127656521.288 6  99472721.38643  24292241.961                    24292251.789
 113433374.845 7  88389719.07245  21585654.109                    21585663.668
 120660153.741 7  94021022.20944  22960852.148                    22960861.859
 110986393.284 8  86482966.659 7  21120006.031                    21120014.832
 106556665.079 8  83031261.771 8  20277043.367                    20277051.609
 121515723.531 7  94687625.957 6  23123676.555                    23123686.688
 113805714.064 8  88679827.931 7  21656507.492                    21656518.859
 112479370.043 8  87646298.37546  21404071.625                    21404078.234
 11  8 19  2  3 30.0000000  0  8G26G30G10G12G05G29G25G02
 127561745.887 6  99398870.51643  24274206.445                    24274216.813
 113432473.613 8  88389016.81045  21585482.484                    21585491.652
 120757710.064 6  94097040.11244  22979416.672                    22979426.117
 111032553.009 8  86518935.275 7  21128790.344                    21128798.504
 106564949.212 8  83037716.957 8  20278619.727                    20278628.121
 121432579.059 7  94622838.104 6  23107854.852                    23107864.422
 113786552.670 8  88664896.998 7  21652861.211                    21652872.492
 112514771.634 8  87673884.04646  21410808.219                    21410814.410
 11  8 19  2  4  0.0000000  0  8G26G30G10G12G05G29G25G02
 127466925.444 6  99324984.55543  24256162.602                    24256172.906
 113432176.291 8  88388785.13346  21585426.125                    21585435.133
 120855518.027 6  94173254.09444  22998029.133                    22998038.355
 111079217.489 8  86555297.207 7  21137669.914                    21137678.625
 106573792.871 8  83044608.134 8  20280302.695                    20280310.914
 121349455.270 7  94558066.382 6  23092036.594                    23092046.539
 113767967.661 8  88650415.180 7  21649324.688                    21649335.777
 112550268.945 7  87701544.28346  21417563.109                    21417569.742
 11  8 19  2  4 30.0000000  0  8G26G30G10G12G05G29G25G02
 127372063.140 6  99251065.98143  24238110.984                    24238121.211
 113432482.330 8  88389023.60946  21585484.547                    21585493.340
 120953574.803 6  94249661.93544  23016688.703                    23016697.805
 111126385.145 8  86592051.225 7  21146646.094                    21146653.895
 106583194.758 8  83051934.293 8  20282092.078                    20282099.609
 121266353.474 7  94493311.777 6  23076222.805                    23076232.438
 113749959.374 8  88636382.766 7  21645897.953                    21645908.789
 112585861.476 8  87729278.72046  21424336.195                    21424342.453
 11  8 19  2  5  0.0000000  0  8G26G30G10G12G05G29G25G02
 127277162.030 6  99177117.15743  24220051.328                    24220062.172
 113433391.012 8  88389731.67645  21585657.078                    21585666.648
 121051877.162 6  94326261.15844  23035395.375                    23035404.172
 111174053.131 8  86629195.104 7  21155716.711                    21155725.223
 106593153.517 8  83059694.388 8  20283986.859                    20283994.980
 121183274.992 7  94428575.349 6  23060413.633                    23060423.188
 113732528.079 8  88622799.954 7  21642580.547                    21642591.590
 112621548.838 8  87757087.06846  21431127.227                    21431133.500
 11  8 19  2  5 30.0000000  0  8G26G30G10G12G05G29G25G02
 127182225.512 6  99103140.77243  24201985.563                    24201996.473
 113434902.151 7  88390909.19045  21585944.859                    21585954.410
 121150422.508 7  94403049.72044  23054147.531                    23054156.996
 111222220.412 8  86666728.039 7  21164882.578                    21164890.973
 106603668.949 8  83067888.245 8  20285988.094                    20285996.277
 121100222.008 7  94363858.769 6  23044609.445                    23044619.590
 113715674.501 8  88609667.319 7  21639373.664                    21639384.973
 112657330.930 8  87784969.22446  21437936.594                    21437942.918
 11  8 19  2  6  0.0000000  0  8G26G30G10G12G05G29G25G02
 127087256.584 6  99029139.06643  24183913.523                    24183924.727
 113437015.029 7  88392555.61145  21586346.773                    21586356.168
 121249207.749 6  94480025.21944  23072945.625                    23072955.297
 111270884.157 8  86704647.843 7  21174143.109                    21174151.449
 106614739.681 8  83076514.812 8  20288094.664                    20288102.523
 121017195.871 7  94299163.126 6  23028809.500                    23028819.277
 113699398.810 8  88596984.985 7  21636276.445                    21636287.602
 112693206.909 8  87812924.54346  21444763.633                    21444770.125
 11  8 19  2  6 30.0000000  0  8G26G30G10G12G05G29G25G02
 126992258.595 6  98955114.78343  24165835.539                    24165846.191
 113439728.922 8  88394670.32546  21586863.242                    21586872.363
 121348230.039 7  94557185.43744  23091789.781                    23091797.926
 111320042.783 8  86742953.259 7  21183497.578                    21183506.059
 106626364.496 8  83085573.135 8  20290306.789                    20290314.965
 120934197.821 7  94234489.346 6  23013015.992                    23013025.230
 113683701.263 8  88584753.152 7  21633289.102                    21633300.535
 112729176.577 8  87840952.86346  21451608.180                    21451614.590
 11  8 19  2  7  0.0000000  0  8G26G30G10G12G05G29G25G02
 126897234.529 6  98881070.12443  24147753.727                    24147763.816
 113443043.153 7  88397252.85345  21587494.297                    21587503.602
 121447486.595 6  94634528.19444  23110676.688                    23110686.105
 111369694.007 8  86781642.511 7  21192946.242                    21192954.254
 106638542.381 8  83095062.419 8  20292624.188                    20292632.551
 120851229.666 7  94169838.866 6  22997227.125                    22997237.008
 113668582.070 8  88572971.985 7  21630412.109                    21630423.047
 112765239.437 8  87869053.81846  21458470.641                    21458477.305
 11  8 19  2  7 30.0000000  0  8G26G30G10G12G05G29G25G02
 126802187.868 6  98807007.84143  24129667.203                    24129676.941
 113446957.260 7  88400302.82145  21588238.984                    21588247.957
 121546974.670 7  94712051.35044  23129609.180                    23129618.266
 111419836.177 8  86820714.331 7  21202487.664                    21202495.668
 106651272.528 8  83104982.042 8  20295046.625                    20295055.004
 120768292.891 7  94105212.815 6  22981444.797                    22981454.395
 113654041.751 8  88561641.897 7  21627645.297                    21627656.391
 112801395.241 7  87897227.17546  21465350.773                    21465357.543
 11  8 19  2  8  0.0000000  0  8G26G30G10G12G05G29G25G02
 126707121.505 6  98732930.24743  24111576.367                    24111586.426
 113451470.285 7  88403819.46745  21589097.133                    21589106.699
 121646691.189 7  94789752.51044  23148585.023                    23148593.980
 111470466.857 8  86860166.799 7  21212122.594                    21212131.184
 106664553.369 8  83115330.774 8  20297573.836                    20297582.195
 120685388.953 7  94040612.375 7  22965668.789                    22965679.094
 113640080.171 8  88550762.765 7  21624988.383                    21624999.504
 112837643.310 8  87925472.43346  21472248.680                    21472255.309
 11  8 19  2  8 30.0000000  0  8G26G30G10G12G05G29G25G02
 126612038.986 6  98658840.02543  24093482.477                    24093492.422
 113456581.894 8  88407802.55346  21590070.180                    21590079.813
 121746633.835 6  94867629.89244  23167602.914                    23167612.664
 111521584.283 8  86899998.545 7  21221849.531                    21221858.320
 106678384.511 8  83126108.301 8  20300205.719                    20300214.063
 120602519.833 7  93976039.070 7  22949899.742                    22949909.484
 113626698.031 8  88540335.138 7  21622442.016                    21622453.078
 112873983.900 8  87953789.78946  21479164.148                    21479170.535
 11  8 19  2  9  0.0000000  0  8G26G30G10G12G05G29G25G02
 126516943.418 6  98584739.63643  24075386.313                    24075396.348
 113462290.906 8  88412251.13945  21591156.500                    21591165.848
 121846799.327 7  94945680.89844  23186663.734                    23186673.406
 111573186.205 8  86940207.829 7  21231669.352                    21231677.148
 106692764.110 8  83137313.200 8  20302942.141                    20302950.059
 120519686.715 7  93911493.792 6  22934136.711                    22934146.406
 113613895.055 8  88530358.802 7  21620005.563                    21620016.426
 112910416.100 8  87982178.53246  21486096.641                    21486103.574
 11  8 19  2  9 30.0000000  0  8G26G30G10G12G05G29G25G02
 126421837.731 6  98510631.35243  24057288.219                    24057298.383
 113468596.535 8  88417164.62045  21592356.617                    21592365.906
 121947184.647 7  95023903.20944  23205766.594                    23205775.824
 111625270.125 8  86980792.698 7  21241580.555                    21241588.730
 106707690.721 8  83148944.343 8  20305782.469                    20305790.699
 120436891.299 7  93846977.901 6  22918380.922                    22918391.000
 113601671.386 8  88520833.889 7  21617679.797                    21617690.512
 112946939.539 8  88010638.36946  21493047.016                    21493053.270
 11  8 19  2 10  0.0000000  0  8G26G30G10G12G05G29G25G02
 126326725.632 6  98436518.09343  24039189.117                    24039199.480
 113475498.024 8  88422542.41046  21593670.008                    21593679.387
 122047786.999 6  95102294.62544  23224910.070                    23224920.113
 111677833.808 8  87021751.405 7  21251583.250                    21251591.574
 106723163.482 8  83161001.054 8  20308726.625                    20308734.898
 120354135.085 7  93782492.541 7  22902633.555                    22902643.012
 113590027.267 8  88511760.562 7  21615463.445                    21615474.359
 112983553.888 8  88039169.03846  21500014.445                    21500020.891
 11  8 19  2 10 30.0000000  0  8G26G30G10G12G05G29G25G02
 126231610.288 6  98362402.27643  24021089.242                    24021099.523
 113482994.825 8  88428384.09346  21595096.422                    21595105.758
 122148603.971 6  95180853.26144  23244095.914                    23244105.172
 111730875.947 8  87063082.933 7  21261676.828                    21261684.992
 106739181.671 8  83173482.770 8  20311774.969                    20311783.348
 120271420.091 7  93718039.310 7  22886892.906                    22886902.789
 113578963.134 8  88503139.173 7  21613358.219                    21613369.305
 113020259.064 8  88067770.47446  21506999.016                    21507005.652
 11  8 19  2 11  0.0000000  0  8G26G30G10G12G05G29G25G02
 126136495.186 7  98288286.67143  24002989.719                    24002999.074
 113491085.937 7  88434688.86646  21596636.078                    21596645.523
 122249632.388 6  95259576.65944  23263320.523                    23263330.348
 111784393.859 8  87104785.187 7  21271860.727                    21271869.043
 106755743.812 8  83186388.339 8  20314926.453                    20314934.734
 120188747.892 7  93653619.420 6  22871161.078                    22871170.566
 113568478.689 8  88494969.492 7  21611362.797                    21611373.797
 113057054.622 7  88096442.31745  21514001.344                    21514007.672
 11  8 19  2 11 30.0000000  0  8G26G30G10G12G05G29G25G02
 126041383.273 6  98214173.56843  23984890.031                    23984899.891
 113499770.347 7  88441455.95746  21598288.703                    21598297.766
 122350869.402 7  95338462.60643  23282584.859                    23282594.723
 111838385.547 8  87146856.626 7  21282135.164                    21282143.371
 106772848.447 8  83199716.642 8  20318181.594                    20318189.992
 120106120.247 7  93589234.248 6  22855437.711                    22855447.543
 113558574.115 8  88487251.660 7  21609477.828                    21609489.438
 113093939.849 7  88125184.04746  21521020.094                    21521026.938
 11  8 19  2 12  0.0000000  0  8G26G30G10G12G05G29G25G02
 125946278.003 7  98140065.62643  23966792.445                    23966801.652
 113509047.475 7  88448684.90645  21600054.344                    21600063.395
 122452312.337 7  95417509.03443  23301889.172                    23301899.184
 111892848.590 8  87189295.346 7  21292499.016                    21292507.477
 106790494.430 8  83213466.759 8  20321539.438                    20321547.582
 120023538.681 7  93524884.994 7  22839722.688                    22839732.539
 113549249.587 8  88479985.809 7  21607703.906                    21607714.797
 113130915.180 8  88153995.99246  21528056.422                    21528063.227
 11  8 19  2 12 30.0000000  0  8G26G30G10G12G05G29G25G02
 125851182.916 6  98065965.63043  23948696.297                    23948705.977
 113518916.144 7  88456374.79145  21601932.055                    21601940.875
 122553958.457 7  95496713.79443  23321231.750                    23321240.891
 111947780.851 8  87232099.694 7  21302952.547                    21302960.555
 106808680.594 8  83227637.809 8  20325000.125                    20325007.906
 119941004.687 7  93460572.828 6  22824017.102                    22824026.871
 113540504.985 8  88473171.858 7  21606039.727                    21606050.547
 113167980.225 7  88182877.84346  21535109.820                    21535116.270
 11  8 19  2 13  0.0000000  0  8G26G30G10G12G05G29G25G02
 125756101.044 6  97991875.91743  23930602.594                    23930612.539
 113529375.323 7  88464524.81445  21603922.180                    21603931.637
 122655805.037 7  95576074.76444  23340612.539                    23340622.109
 112003180.015 8  87275267.864 7  21313494.406                    21313502.805
 106827405.541 8  83242228.679 8  20328563.602                    20328571.879
 119858520.185 7  93396299.234 6  22808321.078                    22808330.754
 113532340.313 8  88466809.792 7  21604486.164                    21604497.078
 113205134.387 8  88211829.13846  21542179.555                    21542186.480
 11  8 19  2 13 30.0000000  0  8G26G30G10G12G05G29G25G02
 125661035.876 6  97917799.23443  23912511.945                    23912521.879
 113540424.201 8  88473134.34545  21606025.102                    21606033.984
 122757849.146 7  95655589.62643  23360030.656                    23360040.438
 112059044.041 7  87318798.262 7  21324125.250                    21324133.641
 106846667.998 8  83257238.393 8  20332229.016                    20332237.063
 119776086.779 7  93332065.452 6  22792634.602                    22792644.031
 113524755.524 8  88460899.584 7  21603042.586                    21603053.844
 113242377.527 8  88240849.77646  21549266.852                    21549273.418
 11  8 19  2 14  0.0000000  0  8G26G30G10G12G05G29G25G02
 125565990.588 6  97843738.03143  23894425.500                    23894435.699
 113552061.611 8  88482202.45845  21608239.375                    21608248.750
 122860087.717 7  95735256.04644  23379486.594                    23379495.773
 112115370.136 8  87362688.723 7  21334843.195                    21334851.789
 106866466.495 8  83272665.810 8  20335996.313                    20336004.898
 119693706.539 7  93267873.110 6  22776957.648                    22776967.242
 113517750.503 8  88455441.144 7  21601709.563                    21601720.973
 113279708.957 8  88269939.21346  21556371.008                    21556377.410
 11  8 19  2 14 30.0000000  0  8G26G30G10G12G05G29G25G02
 125470968.715 6  97769695.09043  23876343.445                    23876353.148
 113564286.564 8  88491728.41345  21610565.695                    21610574.988
 122962518.118 7  95815071.96443  23398977.992                    23398988.199
 112172156.376 8  87406937.729 7  21345649.609                    21345658.016
 106886799.685 8  83288509.856 8  20339865.859                    20339873.887
 119611381.026 7  93203723.431 7  22761291.914                    22761301.395
 113511325.169 8  88450434.417 7  21600486.883                    21600497.965
 113317128.643 8  88299097.41446  21563491.648                    21563498.164
 11  8 19  2 15  0.0000000  0  8G26G30G10G12G05G29G25G02
 125375973.459 6  97695672.87843  23858265.844                    23858276.559
 113577098.138 8  88501711.47545  21613003.531                    21613012.258
 123065137.791 7  95895035.36843  23418505.813                    23418515.555
 112229400.497 7  87451543.537 7  21356542.711                    21356551.402
 106907666.130 8  83304769.431 8  20343836.641                    20343844.605
 119529111.623 7  93139617.488 7  22745636.141                    22745646.285
 113505479.461 8  88445879.346 7  21599374.234                    21599385.559
 113354636.641 8  88328324.43746  21570629.328                    21570635.637
 11  8 19  2 15 30.0000000  0  8G26G30G10G12G05G29G25G02
 125281008.310 6  97621674.13643  23840194.852                    23840205.504
 113590494.918 8  88512150.53845  21615552.789                    21615562.367
 123167943.720 7  95975143.88543  23438069.203                    23438078.547
 112287099.954 7  87496504.129 7  21367522.891                    21367531.004
 106929064.432 8  83321443.435 8  20347908.422                    20347916.520
 119446900.225 7  93075556.751 7  22729991.992                    22730001.613
 113500213.059 8  88441775.671 7  21598371.977                    21598383.527
 113392232.294 8  88357619.76046  21577783.492                    21577789.777
 11  8 19  2 16  0.0000000  0  8G26G30G10G12G05G29G25G02
 125186076.740 6  97547701.54744  23822130.078                    23822140.051
 113604476.009 8  88523044.90146  21618213.484                    21618222.539
 123270933.453 6  96055395.63343  23457667.711                    23457676.387
 112345252.545 7  87541817.828 7  21378588.977                    21378597.016
 106950993.237 8  83338530.826 8  20352081.617                    20352089.520
 119364748.512 7  93011542.532 7  22714358.820                    22714368.504
 113495525.959 8  88438123.401 7  21597480.195                    21597491.195
 113429915.855 8  88386983.58846  21584954.672                    21584960.730
 11  8 19  2 16 30.0000000  0  8G26G30G10G12G05G29G25G02
 125091181.768 6  97473757.51043  23804071.078                    23804082.695
 113619039.947 8  88534393.43345  21620984.750                    21620994.164
 123374103.988 6  96135788.26743  23477299.914                    23477309.988
 112403855.811 7  87587482.699 7  21389740.320                    21389748.762
 106973450.740 8  83356030.183 8  20356355.047                    20356363.273
 119282658.056 7  92947576.053 7  22698737.227                    22698747.055
 113491417.672 8  88434922.155 7  21596698.930                    21596709.988
 113467686.430 8  88416415.24146  21592142.305                    21592148.398
 11  8 19  2 17  0.0000000  0  8G26G30G10G12G05G29G25G02
 124996326.978 6  97399844.74843  23786021.734                    23786031.828
 113634185.680 8  88546195.30645  21623866.961                    21623876.148
 123477452.417 6  96216319.49643  23496966.203                    23496976.160
 112462907.193 7  87633496.746 7  21400977.609                    21400985.719
 106996435.691 8  83373940.548 8  20360728.500                    20360736.539
 119200630.934 7  92883658.911 7  22683128.273                    22683137.641
 113487888.086 8  88432171.851 7  21596026.805                    21596037.766
 113505544.075 8  88445914.73846  21599345.516                    21599352.133
 11  8 19  2 17 30.0000000  0  8G26G30G10G12G05G29G25G02
 124901515.831 6  97325965.99444  23767979.797                    23767989.457
 113649912.090 8  88558449.64445  21626859.555                    21626868.730
 123580976.238 6  96296987.41043  23516666.383                    23516675.938
 112522404.588 7  87679858.345 7  21412299.633                    21412307.762
 107019946.758 8  83392260.879 8  20365202.742                    20365210.703
 119118668.805 7  92819792.425 7  22667530.766                    22667540.652
 113484936.993 8  88429872.306 7  21595465.438                    21595476.391
 113543488.106 8  88475481.54846  21606566.109                    21606572.574
 11  8 19  2 18  0.0000000  0  8G26G30G10G12G05G29G25G02
 124806751.501 6  97252123.69844  23749946.273                    23749957.156
 113666217.844 8  88571155.43545  21629962.266                    21629971.680
 123684672.560 6  96377789.69643  23536399.367                    23536409.074
 112582345.341 8  87726565.419 7  21423705.727                    21423714.277
 107043982.185 8  83410989.793 8  20369776.563                    20369784.688
 119036773.602 7  92755978.088 7  22651947.055                    22651956.523
 113482564.044 8  88428023.267 7  21595013.531                    21595024.969
 113581518.845 8  88505115.91145  21613803.500                    21613809.723
 11  8 19  2 18 30.0000000  0  8G26G30G10G12G05G29G25G02
 124712037.907 7  97178320.96444  23731923.633                    23731933.809
 113683101.986 8  88584311.90845  21633175.844                    21633184.516
 123788538.711 6  96458724.34243  23556164.852                    23556174.555
 112642727.428 7  87773616.393 7  21435196.477                    21435204.629
 107068541.058 8  83430126.592 8  20374449.953                    20374458.293
 118954947.315 7  92692217.455 7  22636375.617                    22636385.578
 113480769.231 8  88426624.709 7  21594672.125                    21594683.387
 113619636.270 8  88534817.82646  21621056.633                    21621063.008
 11  8 19  2 19  0.0000000  0  9G26G30G10G12G05G15G29G25G02
 124617378.021 7  97104560.06643  23713909.750                    23713919.977
 113700562.856 8  88597917.76845  21636497.961                    21636507.422
 123892571.890 6  96539789.14044  23575961.758                    23575971.102
 112703548.481 8  87821009.422 7  21446770.352                    21446778.789
 107093621.204 8  83449669.579 8  20379222.836                    20379230.543
 129385921.49316 100820263.26716  24621333.070                    24621343.977
 118873191.214 7  92628511.507 7  22620818.023                    22620827.430
 113479551.786 8  88425676.052 7  21594440.266                    21594451.480
 113657839.758 8  88564586.78846  21628326.938                    21628333.195
 11  8 19  2 19 30.0000000  0  9G26G30G10G12G05G15G29G25G02
 124522775.060 7  97030843.53243  23695908.125                    23695917.199
 113718598.790 8  88611971.74245  21639930.180                    21639939.168
 123996768.841 7  96620981.56843  23595789.914                    23595798.957
 112764805.062 7  87868741.823 7  21458427.109                    21458435.391
 107119220.566 8  83469617.149 8  20384093.859                    20384101.809
 129292888.417 6 100747770.138 6  24603629.273                    24603640.387
 118791507.141 7  92564861.683 7  22605274.039                    22605283.867
 113478911.084 8  88425176.800 7  21594318.523                    21594330.086
 113696128.725 8  88594422.36445  21635613.086                    21635619.207
 11  8 19  2 20  0.0000000  0  9G26G30G10G12G05G15G29G25G02
 124428232.905 7  96957174.35343  23677917.094                    23677927.031
 113737209.045 8  88626473.23145  21643471.820                    21643480.887
 124101127.523 6  96702300.01043  23615648.391                    23615657.891
 112826495.166 7  87916812.036 7  21470166.055                    21470174.535
 107145338.324 8  83489968.674 8  20389064.039                    20389071.988
 129199725.054 6 100675175.478 6  24585900.977                    24585911.699
 118709897.060 7  92501269.498 7  22589744.250                    22589753.512
 113478847.213 8  88425127.027 7  21594306.703                    21594317.719
 113734503.307 8  88624324.64145  21642915.313                    21642921.523
 11  8 19  2 20 30.0000000  0  9G26G30G10G12G05G15G29G25G02
 124333755.206 7  96883555.39843  23659938.563                    23659948.039
 113756392.249 8  88641421.17045  21647121.922                    21647130.695
 124205645.163 7  96783742.29144  23635538.055                    23635547.371
 112888616.536 7  87965218.306 7  21481987.484                    21481996.262
 107171972.985 8  83510722.968 8  20394132.313                    20394140.723
 129106434.116 5 100602481.428 6  24568147.375                    24568159.012
 118628362.791 7  92437736.378 7  22574228.656                    22574238.031
 113479359.821 8  88425526.448 7  21594404.102                    21594415.094
 113772963.726 8  88654293.81345  21650233.742                    21650240.336
 11  8 19  2 21  0.0000000  0  9G26G30G10G12G05G15G29G25G02
 124239344.981 6  96809989.02443  23641972.852                    23641981.961
 113776147.029 8  88656814.49145  21650881.055                    21650890.309
 124310319.066 7  96865306.37143  23655456.617                    23655465.336
 112951166.843 7  88013958.801 7  21493890.305                    21493898.516
 107199122.602 8  83531878.529 8  20399298.695                    20399306.789
 129013017.910 5 100529689.755 5  24550370.508                    24550382.602
 118546906.297 7  92374263.858 7  22558727.695                    22558737.652
 113480448.434 8  88426374.710 7  21594611.188                    21594622.434
 113811509.596 8  88684329.55745  21657568.336                    21657575.395
 11  8 19  2 21 30.0000000  0  9G26G30G10G12G05G15G29G25G02
 124145005.951 6  96736478.11843  23624020.641                    23624029.641
 113796471.694 8  88672651.87545  21654748.844                    21654758.086
 124415146.547 7  96946990.10744  23675404.953                    23675414.043
 113014143.123 8  88063031.233 7  21505874.695                    21505882.918
 107226785.564 8  83553434.095 8  20404562.477                    20404571.242
 128919478.683 6 100456802.190 4  24532571.211                    24532583.016
 118465529.277 7  92310853.248 7  22543242.289                    22543251.422
 113482112.397 8  88427671.292 7  21594927.781                    21594938.742
 113850140.732 8  88714431.73945  21664920.219                    21664926.531
 11  8 19  2 22  0.0000000  0  9G26G30G10G12G05G15G29G25G02
 124050741.424 6  96663025.27743  23606082.031                    23606091.898
 113817364.864 8  88688932.25345  21658724.977                    21658733.848
 124520124.713 7  97028791.27943  23695380.727                    23695390.309
 113077543.214 8  88112433.899 7  21517939.320                    21517947.438
 107254960.156 8  83575388.335 8  20409924.172                    20409932.316
 128825819.045 6 100383820.740 5  24514748.352                    24514759.117
 118384233.695 7  92247506.091 7  22527772.008                    22527781.309
 113484351.230 8  88429415.819 7  21595353.602                    21595365.059
 113888856.816 8  88744600.11046  21672288.078                    21672294.238
 11  8 19  2 22 30.0000000  0  9G26G30G10G12G05G15G29G25G02
 123956554.963 6  96589633.28643  23588159.438                    23588169.031
 113838825.315 8  88705654.66645  21662808.359                    21662817.641
 124625250.772 7  97110707.68443  23715385.875                    23715395.324
 113141364.522 8  88162164.790 7  21530084.172                    21530092.336
 107283644.987 8  83597740.158 8  20415382.758                    20415390.758
 128732041.559 6 100310747.452 5  24496902.852                    24496913.250
 118303021.562 7  92184223.964 7  22512318.594                    22512327.070
 113487164.557 8  88431608.007 7  21595888.977                    21595900.031
 113927657.776 8  88774834.62845  21679671.320                    21679677.867
 11  8 19  2 23  0.0000000  0  9G26G30G10G12G05G15G29G25G02
 123862450.160 6  96516304.90943  23570251.594                    23570261.246
 113860851.453 8  88722817.87945  21667000.258                    21667009.461
 124730522.351 7  97192737.48443  23735418.594                    23735427.930
 113205604.495 8  88212221.919 7  21542308.242                    21542316.645
 107312838.397 8  83620488.281 8  20420937.898                    20420946.309
 128638148.749 6 100237584.344 6  24479036.117                    24479046.984
 118221894.595 7  92121008.194 7  22496880.055                    22496889.477
 113490551.833 8  88434247.437 7  21596533.945                    21596544.879
 113966543.445 8  88805135.15145  21687071.047                    21687077.430
 11  8 19  2 23 30.0000000  0  9G26G30G10G12G05G15G29G25G02
 123768430.266 6  96443042.69543  23552360.625                    23552370.238
 113883441.408 8  88740420.42645  21671298.898                    21671308.020
 124835936.329 6  97274878.20143  23755477.859                    23755487.656
 113270260.020 8  88262602.839 7  21554611.813                    21554619.871
 107342538.006 8  83643630.843 8  20426589.555                    20426597.719
 128544142.972 7 100164333.217 6  24461147.023                    24461157.461
 118140854.344 7  92057859.976 7  22481458.828                    22481468.016
 113494512.045 8  88437333.309 7  21597287.383                    21597298.375
 114005513.585 8  88835501.50745  21694486.758                    21694493.059
 11  8 19  2 24  0.0000000  0  9G26G30G10G12G05G15G29G25G02
 123674498.811 6  96369849.40243  23534486.078                    23534495.422
 113906593.914 8  88758461.32445  21675704.445                    21675714.039
 124941490.116 7  97357127.99043  23775564.227                    23775573.004
 113335328.978 8  88313305.926 7  21566994.156                    21567002.141
 107372742.289 8  83667166.660 8  20432337.336                    20432345.375
 128450027.029 6 100090996.247 6  24443237.391                    24443248.023
 118059902.854 7  91994780.926 7  22466053.805                    22466063.039
 113499044.912 8  88440865.402 7  21598150.070                    21598161.277
 114044568.129 7  88865933.63746  21701918.727                    21701924.957
 11  8 19  2 24 30.0000000  0  9G26G30G10G12G05G15G29G25G02
 123580659.735 6  96296728.10644  23516628.633                    23516638.832
 113930307.673 8  88776939.56745  21680217.320                    21680226.367
 125047181.378 6  97439484.77243  23795677.109                    23795685.730
 113400809.193 8  88364329.473 7  21579454.094                    21579462.977
 107403450.226 8  83691094.933 8  20438180.945                    20438188.938
 128355803.458 6 100017575.414 6  24425307.406                    24425317.766
 117979042.566 7  91931772.943 7  22450666.953                    22450676.023
 113504150.065 8  88444843.437 7  21599121.547                    21599132.516
 114083707.257 7  88896431.67145  21709366.961                    21709373.332
 11  8 19  2 25  0.0000000  0  9G26G30G10G12G05G15G29G25G02
 123486916.099 6  96223681.16044  23498789.523                    23498800.039
 113954580.969 8  88795853.80945  21684836.039                    21684845.227
 125153007.632 6  97521946.83743  23815814.602                    23815823.887
 113466697.709 8  88415671.166 7  21591992.719                    21592001.301
 107434659.886 8  83715414.159 8  20444119.898                    20444127.777
 128261474.761 6  99944072.703 6  24407356.414                    24407367.578
 117898274.978 7  91868837.187 7  22435297.164                    22435306.625
 113509826.708 8  88449266.792 7  21600202.125                    21600213.051
 114122930.715 7  88926995.42645  21716830.641                    21716837.281
 11  8 19  2 25 30.0000000  0  9G26G30G10G12G05G15G29G25G02
 123393271.608 7  96150711.47044  23480970.078                    23480979.891
 113979411.962 8  88815202.62545  21689561.633                    21689570.387
 125258965.742 6  97604511.59143  23835977.477                    23835987.293
 113532991.488 7  88467328.657 7  21604608.273                    21604616.457
 107466368.910 8  83740122.503 8  20450153.836                    20450162.133
 128167043.341 6  99870489.948 6  24389386.086                    24389397.406
 117817602.064 7  91805975.205 7  22419945.602                    22419954.586
 113516073.900 8  88454134.735 7  21601390.297                    21601401.855
 114162238.099 7  88957624.56145  21724310.773                    21724317.141
 11  8 19  2 26  0.0000000  0  9G26G30G10G12G05G15G29G25G02
 123299729.411 7  96077821.51644  23463169.125                    23463179.574
 114004798.796 8  88834984.57245  21694392.516                    21694401.703
 125365053.007 6  97687176.95443  23856166.070                    23856175.145
 113599687.818 7  88519299.820 7  21617299.797                    21617308.293
 107498575.516 8  83765218.563 8  20456282.297                    20456290.336
 128072511.784 6  99796829.173 6  24371397.992                    24371408.934
 117737025.717 7  91743188.456 7  22404612.375                    22404621.684
 113522890.855 8  88459446.654 7  21602687.836                    21602699.023
 114201629.203 7  88988318.95645  21731806.180                    21731812.543
 11  8 19  2 26 30.0000000  0  9G26G30G10G12G05G15G29G25G02
 123206293.535 7  96005014.37644  23445388.898                    23445399.086
 114030740.245 8  88855198.68945  21699328.836                    21699338.098
 125471267.133 6  97769941.21543  23876377.164                    23876386.691
 113666784.554 7  88571582.978 7  21630068.133                    21630076.430
 107531278.363 8  83790701.309 8  20462505.891                    20462513.945
 127977882.982 6  99723092.618 6  24353390.883                    24353400.953
 117656547.831 7  91680478.462 7  22389298.242                    22389307.129
 113530277.114 8  88465202.183 7  21604093.516                    21604104.660
 114241104.190 7  89019078.70145  21739318.258                    21739324.230
 11  8 19  2 27  0.0000000  0  9G26G30G10G12G05G15G29G25G02
 123112967.629 7  95932292.93444  23427629.844                    23427639.441
 114057234.762 8  88875843.76745  21704370.766                    21704379.715
 125577605.424 6  97852802.25643  23896612.227                    23896621.879
 113734279.115 7  88624176.142 7  21642911.781                    21642919.887
 107564475.777 8  83816569.439 8  20468822.852                    20468831.215
 127883159.462 6  99649282.228 6  24335365.211                    24335375.570
 117576170.578 7  91617846.882 7  22374002.547                    22374012.004
 113538232.094 8  88471400.876 7  21605607.141                    21605618.465
 114280663.243 7  89049903.96045  21746845.977                    21746852.496
 11  8 19  2 27 30.0000000  0  9G26G30G10G12G05G15G29G25G02
 123019754.783 7  95859659.60344  23409892.070                    23409901.492
 114084280.082 7  88896918.05045  21709516.969                    21709526.477
 125684064.776 6  97935757.60543  23916871.008                    23916881.059
 113802168.465 7  88677076.920 7  21655830.414                    21655838.891
 107598165.038 8  83842820.822 8  20475233.711                    20475241.676
 127788343.401 6  99575399.718 6  24317322.250                    24317332.320
 117495895.711 7  91555295.098 7  22358727.188                    22358736.484
 113546754.508 8  88478041.732 7  21607228.492                    21607239.574
 114320305.450 7  89080794.01145  21754389.625                    21754396.148
 11  8 19  2 28  0.0000000  0  9G26G30G10G12G05G15G29G25G02
 122926658.573 7  95787117.14244  23392177.117                    23392186.480
 114111874.766 8  88918420.40845  21714768.344                    21714777.465
 125790643.237 6  98018805.76143  23937152.406                    23937161.820
 113870450.440 7  88730283.648 7  21668824.477                    21668833.078
 107632345.039 8  83869454.605 8  20481737.813                    20481746.113
 127693437.768 6  99501447.399 5  24299262.320                    24299272.719
 117415725.248 7  91492824.661 7  22343470.984                    22343480.105
 113555843.798 8  88485124.312 7  21608958.500                    21608969.383
 114360031.431 7  89111749.33645  21761949.484                    21761955.523
 11  8 19  2 28 30.0000000  0  9G26G30G10G12G05G15G29G25G02
 122833682.762 7  95714668.50444  23374483.742                    23374493.508
 114140016.966 8  88940349.40045  21720123.836                    21720132.684
 125897337.795 6  98101944.37343  23957455.805                    23957465.188
 113939121.810 7  88783793.794 7  21681892.148                    21681900.578
 107667013.609 8  83896469.091 8  20488335.180                    20488343.340
 127598444.940 6  99427427.129 5  24281185.430                    24281195.609
 117335661.036 7  91430437.034 7  22328234.719                    22328244.477
 113565499.072 8  88492647.906 7  21610795.766                    21610807.172
 114399840.926 8  89142769.73845  21769524.727                    21769531.648
 11  8 19  2 29  0.0000000  0  9G26G30G10G12G05G15G29G25G02
 122740830.797 7  95642316.36844  23356814.430                    23356823.898
 114168704.946 8  88962703.67845  21725582.523                    21725592.066
 126004145.905 7  98185171.46643  23977781.211                    23977790.762
 114008179.762 7  88837605.174 7  21695033.234                    21695041.914
 107702168.823 8  83923862.774 8  20495025.102                    20495033.043
 127503367.792 6  99353341.140 6  24263093.000                    24263103.086
 117255705.070 7  91368133.754 7  22313019.836                    22313029.063
 113575719.494 8  88500611.895 7  21612740.648                    21612751.574
 114439733.975 8  89173855.25045  21777116.234                    21777122.637
 11  8 19  2 29 30.0000000  0  9G26G30G10G12G05G15G29G25G02
 122648106.213 7  95570063.47844  23339169.352                    23339179.672
 114197936.942 8  88985481.87245  21731145.344                    21731154.801
 126111065.052 7  98268485.11643  23998127.188                    23998135.738
 114077622.027 7  88891716.001 7  21708247.570                    21708256.129
 107737808.910 8  83951634.290 8  20501807.188                    20501814.879
 127408209.149 6  99279191.698 6  24244984.641                    24244995.469
 117175859.387 7  91305916.429 7  22297825.617                    22297834.871
 113586504.132 8  88509015.522 7  21614793.117                    21614803.973
 114479710.642 8  89205005.92245  21784723.367                    21784729.691
 11  8 19  2 30  0.0000000  0  9G26G30G10G12G05G15G29G25G02
 122555512.662 7  95497912.70744  23321549.516                    23321559.016
 114227710.903 8  89008682.36145  21736811.133                    21736820.195
 126218092.389 7  98351883.07643  24018493.727                    24018502.578
 114147445.297 8  88946123.742 7  21721534.891                    21721543.340
 107773931.636 8  83979781.882 8  20508680.992                    20508688.676
 127312971.244 6  99204980.482 6  24226861.656                    24226871.391
 117096125.947 7  91243786.562 7  22282652.727                    22282662.258
 113597851.929 8  88517857.982 7  21616952.211                    21616963.512
 114519770.291 7  89236221.23545  21792346.391                    21792352.859
 11  8 19  2 30 30.0000000  0  9G26G30G10G12G05G15G29G25G02
 122463053.843 7  95425866.90544  23303955.219                    23303964.730
 114258025.364 8  89032304.03145  21742579.781                    21742589.336
 126325225.927 7  98435363.76143  24038880.938                    24038889.762
 114217647.418 7  89000826.676 7  21734893.695                    21734902.117
 107810535.708 8  84008304.561 8  20515646.719                    20515654.813
 127217656.978 6  99130709.740 6  24208723.781                    24208733.523
 117016506.910 7  91181745.860 7  22267501.727                    22267511.324
 113609762.297 8  88527138.803 7  21619219.016                    21619229.684
 114559913.185 7  89267501.42545  21799985.250                    21799991.797
 11  8 19  2 31  0.0000000  0  9G26G30G10G12G05G15G29G25G02
 122370733.381 7  95353928.92644  23286387.141                    23286396.645
 114288878.387 7  89056345.36645  21748450.984                    21748460.348
 126432462.760 6  98518924.96443  24059286.281                    24059295.844
 114288225.624 7  89055822.667 7  21748324.406                    21748332.828
 107847618.969 8  84037200.637 8  20522703.273                    20522711.102
 127122269.063 6  99056381.618 6  24190571.539                    24190582.090
 116937004.258 7  91119795.847 7  22252373.023                    22252382.121
 113622234.183 8  88536857.168 7  21621592.289                    21621603.480
 114600139.407 7  89298846.52745  21807640.078                    21807646.840
 11  8 19  2 31 30.0000000  0  9G26G30G10G12G05G15G29G25G02
 122278554.951 7  95282101.60744  23268846.469                    23268855.473
 114320268.155 7  89080804.92845  21754424.563                    21754433.238
 126539800.403 6  98602564.68743  24079712.836                    24079721.781
 114359177.372 7  89111109.730 7  21761826.227                    21761834.047
 107885179.757 8  84066468.799 8  20529850.930                    20529858.641
 127026810.315 6  98981998.258 6  24172406.766                    24172416.316
 116857620.181 7  91057938.231 7  22237266.563                    22237275.801
 113635266.732 8  88547012.423 7  21624071.930                    21624082.891
 114640449.225 7  89330256.79145  21815310.508                    21815316.887
 11  8 19  2 32  0.0000000  0  9G26G30G10G12G05G15G29G25G02
 122186521.783 7  95210387.48444  23251332.406                    23251342.535
 114352192.279 8  89105680.87845  21760499.344                    21760508.328
 126647236.134 6  98686280.83943  24100156.297                    24100166.613
 114430499.228 7  89166685.197 7  21775398.188                    21775406.125
 107923215.250 8  84096106.868 8  20537088.648                    20537096.555
 126931282.785 7  98907561.316 6  24154228.047                    24154238.324
 116778356.150 7  90996174.152 7  22222183.102                    22222192.277
 113648858.439 8  88557603.374 7  21626658.445                    21626669.426
 114680842.116 7  89361731.78145  21822997.273                    21823003.664
 11  8 19  2 32 30.0000000  0  9G26G30G10G12G05G15G29G25G02
 122094637.265 7  95138789.20844  23233847.766                    23233857.113
 114384648.781 7  89130971.67045  21766675.570                    21766685.055
 126754767.665 6  98770071.65443  24120618.758                    24120628.445
 114502188.254 7  89222546.762 7  21789040.266                    21789048.531
 107961723.628 8  84126113.411 8  20544416.578                    20544424.547
 126835689.400 7  98833073.046 6  24136037.375                    24136047.672
 116699214.531 7  90934505.446 7  22207122.758                    22207132.578
 113663008.285 8  88568629.241 7  21629351.156                    21629362.250
 114721317.772 7  89393271.26545  21830699.453                    21830705.891
 11  8 19  2 33  0.0000000  0  9G26G30G10G12G05G15G29G25G02
 122002905.564 6  95067309.99944  23216392.016                    23216401.004
 114417636.074 8  89156676.05545  21772952.508                    21772961.988
 126862392.495 6  98853935.15043  24141098.508                    24141108.941
 114574242.286 7  89278692.753 7  21802751.625                    21802759.820
 108000703.387 8  84156487.259 8  20551834.141                    20551842.063
 126740032.887 7  98758535.581 6  24117834.219                    24117844.598
 116620197.372 7  90872933.709 7  22192086.117                    22192094.918
 113677715.500 8  88580089.419 7  21632149.844                    21632160.766
 114761876.523 7  89424875.49745  21838417.539                    21838424.195
 11  8 19  2 33 30.0000000  0  9G26G30G10G12G05G15G29G25G02
 121911330.454 7  94995952.81144  23198966.047                    23198974.910
 114451152.421 8  89182792.69045  21779330.383                    21779339.547
 126970108.008 5  98937869.25942  24161596.578                    24161607.258
 114646658.406 7  89335120.883 7  21816532.156                    21816540.176
 108040152.752 7  84187227.041 8  20559341.273                    20559349.082
 126644316.279 7  98683951.277 6  24099619.961                    24099630.320
 116541306.996 7  90811460.772 7  22177073.914                    22177083.066
 113692979.190 8  88591983.220 7  21635054.531                    21635065.719
 114802518.688 7  89456544.71245  21846151.688                    21846158.184
 11  8 19  2 34  0.0000000  0  9G26G30G10G12G05G15G29G25G02
 121819915.170 7  94924720.15444  23181570.125                    23181578.777
 114485195.462 8  89209319.73645  21785809.047                    21785818.277
 127077911.610 6  99021872.04942  24182111.477                    24182121.273
 114719433.981 7  89391829.125 7  21830380.727                    21830388.871
 108080069.146 8  84218330.741 8  20566936.836                    20566944.563
 126548542.182 6  98609322.192 6  24081394.883                    24081405.090
 116462545.125 7  90750087.951 7  22162085.914                    22162094.527
 113708797.989 8  88604309.559 7  21638064.563                    21638075.457
 114843244.134 7  89488278.81745  21853901.641                    21853907.824
 11  8 19  2 34 30.0000000  0  9G26G30G10G12G05G15G29G25G02
 121728663.343 7  94853614.88344  23164204.867                    23164214.617
 114519763.360 8  89236255.75845  21792386.898                    21792396.402
 127185800.967 6  99105941.70642  24202642.398                    24202651.391
 114792566.067 7  89448815.161 7  21844297.484                    21844305.629
 108120450.903 8  84249797.066 8  20574621.406                    20574629.004
 126452713.227 6  98534650.373 6  24063159.000                    24063169.359
 116383914.071 7  90688817.067 7  22147122.578                    22147131.887
 113725170.849 8  88617067.640 7  21641180.055                    21641191.371
 114884053.030 7  89520077.96145  21861667.078                    21861673.336
 11  8 19  2 35  0.0000000  0  9G26G30G10G12G05G15G29G25G02
 121637578.340 7  94782639.60344  23146871.945                    23146881.457
 114554853.613 8  89263598.80045  21799063.828                    21799073.605
 127293773.298 6  99190076.01742  24223188.633                    24223197.703
 114866051.276 7  89506076.357 7  21858281.023                    21858289.129
 108161295.245 8  84281623.837 8  20582393.539                    20582401.449
 126356832.000 6  98459937.804 6  24044913.219                    24044923.969
 116305415.243 7  90627649.212 7  22132185.367                    22132193.930
 113742096.240 8  88630256.273 7  21644400.938                    21644411.828
 114924944.772 7  89551941.66845  21869448.547                    21869455.063
 11  8 19  2 35 30.0000000  0  9G26G30G10G12G05G15G29G25G02
 121546663.931 7  94711797.24344  23129571.750                    23129581.305
 114590464.249 8  89291347.34345  21805840.648                    21805849.926
 127401826.265 6  99274273.07242  24243749.969                    24243759.605
 114939886.986 7  89563610.677 7  21872331.625                    21872339.867
 108202600.374 8  84313809.669 8  20590253.703                    20590261.836
 126260901.207 6  98385186.676 6  24026657.992                    24026668.547
 116227051.194 7  90566586.367 7  22117272.836                    22117281.984
 113759572.971 8  88643874.506 7  21647726.539                    21647737.555
 114965919.706 8  89583870.21845  21877245.789                    21877252.258
 11  8 19  2 36  0.0000000  0  9G26G30G10G12G05G15G29G25G02
 121455923.946 7  94641090.79744  23112304.516                    23112313.414
 114626593.518 8  89319500.00545  21812716.109                    21812725.500
 127509957.400 6  99358531.08942  24264326.633                    24264336.152
 115014070.832 7  89621416.261 7  21886448.164                    21886456.711
 108244364.381 8  84346353.062 8  20598201.594                    20598209.238
 126164923.876 6  98310399.255 6  24008394.281                    24008404.313
 116148824.013 7  90505630.156 7  22102386.523                    22102395.113
 113777600.193 8  88657921.707 7  21651157.359                    21651168.434
 115006977.928 7  89615863.63645  21885058.922                    21885065.281
 11  8 19  2 36 30.0000000  0  9G26G30G10G12G05G15G29G25G02
 121365362.132 7  94570523.19744  23095071.109                    23095080.762
 114663239.317 8  89348055.16345  21819689.516                    21819698.813
 127618164.391 6  99442848.24142  24284917.898                    24284927.027
 115088599.993 7  89679490.922 7  21900630.492                    21900638.855
 108286585.659 8  84379252.758 8  20606235.484                    20606244.066
 126068902.840 6  98235577.776 6  23990122.117                    23990132.660
 116070735.839 7  90444782.270 7  22087527.070                    22087535.824
 113796176.708 8  88672396.920 7  21654692.211                    21654703.188
 115048119.453 7  89647921.97345  21892888.328                    21892894.320
 11  8 19  2 37  0.0000000  0  9G26G30G10G12G05G15G29G25G02
 121274981.829 7  94500097.03744  23077871.992                    23077881.598
 114700399.299 8  89377010.98945  21826760.602                    21826769.898
 127726444.728 6  99527222.50443  24305523.688                    24305532.953
 115163471.044 7  89737831.993 7  21914878.336                    21914886.688
 108329261.990 8  84412507.055 7  20614356.727                    20614364.750
 125972840.803 6  98160724.342 6  23971841.695                    23971852.105
 115992789.076 7  90384044.554 7  22072694.133                    22072702.855
 113815301.060 8  88687299.014 7  21658331.516                    21658342.422
 115089344.303 7  89680045.23245  21900732.938                    21900738.738
 11  8 19  2 37 30.0000000  0  9G26G30G10G12G05G15G29G25G02
 121184786.721 7  94429815.17644  23060708.586                    23060718.125
 114738071.213 8  89406365.71345  21833929.195                    21833939.039
 127834795.522 6  99611651.77243  24326142.805                    24326150.863
 115238681.080 7  89796437.214 7  21929190.063                    21929198.434
 108372390.379 8  84446113.599 8  20622563.727                    20622571.785
 125876740.252 7  98085840.902 6  23953554.500                    23953564.582
 115914985.049 7  90323418.067 7  22057888.422                    22057897.559
 113834971.792 8  88702626.872 7  21662074.664                    21662085.465
 115130652.380 8  89712233.35845  21908593.250                    21908599.707
 11  8 19  2 38  0.0000000  0  9G26G30G10G12G05G15G29G25G02
 121094780.369 7  94359680.39844  23043581.102                    23043590.500
 114776252.896 8  89436117.67245  21841194.945                    21841204.484
 127943214.460 6  99696134.10543  24346773.930                    24346782.391
 115314227.492 7  89855304.544 7  21943565.961                    21943574.676
 108415969.119 8  84480071.076 8  20630856.555                    20630864.438
 125780604.172 7  98010929.797 6  23935260.391                    23935270.570
 115837326.203 7  90262904.708 7  22043110.078                    22043119.305
 113855187.651 8  88718379.487 7  21665921.656                    21665932.348
 115172043.590 8  89744486.24645  21916469.867                    21916476.023
 11  8 19  2 38 30.0000000  0  9G26G30G10G12G05G15G29G25G02
 121004966.590 7  94289695.67544  23026490.211                    23026499.133
 114814942.219 8  89466265.18745  21848557.602                    21848566.828
 128051699.331 6  99780667.76843  24367417.313                    24367426.770
 115390107.200 7  89914431.581 7  21958005.523                    21958013.805
 108459996.186 8  84514377.897 8  20639234.617                    20639242.285
 125684435.251 7  97935993.072 6  23916960.586                    23916969.668
 115759814.715 7  90202506.178 7  22028360.563                    22028369.578
 113875947.343 8  88734555.876 7  21669871.984                    21669883.137
 115213518.351 8  89776804.25545  21924362.078                    21924368.387
 11  8 19  2 39  0.0000000  0  9G26G30G10G12G05G15G29G25G02
 120915348.981 7  94219863.82244  23009436.398                    23009445.844
 114854137.150 8  89496806.69245  21856015.844                    21856025.281
 128160247.832 6  99865250.95743  24388073.828                    24388082.707
 115466317.759 7  89973816.426 7  21972507.742                    21972516.141
 108504469.602 8  84549032.522 8  20647697.984                    20647705.727
 125588236.261 7  97861032.920 6  23898654.203                    23898663.520
 115682452.865 7  90142224.235 7  22013638.891                    22013647.859
 113897249.662 8  88751155.095 7  21673925.438                    21673936.516
 115255076.793 8  89809187.47045  21932270.023                    21932276.629
 11  8 19  2 39 30.0000000  0  9G26G30G10G12G05G15G29G25G02
 120825931.183 7  94150187.65144  22992420.734                    22992430.328
 114893835.267 7  89527740.28045  21863570.234                    21863579.957
 128268857.179 6  99949881.55843  24408740.914                    24408751.355
 115542855.866 7  90033456.509 7  21987072.867                    21987081.004
 108549386.976 8  84584033.083 8  20656244.859                    20656252.953
 125492010.072 7  97786051.582 6  23880342.367                    23880352.078
 115605242.834 7  90082060.614 7  21998946.656                    21998955.727
 113919093.121 8  88768175.976 7  21678081.898                    21678093.641
 115296718.803 8  89841635.78945  21940194.609                    21940201.008
 11  8 19  2 40  0.0000000  0  9G26G30G10G12G05G15G29G25G02
 120736716.884 7  94080670.06644  22975443.742                    22975453.254
 114934034.438 7  89559064.32045  21871219.805                    21871229.055
 128377525.520 6 100034558.13143  24429420.039                    24429429.559
 115619718.699 8  90093349.613 7  22001699.156                    22001707.535
 108594746.394 8  84619378.102 8  20664876.695                    20664884.676
 125395759.463 6  97711051.200 6  23862026.477                    23862035.609
 115528186.581 7  90022016.821 7  21984282.828                    21984291.875
 113941476.284 8  88785617.405 7  21682341.734                    21682352.555
 115338444.512 7  89874149.31145  21948134.828                    21948141.227
 11  8 19  2 40 30.0000000  0  9G26G30G10G12G05G15G29G25G02
 120647709.749 7  94011313.89944  22958506.141                    22958515.637
 114974732.074 7  89590776.75645  21878964.586                    21878973.973
 128486250.018 6 100119278.49343  24450110.492                    24450118.969
 115696903.605 8  90153493.699 7  22016386.672                    22016395.492
 108640545.082 8  84655065.406 8  20673592.031                    20673599.934
 125299486.917 7  97636033.728 6  23843706.406                    23843716.027
 115451286.081 7  89962094.400 7  21969649.438                    21969658.309
 113964397.540 8  88803478.118 7  21686703.359                    21686714.320
 115380253.672 8  89906727.87645  21956090.797                    21956097.098
 11  8 19  2 41  0.0000000  0  9G26G30G10G12G05G15G29G25G02
 120558913.407 7  93942121.97244  22941608.664                    22941618.324
 115015926.293 8  89622876.15045  21886803.359                    21886812.016
 128595028.234 6 100204040.75843  24470810.086                    24470818.691
 115774407.179 7  90213886.078 7  22031135.219                    22031143.414
 108686781.374 8  84691093.698 8  20682390.656                    20682398.063
 125203195.875 7  97561001.825 5  23825383.336                    23825391.531
 115374543.904 7  89902295.341 7  21955045.820                    21955054.680
 113987855.649 8  88821757.186 7  21691167.281                    21691178.059
 115422146.674 8  89939371.77645  21964062.703                    21964069.090
 11  8 19  2 41 30.0000000  0  9G26G30G10G12G05G15G29G25G02
 120470331.691 7  93873097.30044  22924752.570                    22924761.234
 115057614.538 8  89655360.50645  21894736.336                    21894745.379
 128703857.941 6 100288843.12743  24491519.102                    24491527.883
 115852226.447 8  90274524.467 7  22045943.820                    22045952.539
 108733452.908 8  84727461.130 8  20691271.617                    20691279.602
 125106888.856 7  97485957.496 6  23807056.039                    23807065.336
 115297961.985 7  89842621.184 7  21940472.492                    21940481.637
 114011849.085 8  88840453.372 7  21695733.078                    21695743.988
 115464123.709 8  89972081.16845  21972050.453                    21972056.988
 11  8 19  2 42  0.0000000  0 10G26G30G10G12G05G15G29G25G21G02
 120381968.011 7  93804242.51544  22907937.055                    22907946.563
 115099794.505 8  89688228.02345  21902763.320                    21902772.527
 128812736.725 5 100373683.69342  24512237.516                    24512247.613
 115930358.810 8  90335406.807 7  22060812.313                    22060820.453
 108780557.345 8  84764165.893 7  20700235.227                    20700243.383
 125010568.772 7  97410902.955 6  23788726.727                    23788736.359
 115221542.406 7  89783073.524 7  21925930.539                    21925939.410
 114036376.288 8  88859565.487 7  21700400.391                    21700411.609
 132316954.31616 103104177.55452  25179083.094                    25179093.371
 115506184.647 7  90004855.93045  21980054.672                    21980061.195
 11  8 19  2 42 30.0000000  0 10G26G30G10G12G05G15G29G25G21G02
 120293826.494 7  93735560.83744  22891163.820                    22891173.438
 115142464.325 8  89721477.24645  21910882.930                    21910891.586
 128921662.722 5 100458561.01142  24532965.945                    24532975.563
 116008802.041 8  90396531.397 7  22075738.867                    22075747.992
 108828093.340 8  84801206.933 8  20709281.156                    20709288.797
 124914238.823 6  97335840.747 6  23770395.766                    23770405.098
 115145288.017 7  89723654.573 7  21911419.305                    21911428.559
 114061436.210 8  88879092.699 7  21705169.414                    21705180.395
 132260765.460 6 103060394.05242  25168390.898                    25168401.227
 115548330.200 7  90037696.61145  21988074.734                    21988080.922
 11  8 19  2 43  0.0000000  0 10G26G30G10G12G05G15G29G25G21G02
 120205910.424 7  93667054.83544  22874433.992                    22874443.594
 115185621.086 8  89755105.89945  21919095.391                    21919104.246
 129030633.17715 100543472.90452  24553703.141                    24553712.848
 116087551.955 8  90457894.947 7  22090725.000                    22090733.422
 108876057.891 8  84838581.914 8  20718408.703                    20718416.297
 124817901.499 6  97260772.809 6  23752063.367                    23752072.836
 115069200.163 8  89664365.399 7  21896940.133                    21896949.316
 114087026.766 8  88899033.396 7  21710038.938                    21710050.082
 132204585.870 6 103016617.88942  25157699.797                    25157710.266
 115590559.969 8  90070602.92245  21996110.484                    21996117.215
 11  8 19  2 43 30.0000000  0 10G26G30G10G12G05G15G29G25G21G02
 120118223.366 7  93598727.30344  22857748.109                    22857757.168
 115229262.494 8  89789112.19645  21927400.133                    21927409.055
 129139645.57216 100628417.67953  24574447.141                    24574456.270
 116166605.934 8  90519495.430 7  22105768.320                    22105776.875
 108924448.769 8  84876289.106 8  20727616.523                    20727624.629
 124721559.521 6  97185701.242 6  23733729.906                    23733739.813
 114993281.174 7  89605207.795 7  21882493.375                    21882502.766
 114113146.461 8  88919386.416 7  21715009.430                    21715020.406
 132148415.126 6 102972848.45242  25147010.742                    25147021.098
 115632873.992 7  90103574.89145  22004162.820                    22004169.242
 11  8 19  2 44  0.0000000  0  9G26G30G12G05G15G29G25G21G02
 120030769.726 7  93530581.64444  22841105.828                    22841115.184
 115273386.649 8  89823494.67245  21935796.609                    21935805.422
 116245961.657 7  90581331.037 7  22120869.125                    22120877.930
 108973264.409 8  84914327.264 8  20736906.016                    20736914.070
 124625216.365 6  97110628.724 6  23715396.188                    23715405.859
 114917534.065 8  89546184.135 7  21868079.609                    21868088.637
 114139794.188 8  88940150.887 7  21720080.258                    21720091.398
 132092253.151 6 102929085.97442  25136323.359                    25136334.336
 115675273.199 7  90136613.25145  22012231.273                    22012237.863
 11  8 19  2 44 30.0000000  0  9G26G30G12G05G15G29G25G21G02
 119943553.013 7  93462620.60144  22824508.773                    22824518.699
 115317991.142 8  89858251.42645  21944284.453                    21944293.805
 116325616.036 7  90643399.359 7  22136027.063                    22136035.406
 109022502.510 8  84952694.624 8  20746276.055                    20746284.039
 124528874.930 7  97035557.567 6  23697063.445                    23697072.996
 114841961.001 8  89487296.090 7  21853698.555                    21853707.332
 114166968.359 8  88961325.562 7  21725251.188                    21725262.352
 132036099.273 6 102885329.88842  25125637.617                    25125648.520
 115717757.239 7  90169717.70845  22020315.547                    22020321.523
 11  8 19  2 45  0.0000000  0  9G26G30G12G05G15G29G25G21G02
 119856576.736 7  93394846.91344  22807958.297                    22807967.602
 115363073.207 8  89893380.31445  21952863.828                    21952872.332
 116405566.131 7  90705698.114 7  22151240.695                    22151249.297
 109072160.506 8  84991389.177 7  20755725.375                    20755733.852
 124432537.835 7  96960489.781 6  23678731.039                    23678740.789
 114766563.708 8  89428545.002 7  21839350.602                    21839359.152
 114194667.021 8  88982908.930 7  21730522.695                    21730533.441
 131979952.324 6 102841579.04842  25114952.742                    25114963.277
 115760326.386 7  90202888.47745  22028416.031                    22028422.859
 11  8 19  2 45 30.0000000  0  9G26G30G12G05G15G29G25G21G02
 119769843.763 7  93327262.81344  22791453.078                    22791463.031
 115408629.779 8  89928878.95345  21961532.398                    21961541.473
 116485807.712 7  90768223.999 7  22166510.359                    22166518.930
 109122235.197 8  85030408.421 7  20765254.516                    20765262.234
 124336207.367 7  96885427.152 6  23660399.813                    23660409.176
 114691343.879 8  89369932.192 7  21825036.844                    21825045.336
 114222887.867 8  89004899.201 7  21735892.430                    21735903.418
 131923811.501 6 102797833.10342  25104269.414                    25104280.039
 115802980.078 7  90236125.12845  22036532.984                    22036539.324
 11  8 19  2 46  0.0000000  0  9G26G30G12G05G15G29G25G21G02
 119683358.070 7  93259871.41144  22774995.227                    22775005.297
 115454658.606 8  89964745.57545  21970291.281                    21970301.035
 116566338.330 7  90830975.123 7  22181834.781                    22181843.652
 109172724.774 8  85069750.955 7  20774862.367                    20774870.109
 124239886.649 7  96810372.123 6  23642070.203                    23642079.922
 114616303.959 8  89311459.572 7  21810756.703                    21810766.023
 114251629.538 8  89027295.305 7  21741361.953                    21741373.066
 131867676.415 6 102754091.59142  25093586.859                    25093598.254
 115845718.852 7  90269428.08745  22044665.680                    22044672.121
 11  8 19  2 46 30.0000000  0  9G26G30G12G05G15G29G25G21G02
 119597123.784 7  93192675.89244  22758585.844                    22758595.102
 115501157.468 7  90000978.45745  21979140.141                    21979149.199
 116647155.417 7  90893949.458 7  22197213.953                    22197222.500
 109223627.445 8  85109415.378 7  20784548.758                    20784556.578
 124143578.757 7  96735327.095 6  23623744.047                    23623753.691
 114541446.482 7  89253129.123 7  21796512.156                    21796521.074
 114280890.491 8  89050096.050 7  21746929.938                    21746940.855
 131811546.774 6 102710354.26042  25082906.313                    25082917.105
 115888542.902 7  90302797.49145  22052814.961                    22052821.363
 11  8 19  2 47  0.0000000  0  9G26G30G12G05G15G29G25G21G02
 119511144.237 7  93125678.87744  22742224.320                    22742233.727
 115548123.891 7  90037575.67345  21988077.203                    21988086.578
 116728255.722 7  90957144.493 7  22212647.188                    22212654.816
 109274940.345 8  85149399.472 8  20794313.188                    20794321.348
 124047286.378 7  96660294.135 6  23605420.336                    23605429.301
 114466773.428 7  89194942.383 7  21782302.211                    21782311.156
 114310668.957 8  89073300.034 7  21752596.531                    21752608.172
 131755421.913 6 102666620.66342  25072225.539                    25072236.488
 115931452.265 7  90336233.36545  22060980.367                    22060987.230
 11  8 19  2 47 30.0000000  0  9G26G30G12G05G15G29G25G21G02
 119425423.334 7  93058883.39544  22725912.266                    22725921.648
 115595555.053 7  90074535.01345  21997103.523                    21997112.758
 116809636.394 7  91020557.990 7  22228132.844                    22228141.410
 109326661.519 8  85189701.688 7  20804155.578                    20804163.480
 123951012.737 7  96585275.789 6  23587099.383                    23587108.449
 114392287.188 7  89136901.197 7  21768128.164                    21768136.820
 114340963.071 8  89096905.849 7  21758361.297                    21758372.570
 131699300.914 6 102622890.12042  25061545.609                    25061556.699
 115974447.391 7  90369736.06045  22069161.945                    22069168.594
 11  8 19  2 48  0.0000000  0  9G26G30G12G05G15G29G25G21G02
 119339964.749 7  92992292.31744  22709649.969                    22709659.242
 115643448.976 7  90111854.96045  22006216.797                    22006226.570
 116891294.372 7  91084187.565 7  22243672.148                    22243680.934
 109378788.906 8  85230320.457 7  20814074.930                    20814082.711
 123854761.156 7  96510274.630 6  23568783.336                    23568792.637
 114317990.317 8  89079007.580 7  21753990.023                    21753998.434
 114371771.437 8  89120912.353 7  21764223.977                    21764235.242
 131643183.680 6 102579162.51942  25050867.180                    25050878.215
 116017528.181 7  90403305.50945  22077360.336                    22077366.805
 11  8 19  2 48 30.0000000  0  9G26G30G12G05G15G29G25G21G02
 119254772.211 7  92925908.55945  22693438.742                    22693447.770
 115691802.842 7  90149533.29145  22015418.672                    22015427.668
 116973226.517 7  91148030.778 7  22259263.297                    22259271.723
 109431319.925 8  85271253.731 7  20824071.047                    20824079.320
 123758534.002 7  96435292.511 6  23550471.930                    23550481.246
 114243884.693 7  89021262.971 7  21739888.102                    21739896.500
 114403092.121 8  89145318.090 7  21770184.102                    21770195.227
 131587069.484 6 102535437.26642  25040189.469                    25040199.309
 116060694.801 7  90436941.83845  22085574.367                    22085580.508
 11  8 19  2 49  0.0000000  0  9G26G30G12G05G15G29G25G21G02
 119169849.332 7  92859734.91244  22677278.055                    22677287.605
 115740613.866 7  90187567.85645  22024706.430                    22024716.293
 117055429.936 7  91212085.392 7  22274906.086                    22274914.672
 109484251.961 8  85312499.474 7  20834143.828                    20834151.754
 123662334.265 6  96360331.736 6  23532165.242                    23532174.754
 114169972.397 8  88963669.014 7  21725822.844                    21725831.316
 114434923.065 8  89170121.421 7  21776241.266                    21776252.285
 131530957.525 6 102491713.76742  25029511.242                    25029521.910
 116103947.642 7  90470645.35545  22093805.313                    22093811.398
 11  8 19  2 49 30.0000000  0  9G26G30G12G05G15G29G25G21G02
 119085199.653 7  92793774.14744  22661170.375                    22661178.723
 115789879.709 7  90225956.82045  22034081.570                    22034091.379
 117137902.120 7  91276349.422 7  22290599.805                    22290608.273
 109537582.905 8  85354056.076 7  20844292.148                    20844300.238
 123566164.812 7  96285394.579 6  23513865.375                    23513874.246
 114096256.189 8  88906227.858 7  21711795.219                    21711803.566
 114467262.646 8  89195321.089 7  21782395.688                    21782406.930
 131474847.348 6 102447991.61343  25018834.484                    25018844.121
 116147287.002 7  90504416.29445  22102052.250                    22102058.074
 11  8 19  2 50  0.0000000  0  9G26G30G12G05G15G29G25G21G02
 119000826.859 7  92728029.12944  22645114.031                    22645123.105
 115839597.561 7  90264698.00245  22043542.477                    22043552.398
 117220639.188 7  91340819.844 7  22306344.227                    22306352.801
 109591310.421 8  85395921.675 7  20854516.328                    20854524.355
 123470028.577 7  96210483.300 6  23495570.828                    23495580.293
 114022737.912 8  88848940.930 7  21697804.859                    21697813.648
 114500108.870 8  89220915.563 7  21788645.984                    21788657.172
 131418738.481 6 102404270.46243  25008157.430                    25008167.246
 116190712.700 7  90538254.51045  22110316.078                    22110321.828
 11  8 19  2 50 30.0000000  0  9G26G30G12G05G15G29G25G21G02
 118916734.313 7  92662502.50244  22629111.820                    22629120.934
 115889764.617 7  90303789.21445  22053089.086                    22053098.793
 117303638.035 7  91405494.263 7  22322138.367                    22322147.313
 109645431.969 8  85438094.314 7  20864815.305                    20864823.348
 123373928.410 7  96135600.133 6  23477283.680                    23477292.906
 113949419.885 8  88791810.049 7  21683852.594                    21683861.430
 114533459.585 8  89246903.138 7  21794991.961                    21795003.008
 131362630.103 6 102360549.78143  24997480.063                    24997490.086
 116234224.783 7  90572160.03545  22118596.094                    22118601.848
 11  8 19  2 51  0.0000000  0  9G26G30G12G05G15G29G25G21G02
 118832926.374 7  92597197.64244  22613163.672                    22613173.230
 115940378.669 7  90343228.74145  22062720.406                    22062730.195
 117386896.165 7  91470370.720 7  22337981.656                    22337990.840
 109699945.673 8  85480572.537 7  20875188.898                    20875197.059
 123277867.818 7  96060747.800 6  23459003.805                    23459013.016
 113876304.459 8  88734837.036 7  21669939.594                    21669948.383
 114567313.377 8  89273282.720 7  21801433.969                    21801445.102
 131306521.791 6 102316829.10243  24986802.453                    24986813.008
 116277824.174 7  90606133.58845  22126892.789                    22126898.438
 11  8 19  2 51 30.0000000  0  9G26G30G12G05G15G29G25G21G02
 118749406.499 7  92532117.23645  22597270.320                    22597279.488
 115991437.019 7  90383014.45945  22072436.773                    22072446.031
 117470410.448 7  91535446.756 7  22353874.125                    22353882.980
 109754848.858 8  85523354.254 7  20885636.797                    20885644.277
 123181849.432 6  95985928.341 6  23440731.555                    23440741.129
 113803394.178 8  88678023.863 7  21656065.063                    21656073.496
 114601668.278 8  89300052.777 7  21807972.047                    21807982.813
 131250412.876 6 102273107.94543  24976125.789                    24976135.500
 116321510.526 7  90640174.90545  22135205.828                    22135212.152
 11  8 19  2 52  0.0000000  0  9G26G30G12G05G15G29G25G21G02
 118666178.179 7  92467264.04945  22581432.305                    22581442.242
 116042937.035 7  90423144.34945  22082236.984                    22082246.211
 117554177.709 7  91600719.934 7  22369814.695                    22369823.586
 109810139.353 8  85566437.762 7  20896158.281                    20896165.957
 123085876.320 7  95911144.151 6  23422469.039                    23422477.992
 113730691.010 8  88621372.098 7  21642230.023                    21642238.691
 114636522.292 8  89327211.758 7  21814604.148                    21814615.219
 131194303.058 6 102229386.09843  24965448.484                    24965458.434
 116365284.527 7  90674284.51745  22143536.109                    22143542.207
 11  8 19  2 52 30.0000000  0  9G26G30G12G05G15G29G25G21G02
 118583245.073 7  92402640.87144  22565650.914                    22565659.930
 116094875.806 7  90463616.12845  22092120.422                    22092129.852
 117638195.281 7  91666188.153 7  22385802.648                    22385810.988
 109865814.491 8  85609820.989 7  20906752.484                    20906760.402
 122989951.289 7  95836397.450 6  23404215.063                    23404223.957
 113658197.440 8  88564883.634 7  21628435.500                    21628443.227
 114671873.385 8  89354758.084 7  21821331.547                    21821342.273
 131138191.567 6 102185662.98143  24954769.906                    24954780.559
 116409146.127 7  90708462.38845  22151882.180                    22151888.543
 11  8 19  2 53  0.0000000  0  9G26G30G12G05G15G29G25G21G02
 118500610.709 7  92338250.48044  22549925.617                    22549935.043
 116147250.469 7  90504427.54345  22102086.672                    22102096.586
 117722459.419 7  91731848.512 7  22401838.125                    22401846.352
 109921871.556 8  85653501.823 7  20917419.852                    20917427.574
 122894077.276 7  95761690.493 6  23385970.422                    23385980.199
 113585915.169 8  88508559.825 7  21614680.172                    21614688.730
 114707719.213 8  89382689.898 7  21828153.148                    21828163.879
 131082077.750 6 102141938.00543  24944092.484                    24944102.141
 116453095.312 7  90742708.53545  22160246.000                    22160251.949
 11  8 19  2 53 30.0000000  0  9G26G30G12G05G15G29G25G21G02
 118418279.093 7  92274096.00744  22534258.969                    22534267.996
 116200058.728 7  90545576.84545  22112135.992                    22112145.359
 117806967.574 7  91797699.003 7  22417918.945                    22417927.566
 109978308.988 7  85697479.051 7  20928159.664                    20928167.621
 122798257.401 7  95687025.704 6  23367736.922                    23367746.211
 113513847.390 8  88452403.146 7  21600966.219                    21600974.555
 114744058.340 8  89411006.113 7  21835068.133                    21835079.012
 131025961.205 6 102098210.95643  24933413.383                    24933423.363
 116497132.692 7  90777023.40445  22168625.359                    22168632.105
 11  8 19  2 54  0.0000000  0  9G26G30G12G05G15G29G25G21G02
 118336253.785 7  92210180.22044  22518649.820                    22518658.770
 116253297.740 7  90587061.79545  22122267.453                    22122276.926
 117891716.685 7  91863737.243 7  22434046.422                    22434054.680
 110035124.052 8  85741750.541 7  20938971.195                    20938979.348
 122702494.651 7  95612405.453 6  23349513.734                    23349523.176
 113441995.960 8  88396415.052 7  21587293.148                    21587301.746
 114780888.553 8  89439705.002 7  21842076.195                    21842087.695
 130969841.385 6 102054481.31043  24922733.969                    24922743.844
 116541258.351 7  90811407.03545  22177022.438                    22177028.723
 11  8 19  2 54 30.0000000  0  9G26G30G12G05G15G29G25G21G02
 118254538.438 7  92146505.95745  22503099.813                    22503109.141
 116306964.742 7  90628880.25045  22132479.883                    22132488.805
 117976703.407 7  91929960.672 7  22450219.047                    22450227.055
 110092314.109 8  85786314.224 7  20949854.141                    20949861.766
 122606792.068 7  95537832.068 6  23331302.359                    23331310.879
 113370363.134 8  88340597.296 7  21573661.625                    21573670.766
 114818207.711 8  89468784.864 7  21849177.875                    21849189.043
 130913717.313 6 102010748.39143  24912054.352                    24912064.164
 116585472.548 7  90845859.65745  22185436.281                    22185442.363
 11  8 19  2 55  0.0000000  0  9G26G30G12G05G15G29G25G21G02
 118173136.866 7  92083076.20245  22487609.859                    22487618.863
 116361057.247 7  90671030.25545  22142772.977                    22142782.578
 118061925.220 7  91996367.268 7  22466436.125                    22466444.531
 110149877.316 8  85831168.682 7  20960808.313                    20960816.191
 122511153.110 7  95463308.263 6  23313102.461                    23313111.813
 113298951.795 8  88284952.126 7  21560072.578                    21560081.414
 114856014.153 8  89498244.433 7  21856372.078                    21856383.531
 130857588.940 6 101967012.08443  24901372.656                    24901382.895
 116629775.674 7  90880381.57545  22193867.250                    22193872.887
 11  8 19  2 55 30.0000000  0  9G26G30G12G05G15G29G25G21G02
 118092052.589 7  92019893.68244  22472180.102                    22472188.844
 116415572.300 7  90713509.51645  22153147.016                    22153155.762
 118147378.810 7  92062954.455 7  22482697.383                    22482706.320
 110207811.171 7  85876311.946 7  20971832.484                    20971840.457
 122415580.313 7  95388836.021 6  23294915.570                    23294924.602
 113227763.779 8  88229480.977 7  21546526.320                    21546534.652
 114894305.599 8  89528081.924 7  21863659.336                    21863670.227
 130801455.522 6 101923271.85343  24890690.813                    24890700.941
 116674167.982 7  90914972.98045  22202314.648                    22202320.801
 11  8 19  2 56  0.0000000  0  9G26G30G12G05G15G29G25G21G02
 118011289.146 7  91956961.16345  22456811.250                    22456820.574
 116470507.088 7  90756315.84745  22163601.289                    22163609.652
 118233061.161 7  92129719.898 7  22499001.813                    22499010.668
 110266112.835 8  85921741.823 7  20982926.906                    20982935.027
 122320076.750 7  95314417.717 6  23276741.734                    23276751.438
 113156801.415 8  88174185.656 7  21533022.125                    21533030.797
 114933079.851 8  89558295.640 7  21871037.656                    21871048.859
 130745316.553 6 101879527.31143  24880007.047                    24880018.074
 116718649.603 7  90949633.98345  22210779.094                    22210785.059
 11  8 19  2 56 30.0000000  0  9G26G30G12G05G15G29G25G21G02
 117930850.277 7  91894281.55344  22441503.883                    22441513.008
 116525858.822 7  90799447.06045  22174133.281                    22174142.840
 118318969.004 7  92196661.061 7  22515349.641                    22515357.840
 110324780.079 8  85967456.561 7  20994090.797                    20994098.805
 122224645.134 7  95240055.484 6  23258581.750                    23258591.043
 113086067.092 8  88119068.026 7  21519561.961                    21519570.746
 114972334.815 8  89588883.919 7  21878507.695                    21878518.406
 130689171.388 6 101835777.87543  24869324.539                    24869333.789
 116763221.017 7  90984364.96645  22219260.742                    22219266.809
 11  8 19  2 57  0.0000000  0  9G26G30G12G05G15G29G25G21G02
 117850739.392 7  91831857.51645  22426259.742                    22426268.523
 116581624.479 7  90842900.82345  22184745.906                    22184754.844
 118405099.226 7  92263775.499 7  22531739.961                    22531748.492
 110383810.488 8  86013454.286 7  21005323.953                    21005331.969
 122129288.663 7  95165751.796 6  23240435.859                    23240444.953
 113015563.025 8  88064129.828 7  21506145.281                    21506154.391
 115012068.170 8  89619844.970 7  21886068.102                    21886079.641
 130633019.350 6 101792023.10643  24858638.422                    24858648.465
 116807882.233 7  91019165.92045  22227758.797                    22227765.617
 11  8 19  2 57 30.0000000  0  9G26G30G12G05G15G29G25G21G02
 117770960.568 7  91769692.22544  22411078.094                    22411087.039
 116637801.663 7  90886675.22545  22195436.180                    22195445.535
 118491448.995 7  92331061.015 7  22548171.664                    22548180.387
 110443201.893 8  86059733.313 7  21016626.016                    21016633.660
 122034010.645 7  95091509.238 6  23222305.086                    23222314.082
 112945291.670 8  88009372.975 7  21492773.492                    21492782.133
 115052278.050 8  89651177.345 7  21893720.336                    21893731.449
 130576860.159 6 101748262.75342  24847951.773                    24847961.648
 116852633.546 7  91054037.07045  22236275.258                    22236281.547
 11  8 19  2 58  0.0000000  0  9G26G30G12G05G15G29G25G21G02
 117691516.988 7  91707788.16945  22395960.234                    22395969.531
 116694387.236 7  90930767.88545  22206204.094                    22206213.109
 118578014.965 7  92398514.989 7  22564644.930                    22564653.445
 110502951.523 8  86106291.463 7  21027995.883                    21028003.391
 121938814.065 7  95017330.138 6  23204189.180                    23204199.051
 112875255.336 8  87954799.248 7  21479445.563                    21479454.012
 115092962.038 8  89682879.153 7  21901462.016                    21901473.383
 130520693.193 6 101704496.36543  24837263.070                    24837273.734
 116897475.104 7  91088978.54145  22244808.422                    22244814.715
 11  8 19  2 58 30.0000000  0  9G26G30G12G05G15G29G25G21G02
 117612412.734 7  91646148.52245  22380907.125                    22380916.586
 116751378.622 7  90975176.73745  22217048.781                    22217058.645
 118664794.667 7  92466135.506 7  22581158.484                    22581167.137
 110563057.288 8  86153127.111 7  21039433.789                    21039441.750
 121843701.630 7  94943216.594 6  23186090.391                    23186099.492
 112805456.342 8  87900410.457 7  21466163.250                    21466172.145
 115134118.232 8  89714948.910 7  21909294.086                    21909304.848
 130464517.991 6 101660723.52743  24826573.375                    24826583.762
 116942407.584 7  91123990.85845  22253358.781                    22253365.020
 11  8 19  2 59  0.0000000  0  9G26G30G12G05G15G29G25G21G02
 117533650.935 7  91584775.72045  22365919.219                    22365928.684
 116808772.635 7  91019899.32845  22227970.586                    22227980.168
 118751784.206 7  92533919.549 7  22597712.188                    22597720.273
 110623516.270 8  86200238.003 7  21050938.945                    21050946.176
 121748676.564 7  94869171.143 6  23168007.727                    23168016.473
 112735896.776 8  87846208.243 7  21452926.539                    21452935.164
 115175744.092 8  89747384.642 7  21917214.875                    21917226.016
 130408333.726 6 101616943.64743  24815882.344                    24815892.102
 116987430.863 7  91159073.92245  22261926.031                    22261932.625
 11  8 19  2 59 30.0000000  0  9G26G30G12G05G15G29G25G21G02
 117455235.367 7  91523672.70845  22350997.500                    22351006.195
 116866566.646 7  91064933.61945  22238968.789                    22238978.289
 118838980.853 7  92601864.960 7  22614304.836                    22614313.496
 110684326.224 8  86247622.389 7  21062510.078                    21062517.996
 121653741.852 7  94795196.089 6  23149942.391                    23149950.797
 112666579.431 8  87792194.773 7  21439735.914                    21439744.734
 115217837.594 8  89780184.760 7  21925224.961                    21925236.520
 130352139.966 6 101573156.39643  24805188.164                    24805198.785
 117032545.484 7  91194228.17845  22270511.289                    22270517.570
 11  8 19  3  0  0.0000000  0  9G26G30G12G05G15G29G25G21G02
 117377169.962 7  91462842.55545  22336142.016                    22336150.605
 116924757.887 7  91110277.41545  22250041.977                    22250051.266
 118926382.032 7  92669969.758 6  22630936.930                    22630945.570
 110745484.932 8  86295278.525 7  21074148.242                    21074156.242
 121558900.738 7  94721293.989 6  23131894.000                    23131902.887
 112597506.426 8  87738371.700 7  21426591.852                    21426600.418
 115260396.601 8  89813347.614 7  21933323.703                    21933335.219
 130295936.246 6 101529361.37243  24794493.664                    24794503.535
 117077751.907 7  91229453.95545  22279113.508                    22279120.238
 11  8 19  3  0 30.0000000  0  9G26G30G12G05G15G29G25G21G02
 117299457.840 7  91402287.67345  22321353.875                    22321362.801
 116983343.009 7  91155928.15245  22261190.570                    22261199.719
 119013983.713 7  92738230.791 7  22647606.781                    22647615.387
 110806989.388 8  86343204.074 7  21085852.414                    21085860.129
 121464155.966 7  94647466.953 6  23113865.227                    23113874.336
 112528680.002 8  87684740.763 7  21413494.797                    21413503.059
 115303418.374 8  89846871.068 7  21941510.297                    21941521.809
 130239721.710 6 101485557.88943  24783796.273                    24783806.043
 117123049.957 7  91264751.11745  22287733.844                    22287739.535
 11  8 19  3  1  0.0000000  0  9G26G30G12G05G15G29G25G21G02
 117222102.592 7  91342010.88745  22306633.594                    22306642.949
 117042319.216 7  91201883.62045  22272413.188                    22272422.461
 119101783.119 7  92806645.884 6  22664313.969                    22664322.863
 110868837.535 8  86391397.432 7  21097621.461                    21097629.316
 121369510.869 7  94573717.558 6  23095854.828                    23095863.703
 112460102.890 8  87631304.097 7  21400444.922                    21400453.219
 115346900.849 8  89880753.511 7  21949784.820                    21949796.020
 130183496.133 6 101441745.85643  24773096.898                    24773105.336
 117168440.124 7  91300120.07045  22296371.508                    22296377.504
 11  8 19  3  1 30.0000000  0  9G26G30G12G05G15G29G25G21G02
 117145108.120 7  91282015.21645  22291982.117                    22291991.355
 117101683.854 7  91248141.76145  22283710.039                    22283719.137
 119189777.522 7  92875212.930 7  22681058.859                    22681067.484
 110931026.912 7  86439856.689 7  21109455.797                    21109463.926
 121274968.453 7  94500048.176 6  23077863.758                    23077872.441
 112391776.890 8  87578063.103 7  21387442.969                    21387451.270
 115390841.829 8  89914993.230 7  21958146.328                    21958157.910
 130127258.976 6 101397924.74043  24762395.031                    24762404.148
 117213922.743 7  91335561.05145  22305026.367                    22305032.543
 11  8 19  3  2  0.0000000  0  9G26G30G12G05G15G29G25G21G02
 117068478.060 7  91222303.51045  22277400.008                    22277408.754
 117161434.305 7  91294700.54345  22295079.977                    22295089.355
 119277963.834 7  92943929.522 7  22697840.578                    22697849.000
 110993555.430 8  86488580.212 7  21121354.477                    21121362.492
 121180532.079 7  94426461.437 6  23059893.438                    23059902.289
 112323704.908 8  87525020.050 7  21374489.172                    21374497.738
 115435239.235 8  89949588.599 7  21966595.383                    21966606.313
 130071009.683 6 101354094.22743  24751690.258                    24751700.383
 117259498.402 7  91371074.52945  22313698.766                    22313705.434
 11  8 19  3  2 30.0000000  0  9G26G30G12G05G15G29G25G21G02
 116992216.096 7  91162878.63245  22262887.781                    22262896.813
 117221567.350 7  91341557.43845  22306522.977                    22306532.414
 119366339.024 7  93012793.278 7  22714657.984                    22714666.766
 111056420.563 8  86537566.034 7  21133317.570                    21133325.063
 121086204.457 7  94352959.424 6  23041943.273                    23041951.938
 112255889.388 8  87472176.838 7  21361584.234                    21361592.809
 115480090.640 8  89984537.741 7  21975130.094                    21975141.609
 130014747.955 6 101310254.00143  24740984.852                    24740994.063
 117305167.288 7  91406660.65145  22322389.828                    22322395.703
 11  8 19  3  3  0.0000000  0  9G26G30G12G05G15G29G25G21G02
 116916325.486 7  91103743.12245  22248446.063                    22248455.469
 117282079.775 7  91388709.97245  22318037.883                    22318047.559
 119454899.549 7  93081801.456 7  22731510.727                    22731518.836
 111119619.410 8  86586811.899 7  21145343.984                    21145351.891
 120991988.472 7  94279544.405 6  23024014.672                    23024023.324
 112188332.036 8  87419534.789 7  21348728.516                    21348736.746
 115525393.332 8  90019838.526 7  21983751.430                    21983762.000
 129958472.872 6 101266403.39543  24730275.852                    24730285.105
 117350929.737 7  91442319.71045  22331098.164                    22331104.430
 11  8 19  3  3 30.0000000  0  9G26G30G12G05G15G29G25G21G02
 116840809.985 7  91044899.90945  22234075.867                    22234084.773
 117342969.056 7  91436156.15145  22329625.594                    22329634.406
 119543643.212 7  93150952.343 7  22748398.164                    22748406.496
 111183149.739 7  86636316.057 7  21157432.969                    21157440.891
 120897887.822 7  94206219.257 6  23006107.969                    23006116.730
 112121035.695 8  87367096.120 7  21335922.383                    21335930.930
 115571145.395 8  90055489.487 7  21992457.156                    21992468.504
 129902184.082 6 101222542.10543  24719564.094                    24719573.883
 117396786.001 7  91478051.85845  22339824.242                    22339830.344
 11  8 19  3  4  0.0000000  0  9G26G30G12G05G15G29G25G21G02
 116765672.845 7  90986351.52345  22219777.938                    22219786.750
 117404231.995 7  91483893.51845  22341283.078                    22341292.160
 119632565.964 7  93220242.781 7  22765319.188                    22765328.141
 111247008.775 8  86686076.364 7  21169585.289                    21169592.715
 120803904.924 7  94132985.887 6  22988223.688                    22988232.461
 112054002.468 8  87314862.483 7  21323166.375                    21323174.695
 115617344.077 8  90091488.459 7  22001248.688                    22001259.379
 129845881.037 6 101178669.71743  24708850.250                    24708860.059
 117442736.387 7  91513857.35745  22348568.078                    22348573.973
 11  8 19  3  4 30.0000000  0  9G26G30G12G05G15G29G25G21G02
 116690917.698 7  90928100.79845  22205552.313                    22205561.430
 117465865.445 7  91531919.56445  22353011.844                    22353021.313
 119721665.000 7  93289670.585 7  22782274.484                    22782282.973
 111311194.306 8  86736091.074 7  21181799.438                    21181807.359
 120710043.254 7  94059846.961 6  22970362.266                    22970371.098
 111987234.865 8  87262835.812 7  21310460.703                    21310469.340
 115663987.012 8  90127833.596 7  22010124.867                    22010135.551
 129789563.342 6 101134785.91243  24698133.359                    24698143.063
 117488781.055 7  91549736.27345  22357330.625                    22357336.695
 11  8 19  3  5  0.0000000  0 10G26G30G18G12G05G15G29G25G21G02
 116616548.195 7  90870150.56545  22191400.281                    22191409.215
 117527866.494 7  91580232.06145  22364809.930                    22364819.480
 129648839.00016 101025141.34052  24671362.422                    24671372.887
 119810937.062 7  93359233.201 7  22799262.359                    22799270.199
 111375703.698 8  86786358.139 7  21194075.211                    21194083.094
 120616305.551 7  93986804.653 6  22952524.711                    22952533.285
 111920734.954 8  87211017.731 7  21297806.445                    21297814.754
 115711071.780 8  90164523.019 7  22019084.555                    22019095.359
 129733230.163 6 101090890.06443  24687413.859                    24687423.004
 117534920.499 7  91585689.07145  22366110.344                    22366116.391
 11  8 19  3  5 30.0000000  0 10G26G30G18G12G05G15G29G25G21G02
 116542567.598 7  90812503.38245  22177321.961                    22177331.453
 117590232.243 7  91628828.74445  22376677.625                    22376686.824
 129559349.299 5 100955409.40342  24654332.523                    24654344.063
 119900379.339 7  93428928.456 7  22816282.945                    22816291.535
 111440534.529 8  86836875.681 7  21206411.648                    21206419.672
 120522695.136 7  93913861.505 7  22934710.563                    22934719.504
 111854505.283 8  87159410.223 7  21285203.023                    21285211.438
 115758595.893 8  90201554.800 7  22028128.234                    22028139.332
 129676880.971 6 101046981.68443  24676689.727                    24676700.254
 117581154.961 7  91621715.93145  22374908.648                    22374915.090
 11  8 19  3  6  0.0000000  0 10G26G30G18G12G05G15G29G25G21G02
 116468979.594 7  90755162.11445  22163318.969                    22163328.156
 117652959.446 7  91677707.08745  22388614.281                    22388623.195
 129470024.159 6 100885805.67843  24637334.813                    24637346.152
 119989988.468 7  93498753.740 7  22833334.313                    22833342.785
 111505684.192 8  86887641.657 7  21218809.438                    21218817.340
 120429214.826 7  93841019.765 6  22916921.633                    22916930.863
 111788548.168 8  87108015.094 7  21272651.609                    21272660.305
 115806556.826 8  90238926.962 7  22037254.617                    22037265.898
 129620515.271 6 101003060.50543  24665963.961                    24665973.734
 117627484.862 7  91657817.16145  22383725.023                    22383730.906
 11  8 19  3  6 30.0000000  0 10G26G30G18G12G05G15G29G25G21G02
 116395788.093 7  90698129.81245  22149391.008                    22149400.000
 117716045.586 7  91726865.10845  22400618.938                    22400628.891
 129380865.060 6 100816331.31842  24620368.586                    24620379.512
 120079761.874 7  93568707.015 7  22850417.703                    22850426.371
 111571150.647 8  86938654.479 7  21231267.344                    21231274.758
 120335867.993 7  93768282.017 7  22899158.438                    22899167.844
 111722866.258 8  87056834.411 7  21260153.094                    21260161.066
 115854952.534 8  90276637.898 7  22046464.180                    22046475.324
 129564133.033 6 100959126.43443  24655234.727                    24655244.703
 117673910.632 7  91693993.09045  22392559.625                    22392565.570
 11  8 19  3  7  0.0000000  0 10G26G30G18G12G05G15G29G25G21G02
 116322996.290 7  90641408.96145  22135539.039                    22135548.168
 117779487.474 7  91776300.34444  22412691.930                    22412701.148
 129291873.286 6 100746987.32743  24603433.461                    24603444.941
 120169696.262 7  93638785.747 6  22867531.398                    22867540.000
 111636931.319 8  86989912.163 7  21243785.055                    21243792.879
 120242658.117 7  93695650.996 7  22881421.219                    22881430.191
 111657461.952 8  87005870.032 7  21247706.633                    21247715.125
 115903780.431 8  90314685.609 7  22055755.680                    22055766.699
 129507733.625 6 100915178.96343  24644502.305                    24644511.746
 117720432.619 7  91730243.97145  22401412.172                    22401418.285
 11  8 19  3  7 30.0000000  0 10G26G30G18G12G05G15G29G25G21G02
 116250607.433 7  90585002.08745  22121763.805                    22121773.066
 117843281.792 7  91826010.21145  22424831.367                    22424840.699
 129203050.134 6 100677774.70942  24586530.891                    24586541.184
 120259788.461 7  93708987.443 6  22884675.625                    22884683.695
 111703023.201 8  87041412.341 7  21256361.633                    21256369.746
 120149587.623 7  93623128.567 7  22863710.625                    22863720.066
 111592337.207 8  86955123.501 7  21235314.242                    21235322.273
 115953037.687 8  90353067.877 7  22065129.031                    22065139.848
 129451316.098 6 100871217.38543  24633767.344                    24633776.215
 117767051.084 7  91766570.03645  22410283.117                    22410289.184
 11  8 19  3  8  0.0000000  0 10G26G30G18G12G05G15G29G25G21G02
 116178626.020 7  90528912.69745  22108066.641                    22108075.387
 117907426.381 7  91875992.99545  22437037.789                    22437046.992
 129114397.226 6 100608694.74443  24569660.125                    24569671.254
 120350035.886 7  93779310.108 6  22901849.156                    22901857.883
 111769425.103 8  87093154.087 7  21268997.617                    21269005.691
 120056660.307 7  93550717.701 6  22846027.133                    22846036.098
 111527495.205 8  86904597.283 7  21222974.797                    21222983.051
 116002722.639 8  90391783.423 7  22074583.734                    22074594.984
 129394880.653 6 100827241.82443  24623027.008                    24623036.480
 117813766.765 7  91802971.86145  22419173.070                    22419179.406
 11  8 19  3  8 30.0000000  0 10G26G30G18G12G05G15G29G25G21G02
 116107054.616 7  90473142.81145  22094446.680                    22094455.641
 117971917.499 7  91926245.80145  22449309.836                    22449319.430
 129025915.322 6 100539747.98443  24552823.211                    24552833.328
 120440434.938 7  93849750.919 6  22919051.719                    22919060.164
 111836133.535 8  87145134.688 7  21281691.992                    21281699.980
 119963878.778 7  93478420.460 6  22828371.203                    22828380.309
 111462937.830 8  86854292.849 7  21210689.953                    21210698.359
 116052832.106 8  90430829.756 7  22084119.164                    22084130.207
 129338426.448 6 100783251.67643  24612283.359                    24612293.500
 117860579.869 7  91839449.60745  22428081.008                    22428087.770
 11  8 19  3  9  0.0000000  0 10G26G30G18G12G05G15G29G25G21G02
 116035897.223 7  90417695.51245  22080905.711                    22080915.105
 118036752.382 7  91976766.49145  22461648.000                    22461656.887
 128937605.900 6 100470935.70843  24536017.555                    24536028.781
 120530982.964 7  93920307.813 6  22936282.703                    22936291.090
 111903146.642 8  87197352.694 7  21294444.273                    21294451.820
 119871246.543 7  93406239.521 7  22810743.672                    22810753.367
 111398667.440 8  86804212.052 7  21198460.094                    21198468.219
 116103363.812 8  90470205.108 7  22093735.148                    22093746.500
 129281953.150 6 100739246.62943  24601537.648                    24601546.996
 117907490.866 7  91876003.62045  22437008.297                    22437014.656
 11  8 19  3  9 30.0000000  0 10G26G30G18G12G05G15G29G25G21G02
 115965156.901 7  90362573.21045  22067444.523                    22067453.273
 118101927.800 7  92027552.52745  22474050.164                    22474059.637
 128849469.978 6 100402258.56043  24519246.320                    24519256.426
 120621676.728 7  93990978.264 6  22953541.133                    22953549.453
 111970461.406 8  87249805.757 7  21307253.602                    21307261.789
 119778766.497 7  93334177.193 6  22793145.477                    22793154.391
 111334686.283 8  86754356.627 7  21186284.656                    21186292.727
 116154315.034 8  90509907.348 7  22103430.781                    22103442.195
 129225460.126 6 100695226.20843  24590786.422                    24590796.125
 117954500.019 7  91912634.12245  22445954.055                    22445960.234
 11  8 19  3 10  0.0000000  0 10G26G30G18G12G05G15G29G25G21G02
 115894837.406 7  90307778.82545  22054062.773                    22054072.109
 118167440.743 7  92078601.55745  22486516.484                    22486526.082
 128761509.186 6 100333717.81943  24502508.023                    24502518.176
 120712513.130 7  94061759.873 7  22970826.430                    22970835.176
 112038075.637 8  87302492.179 7  21320120.281                    21320127.629
 119686441.846 7  93262235.927 7  22775576.914                    22775585.211
 111270997.106 8  86704728.713 7  21174164.797                    21174173.484
 116205683.311 8  90549934.563 7  22113205.984                    22113217.023
 129168946.944 6 100651190.08043  24580032.609                    24580041.926
 118001607.652 7  91949341.37045  22454918.164                    22454924.809
 11  8 19  3 10 30.0000000  0 10G26G30G18G12G05G15G29G25G21G02
 115824941.325 7  90253314.36845  22040762.305                    22040771.309
 118233287.597 7  92129910.78045  22499047.008                    22499056.125
 128673724.126 6 100265314.01843  24485802.891                    24485813.066
 120803488.473 7  94132649.742 7  22988138.680                    22988147.090
 112105985.893 8  87355409.270 7  21333043.031                    21333051.094
 119594275.097 7  93190417.732 6  22758037.828                    22758046.805
 111207601.599 8  86655329.650 7  21162101.297                    21162109.410
 116257465.487 8  90590284.299 7  22123059.859                    22123070.660
 129112412.669 6 100607137.55943  24569275.227                    24569284.371
 118048813.905 7  91986125.45345  22463900.922                    22463907.512
 11  8 19  3 11  0.0000000  0 10G26G30G18G12G05G15G29G25G21G02
 115755473.076 7  90199183.30245  22027542.953                    22027551.602
 118299465.923 7  92181478.29145  22511640.492                    22511649.902
 128586116.703 6 100197048.68043  24469131.242                    24469141.949
 120894600.583 7  94203646.179 6  23005476.742                    23005484.895
 112174191.013 8  87408556.128 7  21346022.039                    21346029.883
 119502269.922 7  93118725.423 6  22740530.172                    22740538.695
 111144502.677 8  86606161.681 7  21150093.672                    21150102.082
 116309659.630 8  90630955.056 7  22132991.938                    22133003.063
 129055857.461 6 100563068.67543  24558512.500                    24558521.484
 118096119.312 7  92022986.80845  22472902.820                    22472909.086
 11  8 19  3 11 30.0000000  0 10G26G30G18G12G05G15G29G25G21G02
 115686435.752 7  90145388.02145  22014405.383                    22014414.117
 118365972.464 7  92233301.54545  22524296.813                    22524305.527
 128498687.842 6 100128922.40943  24452494.164                    24452504.648
 120985845.992 7  94274746.480 7  23022839.539                    23022848.441
 112242687.955 8  87461930.363 7  21359056.828                    21359064.410
 119410430.037 7  93047161.917 6  22723053.164                    22723061.727
 111081702.545 8  86557226.552 7  21138143.578                    21138151.707
 116362262.969 8  90671944.644 7  22143002.148                    22143013.098
 128999280.571 6 100518982.95243  24547745.938                    24547755.855
 118143524.377 7  92059925.80945  22481924.141                    22481930.105
 11  8 19  3 12  0.0000000  0 10G26G30G18G12G05G15G29G25G21G02
 115617833.159 7  90091931.48645  22001350.461                    22001359.816
 118432804.518 7  92285378.47445  22537014.000                    22537023.391
 128411439.333 6 100060936.69142  24435891.258                    24435901.480
 121077222.057 7  94345948.578 7  23040227.813                    23040237.348
 112311474.830 8  87515530.536 7  21372146.484                    21372154.164
 119318757.849 7  92975729.083 7  22705608.617                    22705617.820
 111019204.177 8  86508526.553 7  21126250.516                    21126258.648
 116415273.200 8  90713251.313 7  22153089.875                    22153100.738
 128942681.729 6 100474880.06343  24536975.672                    24536984.758
 118191029.635 7  92096942.87645  22490963.883                    22490970.383
 11  8 19  3 12 30.0000000  0 10G26G30G18G12G05G15G29G25G21G02
 115549668.377 7  90038816.10045  21988379.711                    21988388.547
 118499958.747 7  92337706.41545  22549793.430                    22549802.305
 128324371.916 6  99993092.09542  24419322.320                    24419332.832
 121168725.376 7  94417249.835 7  23057640.703                    23057649.648
 112380548.803 8  87569354.415 7  21385290.797                    21385298.734
 119227255.977 7  92904428.967 7  22688196.234                    22688205.188
 110957009.700 8  86460063.351 7  21114415.023                    21114423.285
 116468687.447 8  90754872.788 7  22163254.195                    22163265.094
 128886060.480 6 100430759.75943  24526201.281                    24526209.910
 118238635.468 7  92134038.30745  22500022.984                    22500029.273
 11  8 19  3 13  0.0000000  0 10G26G30G18G12G05G15G29G25G21G02
 115481944.466 7  89986044.24145  21975491.719                    21975500.820
 118567431.727 7  92390282.75045  22562632.711                    22562642.090
 128237486.796 6  99925389.50642  24402788.750                    24402798.484
 121260352.895 7  94488647.871 7  23075076.602                    23075085.758
 112449907.068 8  87623399.836 7  21398488.766                    21398497.059
 119135928.383 7  92833264.647 7  22670816.789                    22670825.980
 110895120.873 8  86411838.331 7  21102638.188                    21102646.223
 116522502.869 8  90796806.866 7  22173494.656                    22173505.359
 128829415.824 6 100386621.19043  24515421.844                    24515430.473
 118286342.186 7  92171212.35945  22509100.938                    22509107.797
 11  8 19  3 13 30.0000000  0 10G26G30G18G12G05G15G29G25G21G02
 115414664.969 7  89933618.69245  21962689.375                    21962697.961
 118635220.318 7  92443105.01345  22575532.766                    22575541.535
 128150784.786 6  99857829.65643  24386290.211                    24386300.219
 121352101.292 7  94560140.109 6  23092536.109                    23092544.703
 112519547.071 8  87677664.769 7  21411741.055                    21411748.922
 119044777.517 7  92762238.044 7  22653471.828                    22653480.113
 110833539.858 8  86363853.154 7  21090919.320                    21090927.641
 116576716.704 8  90839051.406 7  22183811.227                    22183822.164
 128772747.691 6 100342464.31443  24504638.281                    24504647.191
 118334149.866 7  92208465.08445  22518198.727                    22518204.828
 11  8 19  3 14  0.0000000  0 10G26G30G18G12G05G15G29G25G21G02
 115347833.631 7  89881542.34645  21949971.367                    21949980.293
 118703321.828 7  92496171.11645  22588491.414                    22588501.125
 128064267.814 6  99790413.94643  24369826.023                    24369835.660
 121443967.738 7  94631724.332 6  23110017.664                    23110026.566
 112589466.768 8  87732147.657 7  21425046.070                    21425054.391
 118953807.140 7  92691352.091 7  22636160.273                    22636169.375
 110772269.994 8  86316110.445 7  21079260.047                    21079268.875
 116631326.635 8  90881604.589 7  22194203.297                    22194214.309
 128716055.714 6 100298288.85943  24493849.617                    24493858.891
 118382059.219 7  92245797.04945  22527315.711                    22527321.707
 11  8 19  3 14 30.0000000  0 10G26G30G18G12G05G15G29G25G21G02
 115281453.306 7  89829817.45345  21937339.773                    21937348.621
 118771732.820 7  92549478.38145  22601509.844                    22601519.016
 127977936.585 6  99723143.00642  24353397.859                    24353407.762
 121535949.127 7  94703398.130 6  23127521.750                    23127530.191
 112659663.481 8  87786846.389 7  21438404.500                    21438412.613
 118863020.004 7  92620608.907 7  22618884.234                    22618892.949
 110711313.178 8  86268611.655 7  21067660.469                    21067668.578
 116686329.743 8  90924464.147 7  22204669.820                    22204680.828
 128659339.342 6 100254094.44143  24483056.984                    24483066.086
 118430070.564 7  92283208.47745  22536451.602                    22536457.859
 11  8 19  3 15  0.0000000  0 10G26G30G18G12G05G15G29G25G21G02
 115215527.626 7  89778446.82445  21924794.891                    21924803.676
 118840450.305 7  92603024.45244  22614586.156                    22614595.758
 127891792.728 6  99656018.04842  24337005.148                    24337014.633
 121628042.899 7  94775159.505 6  23145046.461                    23145054.551
 112730134.878 8  87841759.165 7  21451814.539                    21451822.379
 118772419.494 7  92550011.148 7  22601643.500                    22601652.219
 110650672.146 8  86221358.933 7  21056120.648                    21056129.148
 116741723.500 8  90967628.106 7  22215211.219                    22215222.441
 128602598.524 6 100209880.93643  24472259.477                    24472268.406
 118478184.189 7  92320699.59145  22545607.695                    22545613.453
 11  8 19  3 15 30.0000000  0 10G26G30G18G12G05G15G29G25G21G02
 115150059.895 7  89727433.04845  21912336.188                    21912345.316
 118909471.167 7  92656806.93745  22627720.391                    22627730.035
 127805837.175 6  99589039.82742  24320647.602                    24320657.313
 121720245.734 7  94847005.876 6  23162592.320                    23162600.105
 112800878.430 8  87896884.007 7  21465276.953                    21465284.531
 118682008.701 7  92479561.215 7  22584439.070                    22584447.813
 110590348.782 7  86174353.740 7  21044641.758                    21044650.016
 116797505.123 8  91011094.296 7  22225826.219                    22225837.043
 128545832.130 6 100165647.49643  24461456.953                    24461465.555
 118526400.849 7  92358271.01145  22554782.734                    22554789.238
 11  8 19  3 16  0.0000000  0 10G26G30G18G12G05G15G29G25G21G02
 115085053.395 7  89676778.65245  21899965.742                    21899975.090
 118978792.133 7  92710823.28045  22640912.016                    22640921.445
 127720070.960 6  99522209.11743  24304327.758                    24304337.555
 121812554.166 7  94918934.513 6  23180157.766                    23180166.313
 112871891.740 8  87952219.060 7  21478789.906                    21478798.047
 118591790.652 7  92409261.487 7  22567271.234                    22567279.977
 110530345.686 8  86127598.105 7  21033223.078                    21033231.715
 116853671.902 8  91054860.618 7  22236514.141                    22236525.488
 128489040.042 6 100121394.01443  24450649.898                    24450658.672
 118574720.807 7  92395922.92545  22563977.664                    22563984.223
 11  8 19  3 16 30.0000000  0 10G26G30G18G12G05G15G29G25G21G02
 115020511.336 7  89626486.17345  21887684.266                    21887692.977
 119048410.160 7  92765071.07045  22654159.859                    22654169.461
 127634495.487 6  99455527.07743  24288042.617                    24288052.535
 121904965.502 7  94990943.320 6  23197742.453                    23197751.398
 112943172.239 8  88007762.305 7  21492354.055                    21492361.984
 118501768.623 7  92339114.496 7  22550140.336                    22550149.270
 110470665.128 8  86081093.801 7  21021866.375                    21021874.785
 116910221.091 8  91098924.902 7  22247275.102                    22247286.766
 128432221.638 6 100077120.08343  24439837.875                    24439846.766
 118623144.463 7  92433655.61845  22573192.313                    22573199.086
 11  8 19  3 17  0.0000000  0 10G26G30G18G12G05G15G29G25G21G02
 114956437.041 7  89576558.17445  21875491.063                    21875500.320
 119118322.097 7  92819547.91545  22667464.047                    22667472.965
 127549111.727 6  99388994.39743  24271794.680                    24271804.758
 121997476.625 7  95063029.891 6  23215347.430                    23215356.250
 113014717.582 8  88063511.903 7  21505969.125                    21505976.723
 118411945.376 7  92269122.391 7  22533047.859                    22533056.242
 110411309.571 8  86034842.738 7  21010571.508                    21010579.551
 116967149.990 7  91143285.077 7  22258108.719                    22258119.531
 128375376.716 6 100032825.44643  24429019.555                    24429028.801
 118671672.203 7  92471469.44445  22582427.016                    22582433.332
 11  8 19  3 17 30.0000000  0 10G26G30G18G12G05G15G29G25G21G02
 114892833.754 7  89526997.19745  21863387.625                    21863396.449
 119188524.743 7  92874251.27245  22680822.648                    22680831.777
 127463920.838 6  99322611.98343  24255583.266                    24255592.680
 122090084.765 7  95135192.058 6  23232969.883                    23232978.008
 113086525.345 8  88119466.002 7  21519633.469                    21519641.352
 118322324.022 7  92199287.610 7  22515993.227                    22516002.164
 110352281.262 8  85988846.676 8  20999338.680                    20999347.242
 117024455.779 7  91187938.926 7  22269013.555                    22269024.555
 128318504.751 6  99988509.76043  24418196.688                    24418206.453
 118720304.490 7  92509364.72144  22591681.547                    22591687.805
 11  8 19  3 18  0.0000000  0 10G26G30G18G12G05G15G29G25G21G02
 114829705.034 7  89477806.01145  21851374.758                    21851383.703
 119259015.090 7  92929178.80345  22694237.133                    22694246.387
 127378924.149 6  99256380.90243  24239408.367                    24239418.664
 122182786.653 7  95207427.248 7  23250610.805                    23250619.559
 113158593.198 8  88175622.763 7  21533347.336                    21533355.305
 118232908.233 7  92129613.000 7  22498977.953                    22498986.844
 110293582.805 8  85943107.636 7  20988168.875                    20988177.207
 117082135.816 7  91232884.418 7  22279989.391                    22280001.113
 128261605.567 6  99944172.84943  24407370.219                    24407379.266
 118769041.735 7  92547341.79945  22600955.664                    22600961.938
 11  8 19  3 18 30.0000000  0 10G26G30G18G12G05G15G29G25G21G02
 114767053.434 7  89428986.61445  21839452.688                    21839461.223
 119329789.547 7  92984327.74145  22707704.648                    22707713.895
 127294122.121 6  99190301.50243  24223271.133                    24223281.207
 122275579.035 7  95279732.976 6  23268268.211                    23268277.395
 113230918.159 8  88231979.866 7  21547110.594                    21547118.438
 118143700.545 7  92060100.546 7  22482002.703                    22482010.887
 110235215.828 7  85897626.890 7  20977061.883                    20977070.594
 117140186.966 7  91278119.059 7  22291036.383                    22291047.602
 128204678.249 6  99899814.01443  24396536.484                    24396546.344
 118817884.272 7  92585400.91845  22610250.656                    22610256.301
 11  8 19  3 19  0.0000000  0 10G26G30G18G12G05G15G29G25G21G02
 114704882.813 7  89380541.99945  21827621.742                    21827630.539
 119400845.222 7  93039695.79244  22721226.031                    22721235.484
 127209516.236 6  99124374.95143  24207171.992                    24207180.332
 122368459.156 7  95352107.076 6  23285942.992                    23285952.211
 113303497.886 8  88288535.492 7  21560922.039                    21560930.059
 118054704.309 7  91990752.857 7  22465067.414                    22465075.629
 110177183.203 8  85852406.669 7  20966018.578                    20966026.949
 117198606.688 7  91323640.907 7  22302153.000                    22302164.711
 128147722.675 6  99855433.17843  24385698.469                    24385707.602
 118866832.737 7  92623542.56444  22619565.078                    22619571.063
